     2              OBSERVATION DATA    GPS                 RINEX VERSION / TYPE
teqc 1997Sep10 19971010 23:16:14UTC                         PGM / RUN BY / DATE
                                                            COMMENT
Original Marker Name: COLL                                  COMMENT
Campaign Name: NGS Salton Trough 1991                       COMMENT
4-Character Station Name: COLL                              COMMENT
6-Character Antenna Code: TRMSST                            COMMENT
Vertical Measurement Point: BGP                             COMMENT
Vertical Offset to Rinex Ref. Point: 0.0597                 COMMENT
Radial Measurement Point: NGP                               COMMENT
Radial Offset to Rinex Ref. Point: 0.2334                   COMMENT
Antenna Height from Field Measurement: 1.7690 m             COMMENT
Original XYZ: -2309836.8524 -4842134.6978 3437811.7853      COMMENT
New XYZ position is based on association with SCEC monument COMMENT
E1C8W2I6+0012. Position of that monument is believed to be  COMMENT
valid to within 1 m horizontally; vertical accuracy         COMMENT
should be no worse than 3-times this value.                 COMMENT
                                                            COMMENT
Revised Rinex header created by UCSD GPS archive for        COMMENT
GSAC on 10-Apr-1999 (1999:100) 05:54:09 GMT                 COMMENT
For assistance contact dagnew@ucsd.edu or hjohnson@ucsd.edu COMMENT
                                                            COMMENT
COLLEGE 1967 1979                                           MARKER NAME
unknown NATIONAL GEODETIC SURVEY                            OBSERVER / AGENCY
483 TRIMBLE 4000 SST NP 4.30 / SP 4.20                      REC # / TYPE / VERS
19 TR 4000SST L1/L2 GEO                                     ANT # / TYPE
 -2309840.0000 -4842142.0000  3437815.0000                  APPROX POSITION XYZ
        1.6938        0.0000        0.0000                  ANTENNA: DELTA H/E/N
     1     1     0                                          WAVELENGTH FACT L1/2
     3    C1    L1    L2                                    # / TYPES OF OBSERV
     0                                                      INTERVAL
  1991     3    20    22    11   15.000000                  TIME OF FIRST OBS
  1991     3    21     3    41   60.000000                  TIME OF LAST OBS
     0                                                      # OF SATELLITES
                                                            END OF HEADER
 91  3 20 22 11 15.0000000  0  4G18G11G19G 2
  20564051.2814         -0.16058
  23554983.352          -0.22216
  21007849.781          -0.34416
  23976813.781          -0.35815
 91  3 20 22 11 30.0000000  0  4G18G11G19G 2
  20566902.805       14986.116 8        -0.09032
  23549347.0474     -29636.39646
  21007037.906       -4272.029 6
  23968143.742      -45531.412 5
 91  3 20 22 11 45.0000000  0  4G18G11G19G 2
  20569765.102       30025.131 8     11718.60122
  23543711.2664     -59237.70646        -0.39871
  21006219.063       -8569.187 6        -0.24433
  23959477.7424     -91079.75245        -0.14271
 91  3 20 22 12  0.0000000  0  4G18G11G19G 2
  20572638.813       45129.897 8     23488.53822
  23538085.4224     -88790.57246    -23028.48161
  21005399.953      -12878.563 6     -3358.18023
  23950810.195     -136632.176 5    -35495.30421
 91  3 20 22 12 15.0000000  0  4G18G11G19G 2
  20575528.258       60310.074 8     35317.22722
  23532476.4454    -118285.26846    -46011.23561
  21004579.570      -17190.891 6     -6718.41623
  23942140.1954    -182179.11745    -70986.20161
 91  3 20 22 12 30.0000000  0  4G18G11G19G 2
  20578433.664       75581.723 8     47217.19722
  23526875.7424    -147705.32146    -68935.84261
  21003760.711      -21490.204 6    -10068.50223
  23933478.2424    -227704.15745   -106460.05761
 91  3 20 22 12 45.0000000  0  4G18G11G19G 2
  20581358.234       90944.114 8     59187.86823
  23521296.1804    -177051.14046    -91802.59161
  21002947.422      -25777.001 6    -13408.83923
  23924811.6254    -273207.92345   -141917.30761
 91  3 20 22 13  0.0000000  0  4G18G11G19G 2
  20584298.859      106403.768 8     71234.33523
  23515723.078     -206315.884 6   -114606.17021
  21002133.930      -30044.814 6    -16734.38423
  23916163.5784    -318683.76945   -177352.81861
 91  3 20 22 13 15.0000000  0  4G18G11G19G 2
  20587258.648      121958.020 8     83354.50723
  23510170.445     -235501.390 6   -137347.98821
  21001324.500      -34295.977 6    -20046.95123
  23907511.7274    -364133.98245   -212768.34661
 91  3 20 22 13 30.0000000  0  4G18G11G19G 2
  20590238.758      137612.231 8     95552.57923
  23504631.688     -264602.373 6   -160023.96721
  21000520.078      -38525.442 6    -23342.61923
  23898869.211     -409553.312 5   -248159.81421
 91  3 20 22 13 45.0000000  0  4G18G11G19G 2
  20593236.719      153368.416 8    107830.11023
  23499110.945     -293616.312 6   -182632.10121
  20999719.516      -42731.099 6    -26619.72923
  23890235.773     -454939.519 5   -283525.47921
 91  3 20 22 14  0.0000000  0  4G18G11G19G 2
  20596255.563      169229.367 8    120189.27823
  23493607.297     -322539.935 6   -205169.85921
  20998923.172      -46910.101 6    -29876.06923
  23881606.281     -500289.306 5   -318862.76121
 91  3 20 22 14 15.0000000  0  4G18G11G19G 2
  20599292.836      185196.251 8    132630.98323
  23488120.5164    -351372.01346   -227636.30161
  20998134.656      -51061.377 6    -33110.80723
  23872978.9144    -545601.58145   -354170.80761
 91  3 20 22 14 30.0000000  0  4G18G11G19G 2
  20602351.438      201266.825 8    145153.49323
  23482653.0554    -380114.22246   -250032.69361
  20997347.945      -55187.149 6    -36325.67423
  23864363.602     -590878.501 5   -389451.30221
 91  3 20 22 14 45.0000000  0  4G18G11G19G 2
  20605429.672      217441.337 8    157756.99023
  23477197.063     -408766.035 6   -272358.66221
  20996570.391      -59287.300 6    -39520.56923
  23855756.8204    -636119.61245   -424703.90261
 91  3 20 22 15  0.0000000  0  4G18G11G19G 2
  20608525.852      233717.411 8    170439.63023
  23471763.1564    -437329.18346   -294615.53961
  20995790.563      -63363.747 6    -42696.99523
  23847148.7114    -681326.88745   -459930.10761
 91  3 20 22 15 15.0000000  0  4G18G11G19G 2
  20611643.445      250094.492 8    183200.97623
  23466342.8054    -465804.09146   -316803.67861
  20995021.4614     -67417.28646    -45855.56763
  23838556.664     -726500.991 5   -495130.50121
 91  3 20 22 15 30.0000000  0  4G18G11G19G 2
  20614779.438      266577.757 8    196045.06023
  23460944.0474    -494185.22046   -338918.71761
  20994257.5784     -71442.72446    -48992.24263
  23829967.0004    -771636.51945   -530300.81161
 91  3 20 22 15 45.0000000  0  4G18G11G19G 2
  20617936.172      283168.570 8    208972.95023
  23455559.8834    -522470.73046   -360959.27061
  20993495.781      -75438.600 6    -52105.88423
  23821386.3594    -816731.83045   -565439.76861
 91  3 20 22 16  0.0000000  0  4G18G11G19G 2
  20621113.875      299863.281 8    221981.79923
  23450196.4304    -550663.88146   -382927.83961
  20992737.742      -79408.615 6    -55199.38023
  23812808.930     -861790.502 5   -600550.17621
 91  3 20 22 16 15.0000000  0  4G18G11G19G 2
  20624310.492      316664.968 8    235073.99923
  23444848.1484    -578761.38646   -404821.88861
  20991990.516      -83349.799 6    -58270.40823
  23804240.891     -906809.282 5   -635629.51121
 91  3 20 22 16 30.0000000  0  4G18G11G19G 2
  20627528.367      333573.148 8    248249.18423
  23439518.039     -606763.285 6   -426641.42721
  20991246.164      -87262.564 6    -61319.30123
  23795687.492     -951788.589 5   -670678.10821
 91  3 20 22 16 45.0000000  0  4G18G11G19G 2
  20630764.484      350581.789 8    261502.64923
  23434208.758     -634675.359 6   -448390.98821
  20990506.609      -91152.953 6    -64350.74623
  23787129.2194    -996734.29845   -705700.51261
 91  3 20 22 17  0.0000000  0  4G18G11G19G 2
  20634020.406      367690.557 8    274834.13623
  23428911.4454    -662497.31746   -470070.32361
  20989769.883      -95021.092 6    -67364.86023
  23778583.195    -1041646.198 5   -740696.55821
 91  3 20 22 17 15.0000000  0  4G18G11G19G 2
  20637296.680      384905.189 8    288248.11623
  23423639.813     -690223.255 6   -491674.84621
  20989038.5314     -98861.51446    -70357.36563
  23770044.578    -1086518.777 5   -775661.98521
 91  3 20 22 17 30.0000000  0  4G18G11G19G 2
  20640593.477      402228.905 8    301747.09023
  23418381.4224    -717849.43646   -513201.61661
  20988314.422     -102670.778 6    -73325.60223
  23761513.641    -1131348.335 5   -810593.88321
 91  3 20 22 17 45.0000000  0  4G18G11G19G 2
  20643910.656      419660.834 8    315330.39422
  23413142.328     -745376.416 6   -534651.09321
  20987593.672     -106449.880 6    -76270.33023
  23752992.750    -1176135.743 5   -845492.93421
 91  3 20 22 18  0.0000000  0  4G18G11G19G 2
  20647247.141      437196.583 8    328994.59322
  23407921.5314    -772808.36746   -556026.52961
  20986878.469     -110203.035 6    -79194.84923
  23744476.266    -1220885.323 5   -880362.50521
 91  3 20 22 18 15.0000000  0  4G18G11G19G 2
  20650605.313      454839.178 8    342742.04723
  23402719.1884    -800141.63546   -577325.06061
  20986171.734     -113927.187 6    -82096.76923
  23735965.711    -1265593.604 5   -915199.87721
 91  3 20 22 18 30.0000000  0  4G18G11G19G 2
  20653982.531      472586.847 8    356571.37922
  23397535.9924    -827378.00346   -598548.08461
  20985467.031     -117624.274 6    -84977.59323
  23727470.0554   -1310262.49745   -950006.57961
 91  3 20 22 18 45.0000000  0  4G18G11G19G 2
  20657379.617      490438.262 8    370481.54823
  23392373.6484    -854518.09146   -619696.08761
  20984768.422     -121295.245 6    -87838.06723
  23718976.3674   -1354892.88745   -984783.27361
 91  3 20 22 19  0.0000000  0  4G18G11G19G 2
  20660796.219      508394.856 8    384473.67723
  23387230.0004    -881560.28946   -640767.81061
  20984073.563     -124938.822 6    -90677.20223
  23710491.938    -1399483.309 6  -1019528.83421
 91  3 20 22 19 15.0000000  0  4G18G11G19G 2
  20664234.391      526459.810 8    398550.23823
  23382097.695     -908500.983 6   -661760.45021
  20983389.633     -128551.907 6    -93492.57123
  23702013.0314   -1444030.61145  -1054240.78061
 91  3 20 22 19 30.0000000  0  4G18G11G19G 2
  20667692.141      544631.591 8    412710.05123
  23376990.641     -935341.184 6   -682674.77921
  20982709.336     -132135.824 6    -96285.21123
  23693543.0634   -1488535.72145  -1088919.84561
 91  3 20 22 19 45.0000000  0  4G18G11G19G 2
  20671169.305      562908.022 8    426951.39923
  23371902.609     -962082.945 6   -703512.40621
  20982028.828     -135692.802 6    -99056.86223
  23685082.9774   -1533000.81345  -1123567.74261
 91  3 20 22 20  0.0000000  0  4G18G11G19G 2
  20674667.695      581287.031 8    441272.68123
  23366834.5004    -988727.83346   -724274.53661
  20981354.703     -139224.690 6   -101808.96223
  23676626.828    -1577427.572 5  -1158185.77221
 91  3 20 22 20 15.0000000  0  4G18G11G19G 2
  20678184.297      599771.654 8    455676.26023
  23361782.133    -1015272.352 6   -744958.47121
  20980690.891     -142728.410 6   -104539.11723
  23668181.633    -1621812.743 5  -1192771.39021
 91  3 20 22 20 30.0000000  0  4G18G11G19G 2
  20681722.297      618363.320 8    470163.24823
  23356751.172    -1041714.912 6   -765562.92621
  20980031.539     -146202.751 6   -107246.37123
  23659746.0944   -1666154.95945  -1227323.54361
 91  3 20 22 20 45.0000000  0  4G18G11G19G 2
  20685279.563      637060.504 8    484732.45723
  23351739.4614   -1068056.66746   -786088.86661
  20979373.578     -149649.089 6   -109931.81223
  23651308.039    -1710455.672 5  -1261843.33321
 91  3 20 22 21  0.0000000  0  4G18G11G19G 2
  20688858.820      655864.923 8    499385.23023
  23346746.164    -1094295.739 6   -806534.78621
  20978722.188     -153065.860 6   -112594.21823
  23642888.813    -1754713.143 5  -1296329.44721
 91  3 20 22 21 15.0000000  0  4G18G11G19G 2
  20692458.055      674779.796 8    514124.07523
  23341769.953    -1120428.113 6   -826897.55921
  20978078.2894    -156449.43746   -115230.75563
  23634475.609    -1798923.560 5  -1330778.88521
 91  3 20 22 21 30.0000000  0  4G18G11G19G 2
  20696076.875      693798.791 8    528944.04523
  23336817.492    -1146459.710 6   -847181.81421
  20977440.0474    -159806.14446   -117846.35963
  23626072.438    -1843093.349 5  -1365196.69421
 91  3 20 22 21 45.0000000  0  4G18G11G19G 2
  20699714.758      712921.850 8    543845.10923
  23331883.227    -1172390.452 6   -867387.48521
  20976806.930     -163136.148 6   -120441.15123
  23617673.3754   -1887222.32745  -1399582.66561
 91  3 20 22 22  0.0000000  0  4G18G11G19G 2
  20703373.977      732147.039 8    558825.75423
  23326967.422    -1198221.858 6   -887515.75721
  20976175.492     -166441.302 6   -123016.58523
  23609281.9924   -1931312.12845  -1433938.12561
 91  3 20 22 22 15.0000000  0  4G18G11G19G 2
  20707054.523      751479.874 8    573890.27423
  23322072.695    -1223948.114 6   -907562.08321
  20975554.7894    -169715.96446   -125568.25963
  23600898.320    -1975357.138 5  -1468258.68421
 91  3 20 22 22 30.0000000  0  4G18G11G19G 2
  20710752.063      770918.394 8    589037.15223
  23317195.203    -1249570.725 6   -927527.66021
  20974934.617     -172962.214 6   -128097.78923
  23592528.3284   -2019359.12045  -1502545.73561
 91  3 20 22 22 45.0000000  0  4G18G11G19G 2
  20714471.180      790461.498 8    604265.52023
  23312342.836    -1275090.396 6   -947413.02321
  20974324.398     -176180.971 6   -130605.89323
  23584163.5864   -2063318.80945  -1536799.81161
 91  3 20 22 23  0.0000000  0  4G18G11G19G 2
  20718211.820      810112.178 8    619577.71523
  23307502.9534   -1300503.58146   -967215.41061
  20973717.2584    -179368.96746   -133090.03663
  23575807.5634   -2107232.99845  -1571018.42961
 91  3 20 22 23 15.0000000  0  4G18G11G19G 2
  20721971.305      829865.825 8    634970.14023
  23302683.773    -1325814.778 6   -986938.31821
  20973116.250     -182531.008 6   -135553.94623
  23567457.2974   -2151106.22746  -1605205.13561
 91  3 20 22 23 30.0000000  0  4G18G11G19G 2
  20725749.773      849725.593 8    650445.25923
  23297887.7814   -1351020.40946  -1006578.98861
  20972518.875     -185663.797 6   -137995.06423
  23559118.125    -2194935.282 6  -1639357.42221
 91  3 20 22 23 45.0000000  0  4G18G11G19G 2
  20729549.4064     869692.70148    666004.01363
  23293115.1024   -1376119.08146  -1026136.29761
  20971930.055     -188766.230 6   -140412.52523
  23550784.1024   -2238718.71146  -1673474.18061
 91  3 20 22 24  0.0000000  0  4G18G11G19G 2
  20733368.7894     889767.91248    681647.00363
  23288357.773    -1401109.499 6  -1045609.26621
  20971345.367     -191837.362 6   -142805.60123
  23542461.0944   -2282455.58546  -1707554.65461
 91  3 20 22 24 15.0000000  0  4G18G11G19G 2
  20737210.8524     909949.73248    697373.06763
  23283619.9924   -1425992.51846  -1064998.53461
  20970767.031     -194878.444 6   -145175.25623
  23534147.7344   -2326146.94746  -1741599.66861
 91  3 20 22 24 30.0000000  0  4G18G11G19G 2
  20741070.6174     930237.36248    713181.57763
  23278909.2894   -1450768.94546  -1084304.74461
  20970191.078     -197890.668 6   -147522.42723
  23525841.3284   -2369793.73546  -1775609.95061
 91  3 20 22 24 45.0000000  0  4G18G11G19G 2
  20744951.0864     950628.90648    729071.05963
  23274213.5634   -1475440.29746  -1103529.07761
  20969627.336     -200875.612 6   -149848.34123
  23517543.469    -2413397.627 6  -1809586.82221
 91  3 20 22 25  0.0000000  0  4G18G11G19G 2
  20748851.6174     971123.02148    745040.46663
  23269539.7504   -1500007.25946  -1122672.07361
  20969060.8984    -203834.35146   -152153.83763
  23509255.7034   -2456959.57846  -1843530.99861
 91  3 20 22 25 15.0000000  0  4G18G11G19G 2
  20752770.4224     991722.94048    761092.31463
  23264884.4454   -1524466.38746  -1141731.04761
  20968505.484     -206763.729 6   -154436.45523
  23500972.945    -2500476.283 6  -1877439.91521
 91  3 20 22 25 30.0000000  0  4G18G11G19G 2
  20756713.0314    1012428.23248    777226.28263
  23260252.211    -1548817.706 6  -1160706.03021
  20967953.422     -209664.036 6   -156696.41923
  23492702.188    -2543947.784 6  -1911313.61521
 91  3 20 22 25 45.0000000  0  4G18G11G19G 2
  20760671.2274    1033240.44248    793443.55563
  23255637.922    -1573059.193 6  -1179595.41221
  20967406.836     -212533.490 6   -158932.34423
  23484437.3524   -2587372.40246  -1945150.76961
 91  3 20 22 26  0.0000000  0  4G18G11G19G 2
  20764653.0474    1054158.40548    809743.23663
  23251043.164    -1597191.891 6  -1198400.03421
  20966864.094     -215373.517 6   -161145.33323
  23476184.8054   -2630751.32646  -1978952.32561
 91  3 20 22 26 15.0000000  0  4G18G11G19G 2
  20768653.2814    1075184.33048    826127.04063
  23246472.391    -1621213.097 6  -1217117.77221
  20966331.914     -218181.639 6   -163333.46423
  23467937.195    -2674081.936 6  -2012716.25821
 91  3 20 22 26 30.0000000  0  4G18G11G19G 2
  20772674.9694    1096317.43048    842594.36263
  23241923.0554   -1645123.30446  -1235749.01861
  20965800.727     -220958.595 6   -165497.30723
  23459697.4304   -2717364.92445  -2046443.03961
 91  3 20 22 26 45.0000000  0  4G18G11G19G 2
  20776716.2274    1117557.22448    859144.82163
  23237398.1484   -1668922.75446  -1254293.96361
  20965281.422     -223704.975 6   -167637.32523
  23451471.641    -2760600.754 5  -2080133.10621
 91  3 20 22 27  0.0000000  0  4G18G11G19G 2
  20780779.4774    1138904.23148    875778.82163
  23232885.633    -1692610.574 6  -1272751.92321
  20964762.578     -226420.194 6   -169753.06723
  23443251.6254   -2803788.66745  -2113785.83161
 91  3 20 22 27 15.0000000  0  4G18G11G19G 2
  20784862.961     1160356.437 8    892494.80323
  23228400.1564   -1716188.06446  -1291123.90561
  20964253.500     -229105.876 6   -171845.79323
  23435045.930    -2846930.294 5  -2147402.49421
 91  3 20 22 27 30.0000000  0  4G18G11G19G 2
  20788963.070     1181911.489 8    909290.91223
  23223934.672    -1739657.348 6  -1309411.57821
  20963746.523     -231764.465 6   -173917.40323
  23426843.016    -2890027.829 6  -2180984.79421
 91  3 20 22 27 45.0000000  0  4G18G11G19G 2
  20793084.7424    1203576.21648    926172.48863
  23219492.0004   -1763011.13546  -1327609.24861
  20963248.570     -234389.018 6   -175962.49023
  23418647.070    -2933074.172 5  -2214527.21821
 91  3 20 22 28  0.0000000  0  4G18G11G19G 2
  20797227.2034    1225343.89148    943134.28163
  23215064.375    -1786255.878 6  -1345721.95521
  20962754.055     -236986.165 6   -177986.22223
  23410466.766    -2976075.919 6  -2248034.86321
 91  3 20 22 28 15.0000000  0  4G18G11G19G 2
  20801390.8444    1247218.18448    960179.15663
  23210662.586    -1809387.485 6  -1363746.50121
  20962265.516     -239552.211 6   -179985.72023
  23402296.1954   -3019029.20346  -2281504.76461
 91  3 20 22 28 30.0000000  0  4G18G11G19G 2
  20805573.7034    1269202.02548    977309.38862
  23206285.195    -1832402.653 6  -1381680.31121
  20961781.703     -242083.965 6   -181958.50123
  23394130.7114   -3061930.82646  -2314934.40661
 91  3 20 22 28 45.0000000  0  4G18G11G19G 2
  20809776.5314    1291287.24848    994518.61663
  23201926.7114   -1855309.33346  -1399529.59861
  20961305.8364    -244589.65646   -183910.97963
  23385970.0314   -3104789.11645  -2348330.29861
 91  3 20 22 29  0.0000000  0  4G18G11G19G 2
  20814001.1414    1313479.54048   1011811.28763
  23197589.641    -1878101.361 6  -1417289.53421
  20960838.414     -247063.425 6   -185838.57523
  23377829.4144   -3147597.83846  -2381687.53361
 91  3 20 22 29 15.0000000  0  4G18G11G19G 2
  20818243.3284    1335778.98148   1029187.43663
  23193274.031    -1900778.417 6  -1434959.90021
  20960371.6644    -249505.25546   -187741.28763
  23369690.797    -3190356.832 5  -2415006.06121
 91  3 20 22 29 30.0000000  0  4G18G11G19G 2
  20822507.3444    1358180.91048   1046643.45363
  23188978.570    -1923344.804 6  -1452544.02021
  20959913.805     -251919.566 6   -189622.55723
  23361562.3364   -3233070.56046  -2448289.30161
 91  3 20 22 29 45.0000000  0  4G18G11G19G 2
  20826788.9614    1380690.04048   1064183.00363
  23184705.625    -1945795.210 6  -1470037.76721
  20959459.766     -254301.406 6   -191478.51423
  23353443.461    -3275733.856 6  -2481533.23221
 91  3 20 22 30  0.0000000  0  4G18G11G19G 2
  20831093.0704    1403306.78448   1081806.40863
  23180458.516    -1968128.968 6  -1487440.61921
  20959012.844     -256650.518 6   -193308.97523
  23345334.2114   -3318346.33046  -2514737.56361
 91  3 20 22 30 15.0000000  0  4G18G11G19G 2
  20835416.6414    1426031.44448   1099513.89963
  23176228.359    -1990345.403 6  -1504752.05321
  20958572.633     -258966.419 6   -195113.55823
  23337236.555    -3360907.264 6  -2547901.73021
 91  3 20 22 30 30.0000000  0  4G18G11G19G 2
  20839762.2504    1448862.08948   1117303.98263
  23172024.641    -2012446.161 6  -1521973.35121
  20958134.281     -261250.946 6   -196893.69823
  23329145.1024   -3403418.53046  -2581027.21361
 91  3 20 22 30 45.0000000  0  4G18G11G19G 2
  20844126.0474    1471793.90747   1135172.89563
  23167836.4304   -2034435.82046  -1539108.05061
  20957706.188     -263509.024 6   -198653.22223
  23321065.9064   -3445885.06146  -2614117.83161
 91  3 20 22 31  0.0000000  0  4G18G11G19G 2
  20848510.6724    1494830.65148   1153123.57463
  23163679.148    -2056310.020 6  -1556152.80521
  20957281.6414    -265736.49646   -200388.90763
  23312993.820    -3488302.507 6  -2647170.18821
 91  3 20 22 31 15.0000000  0  4G18G11G19G 2
  20852912.8674    1517971.18447   1171155.12563
  23159535.9384   -2078069.54646  -1573108.19061
  20956864.8364    -267934.39546   -202101.54463
  23304930.3444   -3530671.85946  -2680185.07761
 91  3 20 22 31 30.0000000  0  4G18G11G19G 2
  20857337.2664    1541217.59147   1189269.18163
  23155417.594    -2099711.733 6  -1589972.16521
  20956448.3594    -270100.34546   -203789.28763
  23296880.4064   -3572990.81146  -2713160.71261
 91  3 20 22 31 45.0000000  0  4G18G11G19G 2
  20861780.4224    1564572.42047   1207467.70963
  23151320.781    -2121234.239 6  -1606742.88021
  20956048.445     -272232.358 6   -205450.57923
  23288836.9774   -3615256.98246  -2746095.21061
 91  3 20 22 32  0.0000000  0  4G18G11G19G 2
  20866245.000     1588029.509 8   1225745.93223
  23147248.680    -2142642.500 6  -1623424.56321
  20955648.211     -274336.080 6   -207089.83023
  23280800.859    -3657475.982 6  -2778992.93721
 91  3 20 22 32 15.0000000  0  4G18G11G19G 2
  20870728.1644    1611591.38047   1244105.79963
  23143194.672    -2163933.666 6  -1640015.01021
  20955251.492     -276409.086 6   -208705.13923
  23272777.445    -3699645.096 6  -2811851.80021
 91  3 20 22 32 30.0000000  0  4G18G11G19G 2
  20875233.4144    1635260.94448   1262549.58363
  23139166.266    -2185104.366 6  -1656511.58421
  20954860.023     -278448.079 6   -210293.95123
  23264761.2424   -3741761.12046  -2844669.30261
 91  3 20 22 32 45.0000000  0  4G18G11G19G 2
  20879756.4224    1659034.46148   1281074.36563
  23135161.977    -2206158.153 6  -1672917.04921
  20954481.453     -280456.553 6   -211858.98123
  23256755.3754   -3783827.73346  -2877448.30461
 91  3 20 22 33  0.0000000  0  4G18G11G19G 2
  20884301.2194    1682913.93148   1299681.71163
  23131178.2664   -2227092.65046  -1689229.58661
  20954106.6174    -282432.67146   -213398.80263
  23248758.094    -3825842.819 6  -2910187.15121
 91  3 20 22 33 15.0000000  0  4G18G11G19G 2
  20888865.1804    1706900.88148   1318372.80563
  23127219.055    -2247905.888 6  -1705447.61521
  20953736.5784    -284374.76846   -214912.10863
  23240772.414    -3867804.527 6  -2942884.39221
 91  3 20 22 33 30.0000000  0  4G18G11G19G 2
  20893449.6954    1730991.97848   1337145.05663
  23123278.8674   -2268600.82146  -1721573.47361
  20953370.1724    -286285.81346   -216401.22663
  23232801.3524   -3909715.72246  -2975542.30561
 91  3 20 22 33 45.0000000  0  4G18G11G19G 2
  20898055.1484    1755192.81848   1356002.82363
  23119364.375    -2289171.407 6  -1737602.42821
  20953017.195     -288160.127 6   -217861.71423
  23224832.438    -3951570.740 6  -3008156.42621
 91  3 20 22 34  0.0000000  0  4G18G11G19G 2
  20902682.8284    1779507.63148   1374949.39763
  23115474.125    -2309613.091 6  -1753530.96421
  20952665.234     -289993.439 6   -219290.25423
  23216882.6414   -3993365.00446  -3040723.21261
 91  3 20 22 34 15.0000000  0  4G18G11G19G 2
  20907329.0554    1803928.83248   1393978.86863
  23111606.4224   -2329933.35346  -1769364.87961
  20952324.125     -291793.531 6   -220692.90723
  23208937.867    -4035106.260 6  -3073248.67321
 91  3 20 22 34 30.0000000  0  4G18G11G19G 2
  20911997.2274    1828454.89648   1413090.05863
  23107762.4924   -2350133.26646  -1785105.01361
  20951986.867     -293561.606 6   -222070.60823
  23201003.383    -4076795.649 6  -3105733.75021
 91  3 20 22 34 45.0000000  0  4G18G11G19G 2
  20916683.4694    1853086.84948   1432283.74863
  23103941.0004   -2370211.27746  -1800750.16161
  20951657.914     -295296.161 6   -223422.19123
  23193078.8134   -4118431.96046  -3138177.44961
 91  3 20 22 35  0.0000000  0  4G18G11G19G 2
  20921391.6174    1877825.90547   1451560.90463
  23100146.5634   -2390165.90346  -1816299.15061
  20951332.977     -296996.180 6   -224746.86423
  23185168.6954   -4160013.90946  -3170578.79061
 91  3 20 22 35 15.0000000  0  4G18G11G19G 2
  20926119.1644    1902669.12048   1470919.21863
  23096370.3204   -2409999.65146  -1831753.95961
  20951015.9844    -298664.43446   -226046.79063
  23177267.195    -4201543.985 6  -3202939.72121
 91  3 20 22 35 30.0000000  0  4G18G11G19G 2
  20930868.6174    1927617.26148   1490359.28763
  23092619.6174   -2429711.43246  -1847113.72661
  20950703.359     -300300.165 6   -227321.37623
  23169369.305    -4243021.311 6  -3235259.54621
 91  3 20 22 35 45.0000000  0  4G18G11G19G 2
  20935634.2424    1952670.32348   1509881.12863
  23088893.0554   -2449300.93046  -1862378.21461
  20950400.6564    -301903.12446   -228570.42063
  23161489.852    -4284445.631 6  -3267538.07721
 91  3 20 22 36  0.0000000  0  4G18G11G19G 2
  20940422.3364    1977828.75548   1529485.06463
  23085188.602    -2468767.321 6  -1877546.75921
  20950100.016     -303472.759 6   -229793.49923
  23153616.133    -4325816.229 6  -3299774.74021
 91  3 20 22 36 15.0000000  0  4G18G11G19G 2
  20945228.4144    2003088.59847   1549168.02563
  23081507.586    -2488114.107 6  -1892622.12221
  20949807.695     -305012.961 6   -230993.64223
  23145752.680    -4367137.008 6  -3331972.57121
 91  3 20 22 36 30.0000000  0  4G18G11G19G 2
  20950053.0314    2028448.65147   1568929.06963
  23077848.6954   -2507342.29446  -1907605.06161
  20949519.164     -306524.598 6   -232171.52623
  23137900.547    -4408408.981 6  -3364132.38621
 91  3 20 22 36 45.0000000  0  4G18G11G19G 2
  20954899.8054    2053915.44547   1588773.28463
  23074212.8674   -2526444.80446  -1922490.07661
  20949240.008     -308000.964 6   -233321.92023
  23130055.109    -4449625.219 6  -3396248.77121
 91  3 20 22 37  0.0000000  0  4G18G11G19G 2
  20959767.1334    2079485.58547   1608698.03063
  23070599.9774   -2545424.68146  -1937279.52661
  20948964.0394    -309445.35646   -234447.40963
  23122221.430    -4490788.865 6  -3428324.17121
 91  3 20 22 37 15.0000000  0  4G18G11G19G 2
  20964651.5084    2105158.83147   1628703.11863
  23067012.3594   -2564281.77846  -1951973.31061
  20948694.984     -310857.911 6   -235548.08623
  23114400.7344   -4531899.91246  -3460358.60361
 91  3 20 22 37 30.0000000  0  4G18G11G19G 2
  20969559.7344    2130940.26447   1648792.50763
  23063447.781    -2583010.926 6  -1966567.39421
  20948434.039     -312233.551 6   -236619.99823
  23106585.5704   -4572953.34746  -3492348.13661
 91  3 20 22 37 45.0000000  0  4G18G11G19G 2
  20974483.813     2156827.870 7   1668964.62523
  23059905.891    -2601613.636 6  -1981062.95221
  20948179.344     -313574.038 6   -237664.51723
  23098784.055    -4613950.616 6  -3524293.90721
 91  3 20 22 38  0.0000000  0  4G18G11G19G 2
  20979432.555     2182822.609 7   1689220.22623
  23056392.195    -2620088.765 6  -1995459.09921
  20947928.977     -314878.528 6   -238680.98823
  23090995.7274   -4654890.92946  -3556195.26561
 91  3 20 22 38 15.0000000  0  4G18G11G19G 2
  20984397.383     2208921.008 7   1709556.59423
  23052900.141    -2638439.195 6  -2009758.08221
  20947690.8204    -316149.83546   -239671.60363
  23083214.9304   -4695777.29846  -3588054.62561
 91  3 20 22 38 30.0000000  0  4G18G11G19G 2
  20989384.0554    2235120.85747   1729972.02463
  23049430.8524   -2656667.16446  -2023961.63661
  20947452.1334    -317390.49946   -240638.34763
  23075442.9694   -4736611.87746  -3619873.61561
 91  3 20 22 38 45.0000000  0  4G18G11G19G 2
  20994388.484     2261424.587 8   1750468.38923
  23045988.2814   -2674769.67946  -2038067.41761
  20947223.6334    -318597.76646   -241579.06463
  23067684.1484   -4777391.95646  -3651650.14161
 91  3 20 22 39  0.0000000  0  4G18G11G19G 2
  20999415.547     2287833.754 8   1771046.91323
  23042566.9924   -2692744.58946  -2052073.77961
  20946999.2974    -319769.64146   -242492.20663
  23059933.117    -4818115.553 6  -3683382.63721
 91  3 20 22 39 15.0000000  0  4G18G11G19G 2
  21004460.227     2314348.432 8   1791707.66023
  23039166.9224   -2710591.48446  -2065980.38361
  20946784.3754    -320906.11846   -243377.76163
  23052196.8134   -4858782.29146  -3715070.85861
 91  3 20 22 39 30.0000000  0  4G18G11G19G 2
  21009527.0394    2340969.75748   1812451.51263
  23035797.9614   -2728308.85246  -2079786.05661
  20946574.7814    -322005.95446   -244234.76563
  23044466.8984   -4899391.10946  -3746713.93861
 91  3 20 22 39 45.0000000  0  4G18G11G19G 2
  21014610.672     2367694.871 7   1833276.22823
  23032447.945    -2745899.442 6  -2093492.95021
  20946372.7034    -323071.95846   -245065.40763
  23036751.352    -4939944.816 6  -3778314.06521
 91  3 20 22 40  0.0000000  0  4G18G11G19G 2
  21019718.922     2394527.084 8   1854184.40223
  23029128.5394   -2763359.43946  -2107098.08561
  20946174.5944    -324100.49546   -245866.85663
  23029043.969    -4980439.576 6  -3809868.28421
 91  3 20 22 40 15.0000000  0  4G18G11G19G 2
  21024843.875     2421466.435 7   1875176.05423
  23025830.508    -2780688.479 6  -2120601.19121
  20945987.3284    -325091.40346   -246638.98163
  23021347.1724   -5020875.03646  -3841376.27461
 91  3 20 22 40 30.0000000  0  4G18G11G19G 2
  21029991.461     2448508.094 8   1896247.43523
  23022558.1644   -2797890.99046  -2134005.68061
  20945805.6174    -326049.40746   -247385.46763
  23013664.7344   -5061255.79146  -3872841.65261
 91  3 20 22 40 45.0000000  0  4G18G11G19G 2
  21035155.305     2475656.545 7   1917402.02223
  23019307.5234   -2814962.39646  -2147308.01961
  20945630.8754    -326969.95046   -248102.76463
  23005992.3284   -5101577.32646  -3904260.87961
 91  3 20 22 41  0.0000000  0  4G18G11G19G 2
  21040341.922     2502910.974 7   1938639.18823
  23016085.3834   -2831902.99146  -2160508.42561
  20945460.3834    -327853.60046   -248791.31463
  22998330.9774   -5141840.29846  -3935634.46261
 91  3 20 22 41 15.0000000  0  4G18G11G19G 2
  21045548.930     2530269.474 7   1959957.44923
  23012886.1564   -2848714.20646  -2173608.01261
  20945300.4384    -328701.99146   -249452.38863
  22990677.3754   -5182046.32046  -3966963.68461
 91  3 20 22 41 30.0000000  0  4G18G11G19G 2
  21050775.039     2557734.015 7   1981358.34623
  23009712.453    -2865393.697 6  -2186604.97321
  20945146.1334    -329513.13246   -250084.43363
  22983038.117    -5222193.174 6  -3998246.79621
 91  3 20 22 41 45.0000000  0  4G18G11G19G 2
  21056025.781     2585326.037 7   2002858.57423
  23006566.805    -2881919.740 6  -2199482.34821
  20945002.6724    -330265.25746   -250670.49763
  22975416.4694   -5262259.17446  -4029466.88761
 91  3 20 22 42  0.0000000  0  4G18G11G19G 2
  21061295.609     2613022.154 7   2024439.91623
  23003446.469    -2898315.488 6  -2212258.20421
  20944868.1644    -330981.68846   -251228.74663
  22967801.391    -5302267.392 6  -4060641.95821
 91  3 20 22 42 15.0000000  0  4G18G11G19G 2
  21066586.031     2640821.722 7   2046101.86923
  23000350.016    -2914581.048 6  -2224932.62021
  20944737.7274    -331662.78146   -251759.46163
  22960198.391    -5342218.183 6  -4091772.29021
 91  3 20 22 42 30.0000000  0  4G18G11G19G 2
  21071895.445     2668725.767 7   2067845.22723
  22997277.844    -2930715.180 6  -2237504.61321
  20944615.5234    -332307.51146   -252261.83863
  22952606.5784   -5382110.60746  -4122857.13761
 91  3 20 22 42 45.0000000  0  4G18G11G19G 2
  21077226.578     2696735.398 7   2089670.86323
  22994236.086    -2946716.309 6  -2249972.97421
  20944499.6414    -332914.44446   -252734.76763
  22945027.2734   -5421943.14346  -4153895.32661
 91  3 20 22 43  0.0000000  0  4G18G11G19G 2
  21082575.859     2724852.290 7   2111580.07623
  22991216.813    -2962582.431 6  -2262336.13321
  20944388.3204    -333481.56546   -253176.67063
  22937460.7584   -5461713.85346  -4184885.32561
 91  3 20 22 43 15.0000000  0  4G18G11G19G 2
  21087946.523     2753073.047 7   2133570.23323
  22988222.008    -2978316.851 6  -2274596.67921
  20944289.0944    -334012.47446   -253590.35463
  22929903.406    -5501425.888 6  -4215829.62521
 91  3 20 22 43 30.0000000  0  4G18G11G19G 2
  21093337.023     2781396.271 7   2155640.23023
  22985254.1644   -2993920.58346  -2286755.36861
  20944195.8284    -334508.47146   -253976.83463
  22922353.406    -5541080.774 6  -4246729.37121
 91  3 20 22 43 45.0000000  0  4G18G11G19G 2
  21098746.695     2809822.310 7   2177790.33923
  22982308.969    -3009392.601 6  -2298811.43921
  20944108.664     -334968.786 6   -254335.50923
  22914821.781    -5580677.404 6  -4277583.72221
 91  3 20 22 44  0.0000000  0  4G18G11G19G 2
  21104174.422     2838354.515 7   2200023.17523
  22979392.242    -3024729.409 6  -2310762.15121
  20944026.4614    -335390.00946   -254663.72563
  22907296.883    -5620212.382 6  -4308390.05721
 91  3 20 22 44 15.0000000  0  4G18G11G19G 2
  21109623.836     2866987.648 7   2222334.65523
  22976498.102    -3039935.771 6  -2322611.22121
  20943954.469     -335777.037 6   -254965.29423
  22899785.9224   -5659690.73446  -4339152.26361
 91  3 20 22 44 30.0000000  0  4G18G11G19G 2
  21115092.344     2895722.427 7   2244725.34623
  22973627.7814   -3055010.70046  -2334357.86261
  20943890.922     -336129.038 6   -255239.56923
  22892283.1174   -5699111.45146  -4369869.55161
 91  3 20 22 44 45.0000000  0  4G18G11G19G 2
  21120581.172     2924562.336 7   2267197.95223
  22970786.664    -3069950.526 6  -2345999.24321
  20943825.648     -336442.573 6   -255483.86323
  22884790.156    -5738471.001 6  -4400539.18821
 91  3 20 22 45  0.0000000  0  4G18G11G19G 2
  21126088.695     2953505.163 7   2289750.75223
  22967966.227    -3084757.137 6  -2357536.81021
  20943773.008     -336719.711 6   -255699.80323
  22877316.703    -5777771.308 6  -4431162.65021
 91  3 20 22 45 15.0000000  0  4G18G11G19G 2
  21131613.734     2982550.033 7   2312383.06823
  22965175.8674   -3099430.77446  -2368970.75261
  20943729.578     -336960.762 6   -255887.62323
  22869848.9384   -5817012.84646  -4461740.31761
 91  3 20 22 45 30.0000000  0  4G18G11G19G 2
  21137162.484     3011697.095 7   2335095.01523
  22962408.188    -3113971.022 6  -2380300.76021
  20943690.531     -337165.470 6   -256047.12223
  22862390.859    -5856195.371 6  -4492271.99721
 91  3 20 22 45 45.0000000  0  4G18G11G19G 2
  21142729.172     3040949.843 7   2357889.30823
  22959665.797    -3128374.066 6  -2391523.85721
  20943658.789     -337330.196 6   -256175.46623
  22854945.7194   -5895315.10546  -4522754.75161
 91  3 20 22 46  0.0000000  0  4G18G11G19G 2
  21148315.227     3070308.182 7   2380765.88523
  22956953.547    -3142639.687 6  -2402639.87221
  20943634.453     -337454.841 6
  22847513.0864   -5934371.77546  -4553188.37161
 91  3 20 22 46 15.0000000  0  4G18G11G19G 2
  21153921.727     3099768.127 7   2403721.63723
  22954262.383    -3156771.595 6  -2413651.69421
  20943618.430     -337543.226 6
  22840093.1414   -5973369.28546  -4583575.87961
 91  3 20 22 46 30.0000000  0  4G18G11G19G 2
  21159546.344     3129329.979 7   2426756.79723
  22951600.6484   -3170769.00046  -2424558.70061
  20943607.086     -337594.709 6
  22832682.422    -6012307.051 6  -4613916.85221
 91  3 20 22 46 45.0000000  0  4G18G11G19G 2
  21165192.320     3158993.867 7   2449871.46223
  22948964.8444   -3184631.34646  -2435360.49561
  20943608.180     -337609.126 6
  22825283.8524   -6051184.64446  -4644210.93361
 91  3 20 22 47  0.0000000  0  5G18G11G19G16G 2
  21170855.906     3188757.918 7   2473064.18423
  22946350.922    -3198360.428 6  -2446058.43421
  20943606.625     -337588.189 6
  24280927.8204         -0.22555
  22817897.1564   -6090003.92546  -4674459.57261
 91  3 20 22 47 15.0000000  0  5G18G11G19G16G 2
  21176539.633     3218629.391 7   2496340.60523
  22943763.313    -3211948.687 6  -2456646.64021
  20943624.039     -337524.422 6
  24277323.6954     -18935.81245
  22810522.7814   -6128757.51946  -4704657.02561
 91  3 20 22 47 30.0000000  0  5G18G11G19G16G 2
  21182243.148     3248599.946 7   2519694.23823
  22941204.5864   -3225404.11346  -2467131.35161
  20943640.133     -337425.907 6
  24273739.1804     -37752.12545
  22803159.8364   -6167453.47746  -4734809.57661
 91  3 20 22 47 45.0000000  0  5G18G11G19G16G 2
  21187966.266     3278670.476 7   2543125.76523
  22938669.258    -3238725.378 6  -2477511.51921
  20943664.906     -337291.630 6
  24270188.633      -56447.804 5
  22795809.3284   -6206090.35546  -4764916.09061
 91  3 20 22 48  0.0000000  0  5G18G11G19G16G 2
  21193707.477     3308847.098 7   2566639.96723
  22936160.156    -3251906.111 6  -2487782.16821
  20943699.2504    -337115.38946
  24266648.7344     -75017.02145
  22788468.1954   -6244661.98146  -4794971.75161
 91  3 20 22 48 15.0000000  0  5G18G11G19G16G 2
  21199469.492     3339128.127 7   2590235.52523
  22933678.4844   -3264947.49846  -2497944.25661
  20943740.773     -336898.463 6
  24263141.3754     -93460.85845        -0.36271
  22781139.0314   -6283169.65546  -4824977.57961
 91  3 20 22 48 30.0000000  0  5G18G11G19G16G 2
  21205254.156     3369510.578 7   2613910.11223
  22931220.531    -3277852.374 6  -2507999.96221
  20943788.3914    -336643.79046   -255640.46063
  24259654.953     -111782.477 5    -14276.88221
  22773820.477    -6321616.302 6  -4854935.87121
 91  3 20 22 48 45.0000000  0  5G18G11G19G16G 2
  21211051.734     3399992.436 7   2637662.16123
  22928791.820    -3290622.246 6  -2517950.46721
  20943843.977     -336353.061 6   -255413.90523
  24256195.375     -129983.471 5    -28459.42621
  22766518.9144   -6360003.59346  -4884847.89661
 91  3 20 22 49  0.0000000  0  5G18G11G19G16G 2
  21216873.938     3430580.639 7   2661497.07023
  22926387.750    -3303249.933 6  -2527790.18321
  20943906.992     -336019.274 6   -255153.80323
  24252754.6724    -148056.52845    -42542.27161
  22759226.594    -6398324.367 6  -4914708.10121
 91  3 20 22 49 15.0000000  0  5G18G11G19G16G 2
  21222712.570     3461266.524 7   2685408.10423
  22924012.695    -3315743.672 6  -2537525.50621
  20943978.234     -335650.719 6   -254866.60523
  24249338.5164    -166009.87645    -56531.83961
  22751944.492    -6436587.034 6  -4944523.02721
 91  3 20 22 49 30.0000000  0  5G18G11G19G16G 2
  21228571.039     3492053.275 7   2709397.72823
  22921659.906    -3328100.032 6  -2547153.79421
  20944055.008     -335244.048 6   -254549.70523
  24245939.8204    -183840.30445    -70425.62861
  22744674.0944   -6474788.16546  -4974289.98961
 91  3 20 22 49 45.0000000  0  5G18G11G19G16G 2
  21234448.438     3522939.882 7   2733465.15923
  22919333.813    -3340319.682 6  -2556675.54921
  20944141.008     -334799.941 6   -254203.63723
  24242579.5394    -201548.41545    -84224.08761
  22737415.133    -6512928.585 6  -5004009.65821
 91  3 20 22 50  0.0000000  0  5G18G11G19G16G 2
  21240344.984     3553928.593 7   2757612.15723
  22917037.375    -3352400.134 6  -2566088.84521
  20944230.2584    -334316.25046   -253826.72763
  24239224.484     -219132.037 5    -97925.58221
  22730171.961    -6551005.899 6  -5033680.14721
 91  3 20 22 50 15.0000000  0  5G18G11G19G16G 2
  21246263.289     3585019.169 7   2781838.53423
  22914762.4144   -3364341.22946  -2575393.55261
  20944331.188     -333792.824 6   -253418.85123
  24235906.969     -236590.978 5   -111529.88721
  22722935.164    -6589019.931 6  -5063301.32721
 91  3 20 22 50 30.0000000  0  5G18G11G19G16G 2
  21252196.414     3616206.021 7   2806139.92323
  22912517.430    -3376148.098 6  -2584593.67121
  20944437.0944    -333235.06646   -252984.22363
  24232607.0164    -253930.51645   -125041.16561
  22715712.859    -6626976.148 6  -5092877.46621
 91  3 20 22 50 45.0000000  0  5G18G11G19G16G 2
  21258151.227     3647495.271 7   2830521.10123
  22910295.945    -3387814.357 6  -2593684.21921
  20944550.1644    -332636.76546   -252518.01263
  24229327.000     -271144.406 5   -138454.53221
  22708502.547    -6664868.032 6  -5122403.47221
 91  3 20 22 51  0.0000000  0  5G18G11G19G16G 2
  21264123.313     3678884.903 7   2854980.50323
  22908100.8674   -3399341.67146  -2602666.50961
  20944671.0004    -331999.69946   -252021.58463
  24226074.758     -288234.340 5   -151771.32021
  22701302.6174   -6702697.37846  -5151880.74161
 91  3 20 22 51 15.0000000  0  5G18G11G19G16G 2
  21270116.563     3710376.408 7   2879519.28423
  22905936.8834   -3410728.46646  -2611539.30461
  20944801.9774    -331322.04846   -251493.53663
  24222846.8364    -305198.80045   -164990.30961
  22694116.805    -6740462.710 6  -5181308.13921
 91  3 20 22 51 30.0000000  0  5G18G11G19G16G 2
  21276128.352     3741968.235 7   2904136.23423
  22903797.4534   -3421975.64346  -2620303.29861
  20944937.2504    -330604.95346   -250934.75163
  24219643.281     -322039.021 5   -178112.50921
  22686945.094    -6778165.013 6  -5210686.41821
 91  3 20 22 51 45.0000000  0  5G18G11G19G16G 2
  21282161.141     3773666.089 7   2928835.80623
  22901682.6484   -3433077.33846  -2628953.93461
  20945083.633     -329842.732 6   -250340.80223
  24216463.141     -338749.213 4   -191133.39421
  22679781.055    -6815798.461 6  -5240011.04721
 91  3 20 22 52  0.0000000  0  5G18G11G19G16G 2
  21288212.648     3805462.343 7   2953612.05423
  22899596.078    -3444040.765 6  -2637496.81721
  20945234.875     -329042.667 6   -249717.36623
  24213300.703     -355336.253 3   -204058.31621
  22672632.859    -6853370.395 6  -5269287.74321
 91  3 20 22 52 15.0000000  0  5G18G11G19G16G 2
  21294280.5554    3837356.33747   2978464.45963
  22897537.1254   -3454866.37746  -2645932.32761
  20945394.5164    -328205.24946   -249064.82463
  24210183.1954    -371800.96344   -216887.91061
  22665495.2114   -6890881.35546  -5298516.93761
 91  3 20 22 52 30.0000000  0  5G18G11G19G16G 2
  21300370.547     3869351.439 7   3003395.65323
  22895502.4224   -3465550.57546  -2654257.63661
  20945562.7114    -327327.25146   -248380.66563
  24207055.852     -388139.890 2   -229619.51421
  22658368.008    -6928328.018 6  -5327696.01021
 91  3 20 22 52 45.0000000  0  5G18G11G19G16G 2
  21306475.984     3901444.558 7   3028403.22223
  22893497.5394   -3476095.81346  -2662474.66961
  20945736.4694    -326411.04246   -247666.73163
  24203982.445     -404355.547 3   -242255.03321
  22651255.2584   -6965712.76146  -5356826.85961
 91  3 20 22 53  0.0000000  0  5G18G11G19G16G 2
  21312601.406     3933638.063 7   3053489.01623
  22891517.203    -3486499.419 6  -2670581.34221
  20945919.4694    -325454.11746   -246921.06963
  24200912.5234    -420445.54942   -254792.67161
  22644149.828    -7003032.995 6  -5385907.42121
 91  3 20 22 53 15.0000000  0  5G18G11G19G16G 2
  21318748.461     3965933.341 7   3078654.11223
  22889564.117    -3496759.810 6  -2678576.39921
  20946107.7114    -324455.10246   -246142.61063
  24197878.1804    -436408.25242   -267231.08861
  22637063.1254   -7040287.27246  -5414936.59861
 91  3 20 22 53 30.0000000  0  5G18G11G19G16G 2
  21324911.2424    3998328.26047   3103896.84963
  22887638.7734   -3506878.69746  -2686461.20961
  20946303.6884    -323415.79346   -245332.75263
  24194859.9454    -452245.49943   -279571.71661
  22629984.969    -7077477.441 6  -5443915.82021
 91  3 20 22 53 45.0000000  0  5G18G11G19G16G 2
  21331097.3834    4030819.65847   3129214.76363
  22885740.648    -3516859.102 6  -2694238.10421
  20946509.984     -322339.224 6   -244493.85323
  24191879.078     -467960.288 3   -291816.97921
  22622921.086    -7114606.423 6  -5472847.36521
 91  3 20 22 54  0.0000000  0  5G18G11G19G16G 2
  21337297.2504    4063411.96747   3154611.30863
  22883867.766    -3526696.250 6  -2701903.36821
  20946724.719     -321220.483 6   -243622.10023
  24188907.453     -483547.745 3   -303963.04321
  22615865.3444   -7151669.49546  -5501727.55361
 91  3 20 22 54 15.0000000  0  5G18G11G19G16G 2
  21343519.8834    4096104.98547   3180086.33263
  22882021.1644   -3536389.98446  -2709456.88361
  20946944.0474    -320059.61346   -242717.52063
  24185972.3134    -499007.78144   -316009.76061
  22608828.523    -7188666.552 6  -5530556.29321
 91  3 20 22 54 30.0000000  0  5G18G11G19G16G 2
  21349758.1024    4128894.54547   3205636.57763
  22880205.9144   -3545944.19446  -2716901.68961
  20947174.359     -318860.520 6   -241783.15323
  24183043.2034    -514344.68844   -327960.57761
  22601798.2584   -7225601.65946  -5559336.77661
 91  3 20 22 54 45.0000000  0  5G18G11G19G16G 2
  21356018.984     4161784.224 7   3231264.83923
  22878414.133    -3555354.834 6  -2724234.61121
  20947408.578     -317619.484 6   -240816.09723
  24180158.391     -529554.242 5   -339812.10321
  22594783.1644   -7262470.91146  -5588065.93561
 91  3 20 22 55  0.0000000  0  5G18G11G19G16G 2
  21362292.367     4194772.868 7   3256970.22423
  22876650.680    -3564622.877 6  -2731456.42121
  20947654.609     -316337.632 6   -239817.24323
  24177281.5084    -544637.56745   -351565.31561
  22587779.2344   -7299275.18546  -5616744.46861
 91  3 20 22 55 15.0000000  0  5G18G11G19G16G 2
  21368591.773     4227861.663 7   3282753.64523
  22874914.7734   -3573746.72546  -2738565.87261
  20947905.3054    -315013.11246   -238785.14263
  24174439.977     -559593.288 5   -363219.05621
  22580786.367    -7336012.988 6  -5645371.19821
 91  3 20 22 55 30.0000000  0  5G18G11G19G16G 2
  21374906.0864    4261045.61647   3308611.20862
  22873205.4924   -3582731.09446  -2745566.63861
  20948161.594     -313650.856 6   -237723.63323
  24171612.7274    -574426.11245   -374777.07261
  22573806.7584   -7372689.25046  -5673949.98061
 91  3 20 22 55 45.0000000  0  5G18G11G19G16G 2
  21381239.953     4294326.877 7   3334544.60223
  22871521.3204   -3591573.61746  -2752456.88461
  20948432.039     -312248.520 6   -236630.88823
  24168814.6254    -589133.93845   -386237.69761
  22566837.9614   -7409301.53146  -5702478.90961
 91  3 20 22 56  0.0000000  0  5G18G11G19G16G 2
  21387591.3834    4327708.59547   3360556.26462
  22869866.977    -3600270.873 6  -2759233.92621
  20948705.000     -310802.803 6   -235504.34523
  24166039.4614    -603713.45345   -397598.29761
  22559884.7424   -7445846.29546  -5730955.23261
 91  3 20 22 56 15.0000000  0  5G18G11G19G16G 2
  21393962.4144    4361185.20847   3386641.87762
  22868239.8054   -3608828.16346  -2765901.90461
  20948988.3444    -309319.08346   -234348.18763
  24163289.906     -618169.795 5   -408862.96521
  22552943.9144   -7482329.03446  -5759383.21361
 91  3 20 22 56 30.0000000  0  5G18G11G19G16G 2
  21400352.8674    4394762.66947   3412806.07263
  22866639.0004   -3617239.26646  -2772455.98161
  20949276.5554    -307791.23346   -233157.64563
  24160564.391     -632497.113 5
  22546013.8054   -7518743.72046  -5787758.17261
 91  3 20 22 56 45.0000000  0  6G18G11G19G16G 2G 6
  21406759.5004    4428438.43047   3439046.86362
  22865065.1644   -3625506.22046  -2778897.73061
  20949578.680     -306221.521 6   -231934.48623
  24157863.594     -646697.303 5
  22539096.914    -7555092.336 6  -5816081.65321
  24415230.6884         -0.82355
 91  3 20 22 57  0.0000000  0  6G18G11G19G16G 2G 6
  21413185.7424    4462209.61547   3465362.01562
  22863517.9454   -3633631.41346  -2785229.01261
  20949887.945     -304612.239 6   -230680.48623
  24155182.0314    -660772.99345
  22532193.1564   -7591377.33646  -5844355.56761
  24408926.5234     -33171.66845
 91  3 20 22 57 15.0000000  0  6G18G11G19G16G 2G 6
  21419632.0864    4496075.53947   3491750.98662
  22862001.0784   -3641615.32746  -2791450.20661
  20950199.141     -302963.929 6   -229396.07323
  24152527.281     -674724.366 5        -0.35531
  22525297.6884   -7627599.29446  -5872580.34661
  24402603.5394     -66344.95144
 91  3 20 22 57 30.0000000  0  6G18G11G19G16G 2G 6
  21426094.6484    4530040.24247   3518216.92662
  22860507.8834   -3649453.46746  -2797557.82061
  20950518.813     -301272.304 6   -228077.91623
  24149896.5164    -688547.39345    -10771.47861
  22518418.906    -7663754.019 6  -5900752.74221
  24396289.6954     -99516.49743
 91  3 20 22 57 45.0000000  0  6G18G11G19G16G 2G 6
  21432576.3134    4564099.52947   3544756.57062
  22859043.5864   -3657150.05546  -2803555.12661
  20950849.7274    -299541.59646   -226729.30163
  24147292.406     -702246.470 5    -21446.03821
  22511550.8914   -7699845.66146  -5928875.98561
  24389985.7734    -132690.66443
 91  3 20 22 58  0.0000000  0  6G18G11G19G16G 2G 6
  21439075.3524    4598257.16747   3571372.84662
  22857605.4774   -3664700.83946  -2809438.81861
  20951187.078     -297767.601 6   -225346.95823
  24144709.203     -715817.220 5    -32020.63921
  22504697.0164   -7735869.87746  -5956946.69361
  24383668.0704    -165863.32843
 91  3 20 22 58 15.0000000  0  6G18G11G19G16G 2G 6
  21445593.555     4632508.416 7   3598062.07422
  22856194.813    -3672110.234 6  -2815212.33921
  20951531.2974    -295954.58546   -223934.20663
  24142151.4694    -729264.13545    -42498.70361
  22497852.9384   -7771831.16746  -5984968.36161
  24377352.094     -199039.037 3        -0.45731
 91  3 20 22 58 30.0000000  0  6G18G11G19G16G 2G 6
  21452130.2584    4666860.05747   3624829.53162
  22854814.4924   -3679371.36846  -2820870.32561
  20951883.398     -294095.785 6   -222485.78123
  24139618.484     -742580.349 5    -52874.96221
  22491020.750    -7807722.646 6  -6012935.62821
  24371036.1484    -232210.96043    -25848.55461
 91  3 20 22 58 45.0000000  0  6G18G11G19G16G 2G 6
  21458685.4924    4701305.89147   3651670.38062
  22853460.1094   -3686489.97046  -2826417.25661
  20952247.406     -292197.078 6   -221006.25423
  24137101.500     -755771.804 4    -63153.99021
  22484203.5314   -7843550.29046  -6040853.15361
  24364732.3524    -265385.29344    -51698.55261
 91  3 20 22 59  0.0000000  0  6G18G11G19G16G 2G 6
  21465258.6884    4735847.31547   3678585.71662
  22852131.6954   -3693464.36246  -2831851.81161
  20952615.5634    -290256.86046   -219494.39163
  24134617.344     -768837.466 5    -73334.94921
  22477400.898    -7879312.575 6  -6068719.74821
  24358419.0084    -298560.48144    -77549.17261
 91  3 20 22 59 15.0000000  0  6G18G11G19G16G 2G 6
  21471852.1024    4770483.83447   3705575.15462
  22850832.6724   -3700294.64346  -2837174.07661
  20952991.5234    -288275.42646   -217950.40663
  24132159.859     -781776.984 5    -83417.67821
  22470605.375    -7915009.478 6  -6096535.39921
  24352098.0394    -331736.67343   -103400.60561
 91  3 20 22 59 30.0000000  0  6G18G11G19G16G 2G 6
  21478459.6804    4805212.45547   3732636.35362
  22849561.078    -3706983.776 6  -2842386.35121
  20953376.5164    -286255.68746   -216376.57763
  24129718.9144    -794593.26145    -93404.36061
  22463826.0944   -7950643.93846  -6124302.39761
  24345787.836     -364916.894 3   -129255.21921
 91  3 20 22 59 45.0000000  0  6G18G11G19G16G 2G 6
  21485086.9924    4840039.62647   3759774.34862
  22848316.0944   -3713524.86646  -2847483.27161
  20953771.3134    -284190.74846   -214767.52563
  24127303.992     -807279.533 4   -103289.76521
  22457058.164    -7986209.045 6  -6152015.35621
  24339478.281     -398094.663 3   -155107.86021
 91  3 20 23  0  0.0000000  0  6G18G11G19G16G 2G 6
  21491731.8524    4874963.04847   3786987.33962
  22847100.9064   -3719919.52546  -2852466.09561
  20954171.6954    -282082.29846   -213124.57163
  24124915.2894    -819837.53445   -113075.14461
  22450301.7664   -8021706.61946  -6179675.68661
  24333169.188     -431271.557 3   -180959.83221
 91  3 20 23  0 15.0000000  0  6G18G11G19G16G 2G 6
  21498394.8834    4909980.30147   3814273.44862
  22845907.8444   -3726170.50546  -2857336.95961
  20954582.0704    -279932.94546   -211449.74163
  24122551.0474    -832270.11845   -122762.86161
  22443559.5164   -8057139.26646  -6207285.42261
  24326844.4064    -464450.37242   -206813.30961
 91  3 20 23  0 30.0000000  0  6G18G11G19G16G 2G 6
  21505076.5394    4945088.09447   3841630.11162
  22844745.1254   -3732280.46346  -2862097.93761
  20954995.5784    -277745.38246   -209745.14263
  24120208.1804    -844579.96645   -132354.91661
  22436827.734    -8092509.810 6  -6234846.77021
  24320540.781     -497634.239 3   -232670.72321
 91  3 20 23  0 45.0000000  0  6G18G11G19G16G 2G 6
  21511774.4064    4980287.01147   3869057.77562
  22843612.6174   -3738248.48646  -2866748.31261
  20955420.6564    -275518.86646   -208010.19063
  24117889.7114    -856766.35145   -141850.75161
  22430111.5704   -8127817.39346  -6262359.05361
  24314219.211     -530822.232 3   -258531.34621
 91  3 20 23  1  0.0000000  0  6G18G11G19G16G 2G 6
  21518489.9304    5015580.64847   3896559.23962
  22842500.2814   -3744070.89546  -2871285.22361
  20955852.0394    -273249.62346   -206241.94863
  24115595.7114    -868825.62145   -151247.57461
  22423401.367    -8163058.271 6  -6289819.36721
  24307906.414     -564010.854 3   -284392.48321
 91  3 20 23  1 15.0000000  0  6G18G11G19G16G 2G 6
  21525224.8754    5050969.71347   3924135.06962
  22841421.414    -3749746.754 6  -2875707.94421
  20956293.0084    -270936.95246   -204439.86663
  24113323.680     -880756.836 5   -160544.59521
  22416707.8594   -8198231.63946  -6317227.07161
  24301589.930                          -0.29413
 91  3 20 23  1 30.0000000  0  6G18G11G19G16G 2G 6
  21531977.8284    5086451.40547   3951783.07462
  22840369.313    -3755278.632 6  -2880018.47821
  20956740.7194    -268583.58046   -202606.06563
  24111076.6954    -892562.70745   -169743.94661
  22410027.5554   -8233340.05546  -6344584.16161
  24295274.2344                     -33191.26244
 91  3 20 23  1 45.0000000  0  6G18G11G19G16G 2G 6
  21538747.0084    5122026.17647   3979503.61262
  22839344.250    -3760665.289 6  -2884215.85421
  20957196.6484    -266188.26946   -200739.58163
  24108857.3054    -904242.15345   -178844.79761
  22403360.211    -8268382.424 6  -6371889.79521
  24288949.6334                     -66383.70143
 91  3 20 23  2  0.0000000  0  6G18G11G19G16G 2G 6
  21545534.0314    5157694.42547   4007296.98962
  22838347.023    -3765906.465 6  -2888299.86321
  20957657.6254    -263750.44246   -198839.97963
  24106653.367     -915794.703 5   -187846.77321
  22396705.359    -8303358.520 6  -6399143.77521
  24282642.5864                     -99577.33144
 91  3 20 23  2 15.0000000  0  6G18G11G19G16G 2G 6
  21552340.0164    5193455.30347   4035162.54062
  22837376.6334   -3771002.35646  -2892270.66661
  20958133.3204    -261270.35946   -196907.44463
  24104482.9224    -927221.14545   -196750.45561
  22390062.000    -8338268.588 6  -6426346.31821
  24276325.5004                    -132772.73144
 91  3 20 23  2 30.0000000  0  6G18G11G19G16G 2G 6
  21559163.008     5229310.070 7   4063101.25122
  22836436.117    -3775951.819 6  -2896127.36721
  20958611.1414    -258747.08646   -194941.25463
  24102329.938     -938520.102 5   -205554.81221
  22383431.500    -8373111.353 6  -6453496.41021
  24269995.984     -165968.811 4        -0.31631
 91  3 20 23  2 45.0000000  0  6G18G11G19G16G 2G 6
  21566005.078     5265260.139 7   4091114.22122
  22835522.281    -3780752.685 6  -2899868.27821
  20959100.6804    -256178.40546   -192939.68163
  24100205.164     -949689.508 5   -214258.22421
  22376814.305    -8407884.893 6  -6480592.56621
  24263687.8754    -199163.57144    -25866.21961
 91  3 20 23  3  0.0000000  0  6G18G11G19G16G 2G 6
  21572861.6094    5301298.89447   4119196.29862
  22834635.414    -3785411.632 6  -2903498.61021
  20959596.5634    -253571.10446   -190908.01663
  24098102.7894    -960736.25645   -222866.03961
  22370208.289    -8442595.967 6  -6507640.04421
  24257367.6174    -232363.72944    -51736.30361
 91  3 20 23  3 15.0000000  0  6G18G11G19G16G 2G 6
  21579736.1024    5337425.89847   4147347.14362
  22833774.414    -3789928.621 6  -2907018.31721
  20960100.8754    -250925.02746   -188846.13463
  24096027.695     -971660.154 5   -231378.15721
  22363616.594    -8477244.384 6  -6534638.70221
  24251046.859     -265569.557 5    -77610.78921
 91  3 20 23  3 30.0000000  0  6G18G11G19G16G 2G 6
  21586628.3754    5373644.58047   4175569.42362
  22832942.867    -3794300.007 6  -2910424.58021
  20960610.9144    -248236.55546   -186751.22163
  24093969.1644    -982457.83545   -239791.91961
  22357033.633    -8511826.374 6  -6561585.59821
  24244731.320     -298777.363 5   -103486.82521
 91  3 20 23  3 45.0000000  0  6G18G11G19G16G 2G 6
  21593538.141     5409959.066 7   4203866.35022
  22832142.336    -3798521.433 6  -2913713.98821
  20961133.3444    -245501.41546   -184619.94363
  24091939.414     -993125.092 5   -248104.06621
  22350468.7344   -8546337.76546  -6588477.49161
  24238411.484     -331982.987 5   -129361.15921
 91  3 20 23  4  0.0000000  0  6G18G11G19G16G 2G 6
  21600466.469     5446364.316 7   4232234.00622
  22831365.742    -3802597.605 6  -2916890.20721
  20961658.3984    -242724.38346   -182456.03063
  24089932.305    -1003666.739 5   -256318.31121
  22343912.219    -8580783.462 6  -6615318.19121
  24232088.5474    -365191.35145   -155237.66861
 91  3 20 23  4 15.0000000  0  6G18G11G19G16G 2G 6
  21607411.469     5482858.644 7   4260671.07422
  22830615.070    -3806530.018 6  -2919954.40421
  20962198.1484    -239906.89646   -180260.57963
  24087948.2274   -1014083.99645   -264435.62661
  22337369.352    -8615164.774 6  -6642108.71121
  24225772.883     -398403.941 5   -181117.48421
 91  3 20 23  4 30.0000000  0  6G18G11G19G16G 2G 6
  21614374.961     5519444.513 7   4289179.46822
  22829895.984    -3810315.919 6  -2922904.43521
  20962739.7504    -237046.19246   -178031.46263
  24085992.9144   -1024374.42945   -272454.14861
  22330839.1724   -8649479.06946  -6668847.00261
  24219451.0944    -431618.18845   -206998.55761
 91  3 20 23  4 45.0000000  0  6G18G11G19G16G 2G 6
  21621353.3594    5556121.97447   4317759.24062
  22829202.914    -3813954.898 6  -2925739.98621
  20963293.6174    -234142.04246   -175768.48963
  24084056.2194   -1034537.80745   -280373.62861
  22324322.148    -8683726.113 6  -6695532.89221
  24213128.1954    -464833.81445   -232880.67061
 91  3 20 23  5  0.0000000  0  6G18G11G19G16G 2G 6
  21628350.750     5592891.927 7   4346411.07622
  22828538.742    -3817445.671 6  -2928460.05921
  20963853.1024    -231193.14046   -173470.64063
  24082145.922    -1044572.983 5   -288193.24621
  22317820.172    -8717904.559 6  -6722165.33221
  24206813.1644    -498049.87845   -258763.23461
 91  3 20 23  5 15.0000000  0  6G18G11G19G16G 2G 6
  21635365.602     5629754.393 7   4375135.00022
  22827902.531    -3820787.973 6  -2931064.42621
  20964426.2584    -228199.03246   -171137.56363
  24080262.1954   -1054479.30845   -295912.45361
  22311327.961    -8752013.966 6  -6748743.97821
  24200490.617     -531265.879 5   -284645.67421
 91  3 20 23  5 30.0000000  0  6G18G11G19G16G 2G 6
  21642397.9694    5666709.54947   4403931.16062
  22827295.094    -3823981.444 6  -2933552.83321
  20965007.1564    -225159.48746   -168769.08263
  24078403.047    -1064256.868 5   -303531.31021
  22304849.242    -8786053.835 6  -6775268.43921
  24194167.914     -564481.610 5   -310527.86221
 91  3 20 23  5 45.0000000  0  6G18G11G19G16G 2G 6
  21649446.086     5703752.869 7   4432796.01222
  22826715.242    -3827030.450 6  -2935928.66721
  20965592.5634    -222078.77546   -166368.51963
  24076565.758    -1073910.010 5   -311053.24821
  22298385.258    -8820028.766 6  -6801742.29821
  24187848.898     -597701.743 5   -336413.51721
 91  3 20 23  6  0.0000000  0  6G18G11G19G16G 2G 6
  21656512.750     5740882.678 7   4461728.25722
  22826163.203    -3829936.251 6  -2938192.90821
  20966183.8134    -218958.06146   -163936.78563
  24074751.0864   -1083440.07345   -318479.24961
  22291928.781    -8853940.217 6  -6828166.70021
  24181524.2114    -630927.42245   -362303.49961
 91  3 20 23  6 15.0000000  0  6G18G11G19G16G 2G 6
  21663594.797     5778101.144 7   4490729.58622
  22825638.516    -3832696.329 6  -2940343.59921
  20966784.2424    -215794.98646   -161472.05163
  24072965.625    -1092844.752 5   -325807.56821
  22285489.5164   -8887785.60146  -6854539.61161
  24175200.9924    -664156.40445   -388196.03261
 91  3 20 23  6 30.0000000  0  6G18G11G19G16G 2G 6
  21670693.539     5815408.727 7   4519800.35722
  22825140.266    -3835309.971 6  -2942380.18421
  20967394.7974    -212588.93246   -158973.82263
  24071199.4844   -1102123.16645   -333037.49461
  22279064.7894   -8921564.19146  -6880860.46961
  24168876.0234    -697388.03145   -414090.66861
 91  3 20 23  6 45.0000000  0  6G18G11G19G16G 2G 6
  21677810.398     5852809.704 7   4548943.89922
  22824670.211    -3837772.696 6  -2944299.16621
  20968014.6254    -209335.37646   -156438.57763
  24069456.9384   -1111271.08245   -340165.73161
  22272648.430    -8955271.607 6  -6907125.87421
  24162552.6094    -730617.98745   -439983.96661
 91  3 20 23  7  0.0000000  0  6G18G11G19G16G 2G 6
  21684945.734     5890295.870 7   4578153.82022
  22824229.0234   -3840092.43746  -2946106.73861
  20968641.9924    -206042.15046   -153872.42063
  24067739.6334   -1120296.30145   -347198.35261
  22266246.3054   -8988915.78946  -6933341.99862
  24156226.672     -763854.333 5   -465882.20321
 91  3 20 23  7 15.0000000  0  6G18G11G19G16G 2G 6
  21692096.0944    5927871.05447   4607433.11262
  22823817.6564   -3842265.37646  -2947799.91061
  20969274.7734    -202705.26546   -151272.24063
  24066045.016    -1129195.130 5   -354132.45721
  22259856.5234   -9022493.01046  -6959505.95561
  24149900.2664    -797093.21145   -491782.43761
 91  3 20 23  7 30.0000000  0  6G18G11G19G16G 2G 6
  21699262.508     5965532.650 7   4636779.73322
  22823430.2424   -3844293.44546  -2949380.19461
  20969919.9224    -199326.86046   -148639.71263
  24064378.4534   -1137969.44745   -360969.57661
  22253479.477    -9056005.076 6  -6985619.14121
  24143580.844     -830336.711 5   -517686.31121
 91  3 20 23  7 45.0000000  0  6G18G11G19G16G 2G 6
  21706446.5084    6003283.45447   4666195.87762
  22823074.2974   -3846173.75446  -2950845.34061
  20970571.609     -195903.912 6   -145972.46823
  24062733.2114   -1146616.63645   -367707.63261
  22247116.758    -9089449.101 6  -7011679.31121
  24137250.2034    -863581.99845   -543591.51861
 91  3 20 23  8  0.0000000  0  6G18G11G19G16G 2G 6
  21713646.859     6041121.931 7   4695680.33122
  22822742.6024   -3847907.59946  -2952196.35261
  20971226.7894    -192437.52146   -143271.38363
  24061106.430    -1155138.079 5   -374347.69921
  22240761.602    -9122826.185 6
  24130920.711     -896830.522 5
 91  3 20 23  8 15.0000000  0  6G18G11G19G16G 2G 6
  21720863.406     6079045.575 7   4725231.14822
  22822439.313    -3849496.916 6  -2953434.75721
  20971899.6724    -188929.84646   -140538.12963
  24059513.211    -1163535.444 5   -380891.09321
  22234422.875    -9156138.375 6
  24124594.680     -930084.159 5
 91  3 20 23  8 30.0000000  0  6G18G11G19G16G 2G 6
  21728098.6804    6117058.68547   4754851.67662
  22822166.203    -3850937.383 6  -2954557.17721
  20972572.2664    -185376.43846   -137769.23763
  24057939.0314   -1171804.99945   -387334.87061
  22228099.2114   -9189381.43346
  24118266.367     -963338.790 5
 91  3 20 23  8 45.0000000  0  6G18G11G19G16G 2G 6
  21735347.875     6155161.527 7   4784542.13022
  22821921.703    -3852228.533 6  -2955563.24321
  20973258.2894    -181776.89646   -134964.39063
  24056385.891    -1179946.285 5   -393678.70821
  22221784.602    -9222555.043 6  -7115397.77921
  24111939.6724    -996594.05645
 91  3 20 23  9  0.0000000  0  6G18G11G19G16G 2G 6
  21742614.266     6193351.658 7   4814300.59622
  22821703.180    -3853372.605 6  -2956454.70921
  20973949.1254    -178133.35346   -132125.26663
  24054865.7814   -1187961.27545   -399924.10961
  22215484.602    -9255661.295 6  -7141194.74421
  24105609.2034   -1029852.35745
 91  3 20 23  9 15.0000000  0  6G18G11G19G16G 2G 6
  21749898.5314    6231625.12147   4844124.00362
  22821512.5234   -3854373.19146  -2957234.36061
  20974652.250     -174449.310 6   -129254.57523
  24053361.508    -1195854.010 5   -406074.29121
  22209196.945    -9288703.786 6  -7166942.02021
  24099276.297    -1063117.292 5        -0.06231
 91  3 20 23  9 30.0000000  0  6G18G11G19G16G 2G 6
  21757198.281     6269986.265 7   4874015.73122
  22821349.461    -3855225.608 6  -2957898.55621
  20975365.4694    -170719.98846   -126348.60363
  24051883.750    -1203619.610 5   -412125.38321
  22202922.0864   -9321677.73846  -7192635.89561
  24092949.836    -1096384.296 5    -25922.22021
 91  3 20 23  9 45.0000000  0  6G18G11G19G16G 2G 6
  21764513.906     6308434.758 7   4903975.51922
  22821218.609    -3855929.912 6  -2958447.34821
  20976080.3674    -166945.58446   -123407.49663
  24050430.0234   -1211258.17745   -418077.49661
  22196660.516    -9354583.290 6  -7218276.47421
  24086613.906    -1129653.416 4    -51846.05321
 91  3 20 23 10  0.0000000  0  6G18G11G19G16G 2G 6
  21771847.0864    6346972.86247   4934005.13862
  22821111.969    -3856483.639 6  -2958878.80521
  20976805.9774    -163123.58246   -120429.30663
  24049004.391    -1218767.274 5   -423928.74321
  22190410.883    -9387418.116 6  -7243861.94421
  24080288.586    -1162922.378 5    -77769.73921
 91  3 20 23 10 15.0000000  0  6G18G11G19G16G 2G 6
  21779196.859     6385594.205 7   4964099.61222
  22821030.148    -3856892.857 6  -2959197.65621
  20977545.4384    -159259.94546   -117418.67263
  24047592.023    -1226153.547 5   -429684.26321
  22184175.305    -9420188.201 6  -7269396.96221
  24073951.5864   -1196197.42745   -103698.18461
 91  3 20 23 10 30.0000000  0  6G18G11G19G16G 2G 6
  21786561.680     6424300.097 7   4994259.97122
  22820981.305    -3857155.927 6  -2959402.62521
  20978288.8444    -155353.04346   -114374.33263
  24046214.6564   -1233415.18245   -435342.66061
  22177952.625    -9452891.957 6  -7294880.30421
  24067624.555    -1229476.922 4   -129630.07321
 91  3 20 23 10 45.0000000  0  6G18G11G19G16G 2G 6
  21793947.180     6463090.868 7   5024486.47322
  22820962.445    -3857272.333 6
  20979039.5164    -151402.55546   -111296.02763
  24044856.773    -1240551.838 5   -440903.68221
  22171744.016    -9485528.732 7  -7320311.44221
  24061281.5864   -1262760.42844   -155565.11361
 91  3 20 23 11  0.0000000  0  6G18G11G19G16G 2G 6
  21801342.633     6501967.321 7   5054779.73222
  22820965.258    -3857241.118 6
  20979799.2734    -147407.27246   -108182.81262
  24043524.3754   -1247562.43745   -446366.43661
  22165544.766    -9518097.582 7  -7345689.65621
  24054955.4454   -1296046.91444   -181502.48861
 91  3 20 23 11 15.0000000  0  6G18G11G19G16G 2G 6
  21808757.719     6540928.626 7   5085139.11822
  22821001.4454   -3857063.02246
  20980566.2974    -143367.87246   -105035.22363
  24042214.875    -1254447.556 5   -451731.44821
  22159360.680    -9550599.306 6  -7371015.56921
  24048621.4694   -1329337.16944   -207442.77761
 91  3 20 23 11 30.0000000  0  6G18G11G19G16G 2G 6
  21816188.898     6579977.678 7   5115566.87422
  22821060.281    -3856734.560 6
  20981346.8134    -139280.79946   -101850.48563
  24040923.7584   -1261203.84245   -456996.08661
  22153187.109    -9583030.327 6  -7396286.38221
  24042280.633    -1362627.784 4   -233383.31621
 91  3 20 23 11 45.0000000  0  6G18G11G19G16G 2G 6
  21823634.070     6619109.085 7   5146058.79722
  22821155.289    -3856260.896 6  -2958705.12321
  20982130.7504    -135151.12546    -98632.54863
  24039668.2584   -1267836.77445   -462164.57561
  22147029.016    -9615395.825 6  -7421506.14622
  24035943.7114   -1395924.16743   -259328.38261
 91  3 20 23 12  0.0000000  0  6G18G11G19G16G 2G 6
  21831097.969     6658324.627 7   5176616.28322
  22821270.969    -3855640.098 6  -2958221.36521
  20982922.7344    -130977.05246    -95380.01863
  24038426.7274   -1274344.52445   -467235.56961
  22140881.3364   -9647694.06546  -7446673.50362
  24029606.961    -1429224.312 4   -285276.38621
 91  3 20 23 12 15.0000000  0  6G18G11G19G16G 2G 6
  21838574.492     6697624.060 7   5207239.13622
  22821416.977    -3854871.883 6  -2957622.74121
  20983729.5474    -126758.34146    -92092.70563
  24037205.1484   -1280726.97345   -472208.89861
  22134749.641    -9679924.793 7  -7471788.25022
  24023278.3524   -1462528.20644   -311227.30961
 91  3 20 23 12 30.0000000  0  6G18G11G19G16G 2G 6
  21846070.148     6737007.518 7   5237927.46022
  22821592.258    -3853956.094 6  -2956909.11921
  20984539.9384    -122494.70546    -88770.38063
  24036020.0634   -1286983.86345   -477084.41661
  22128629.109    -9712087.720 7  -7496850.16221
  24016933.969    -1495835.657 4   -337180.99121
 91  3 20 23 12 45.0000000  0  6G18G11G19G16G 2G 6
  21853580.008     6776475.310 7   5268681.50622
  22821793.016    -3852892.167 6  -2956080.06921
  20985361.2814    -118185.44646    -85412.51463
  24034851.297    -1293114.700 5   -481861.65721
  22122522.078    -9744182.019 7  -7521858.59622
  24010594.9064   -1529146.11044   -363137.04261
 91  3 20 23 13  0.0000000  0  6G18G11G19G16G 2G 6
  21861106.227     6816027.812 7   5299501.55622
  22822024.305    -3851679.467 6  -2955135.08621
  20986187.3984    -113829.81046    -82018.51263
  24033709.516    -1299118.753 5   -486540.12821
  22116427.828    -9776207.120 6  -7546813.11521
  24004255.336    -1562458.854 4   -389094.84121
 91  3 20 23 13 15.0000000  0  6G18G11G19G16G 2G 6
  21868648.438     6855657.971 7   5330382.11622
  22822283.164    -3850324.912 6  -2954079.57521
  20987026.7664    -109434.72746    -78593.76663
  24032581.305    -1305003.411 5   -491125.57121
  22110344.969    -9808169.998 6  -7571719.15021
  23997914.430    -1595781.030 4   -415060.02521
 91  3 20 23 13 30.0000000  0  6G18G11G19G16G 2G 6
  21876205.211     6895371.296 7   5361327.48522
  22822567.430    -3848822.639 6  -2952908.95621
  20987870.8914    -104994.23546    -75133.64263
  24031493.9774   -1310762.54445   -495613.21461
  22104274.133    -9840064.859 6  -7596572.18921
  23991571.5394   -1629106.69545   -441027.91261
 91  3 20 23 13 45.0000000  0  6G18G11G19G16G 2G 6
  21883780.1414    6935168.74647   5392338.39862
  22822881.586    -3847171.629 6  -2951622.44821
  20988725.4224    -100507.03446    -71637.11763
  24030422.8754   -1316395.24145   -500002.31861
  22098216.0944   -9871890.64346  -7621371.39761
  23985226.953    -1662434.890 5   -466997.78221
 91  3 20 23 14  0.0000000  0  6G18G11G19G16G 2G 6
  21891368.617     6975047.496 7   5423412.66822
  22823224.445    -3845374.492 6  -2950222.06921
  20989585.4534     -95975.79546    -68106.28063
  24029371.961    -1321904.177 5   -504294.98721
  22092175.4454   -9903649.62646  -7646118.56361
  23978893.227    -1695768.256 5   -492971.67521
 91  3 20 23 14 15.0000000  0  6G18G11G19G16G 2G 6
  21898972.359     7015006.209 7   5454549.24722
  22823594.820    -3843432.243 6  -2948708.61021
  20990455.9144     -91401.41946    -64541.82763
  24028349.328    -1327290.108 5   -508491.81021
  22086143.9614   -9935342.97346  -7670814.58362
  23972538.2274   -1729107.86345   -518950.42361
 91  3 20 23 14 30.0000000  0  6G18G11G19G16G 2G 6
  21906592.734     7055047.000 7   5485749.77622
  22823990.648    -3841342.524 6  -2947080.25021
  20991334.6094     -86781.48146    -60941.87563
  24027346.9614   -1332551.18245   -512591.34261
  22080126.586    -9966968.456 6  -7695457.71721
  23966198.734    -1762451.308 5   -544932.18921
 91  3 20 23 14 45.0000000  0  6G18G11G19G16G 2G 6
  21914227.406     7095172.030 7   5517015.95122
  22824418.781    -3839102.763 6  -2945334.96621
  20992221.2734     -82113.50846    -57304.48963
  24026370.758    -1337684.973 5   -516591.68121
  22074120.3444   -9998523.47246  -7720045.94661
  23959853.281    -1795796.422 5   -570915.22521
 91  3 20 23 15  0.0000000  0  6G18G11G19G16G 2G 6
  21921880.148     7135381.364 7   5548347.81422
  22824870.453    -3836712.715 6  -2943472.56921
  20993120.3524     -77397.14646    -53629.39863
  24025419.430    -1342691.075 5   -520492.53721
  22068129.7664  -10030007.66546  -7744578.98861
  23953502.344    -1829142.653 5   -596899.11821
 91  3 20 23 15 15.0000000  0  6G18G11G19G16G 2G 6
  21929546.7504    7175672.03147   5579743.05662
  22825356.594    -3834175.003 6  -2941495.12221
  20994026.3594     -72634.89046    -49918.54863
  24024486.633    -1347572.131 5   -524295.93821
  22062150.7734  -10061423.74646  -7769058.95461
  23947163.969    -1862492.851 5   -622886.12721
 91  3 20 23 15 30.0000000  0  6G18G11G19G16G 2G 6
  21937228.945     7216045.013 7   5611202.43822
  22825866.8594   -3831488.57046  -2939401.78861
  20994943.8204     -67825.68946    -46171.11563
  24023581.6174   -1352327.22145   -528001.21361
  22056185.9144  -10092770.55346  -7793484.94362
  23940814.3594   -1895845.83645   -648875.29861
 91  3 20 23 15 45.0000000  0  6G18G11G19G16G 2G 6
  21944928.148     7256496.008 7   5642722.61122
  22826404.7584   -3828657.68246  -2937195.89361
  20995867.7814     -62973.52646    -42390.20463
  24022704.1094   -1356960.58245   -531611.63661
  22050233.2344  -10124052.16546  -7817860.13762
  23934459.2894   -1929205.93045
 91  3 20 23 16  0.0000000  0  6G18G11G19G16G 2G 6
  21952640.3914    7297029.24247   5674306.86362
  22826974.602    -3825677.526 6  -2934873.68321
  20996796.1884     -58073.70746    -38572.16363
  24021844.469    -1361467.573 5   -535123.58221
  22044293.9534  -10155263.97646  -7842180.93162
  23928117.391    -1962568.417 5
 91  3 20 23 16 15.0000000  0  6G18G11G19G16G 2G 6
  21960369.328     7337639.443 7   5705951.09322
  22827566.5944   -3822553.25846  -2932439.18061
  20997738.9064     -53131.27646    -34720.91163
  24021013.2894   -1365853.51245   -538541.18761
  22038367.5004  -10186411.13546  -7866451.36062
  23921766.3594   -1995938.42945        -0.09971
 91  3 20 23 16 30.0000000  0  6G18G11G19G16G 2G 6
  21968109.7114    7378327.82147   5737656.23662
  22828189.266    -3819283.522 6  -2929891.32021
  20998685.7814     -48144.71246    -30835.27463
  24020197.492    -1370117.227 5   -541863.58921
  22032453.383   -10217492.252 6  -7890670.32222
  23915417.4774   -2029314.78145    -26007.46661
 91  3 20 23 16 45.0000000  0  6G18G11G19G16G 2G 6
  21975868.742     7419098.114 7   5769425.20822
  22828838.625    -3815864.272 6  -2927226.96421
  20999646.6954     -43109.74446    -26911.91963
  24019409.1484   -1374254.70145   -545087.59761
  22026552.2664  -10248503.05346  -7914834.49262
  23909056.9534   -2062693.19245    -52016.48861
 91  3 20 23 17  0.0000000  0  6G18G11G19G16G 2G 6
  21983642.320     7459946.751 7   5801255.23022
  22829517.102    -3812298.747 6  -2924448.62421
  21000612.3054     -38029.76146    -22953.49063
  24018647.1724   -1378268.99545   -548215.60761
  22020661.2034  -10279446.95046  -7938946.52862
  23902708.289    -2096077.151 5    -78029.80221
 91  3 20 23 17 15.0000000  0  6G18G11G19G16G 2G 6
  21991428.4064    7500875.20647   5833147.44962
  22830222.6024   -3808585.70746  -2921555.33961
  21001588.7974     -32903.29346    -18958.83963
  24017910.984    -1382158.795 5   -551246.63421
  22014787.1254  -10310322.39947  -7963005.22962
  23896357.0314   -2129465.29145   -104046.37961
 91  3 20 23 17 30.0000000  0  6G18G11G19G16G 2G 6
  21999234.7114    7541886.15847   5865103.94562
  22830962.2664   -3804722.10346  -2918544.72761
  21002572.8594     -27727.15146    -14925.47763
  24017191.6564   -1385921.26345   -554178.42561
  22008924.7114  -10341126.35647  -7987008.22762
  23889997.1484   -2162854.43345   -130063.73361
 91  3 20 23 17 45.0000000  0  6G18G11G19G16G 2G 6
  22007053.070     7582975.301 7   5897121.37822
  22831725.594    -3800711.832 6  -2915419.83621
  21003567.6414     -22505.28046    -10856.48763
  24016500.125    -1389560.245 5   -557014.01721
  22003076.6024  -10371862.72347  -8010958.55262
  23883648.5864   -2196248.79045   -156085.16161
 91  3 20 23 18  0.0000000  0  6G18G11G19G16G 2G 6
  22014887.4614    7624146.65947   5929202.87162
  22832514.3984   -3796550.42646  -2912177.18761
  21004572.0784     -17233.27346     -6748.43063
  24015831.258    -1393071.543 5   -559750.09521
  21997241.3204  -10402527.08547  -8034852.77862
  23877289.398    -2229643.738 5   -182107.05221
 91  3 20 23 18 15.0000000  0  6G18G11G19G16G 2G 6
  22022737.305     7665394.843 7   5961344.22422
  22833333.227    -3792243.361 6  -2908821.01821
  21005583.8364     -11916.36446     -2605.38763
  24015185.555    -1396460.797 5   -562391.07521
  21991419.0554  -10433124.81746  -8058695.07262
  23870937.8134   -2263044.82445   -208133.71561
 91  3 20 23 18 30.0000000  0  6G18G11G19G16G 2G 6
  22030602.5864    7706724.51847   5993549.08362
  22834183.6564   -3787785.75146  -2905347.54761
  21006601.3754      -6549.47746      1576.60163
  24014560.570    -1399722.944 5   -564933.04121
  21985607.7274  -10463651.03946  -8082481.64862
  23864578.0554   -2296447.23445   -234161.40161
 91  3 20 23 18 45.0000000  0  6G18G11G19G16G 2G 6
  22038479.9924    7748129.83947   6025812.87862
  22835059.3444   -3783183.17047  -2901761.11061
  21007635.3834      -1138.18346      5793.19963
  24013969.4534   -1402863.95045   -567380.56461
  21979811.4064  -10494111.40046  -8106216.90262
  23858220.492    -2329856.462 5   -260194.42521
 91  3 20 23 19  0.0000000  0  6G18G11G19G16G 2G 6
  22046374.633     7789611.518 7   6058136.17822
  22835964.6414   -3778434.66246  -2898060.97161
  21008672.5784       4318.82346     10045.40363
  24013395.4454   -1405882.72945   -569732.86461
  21974029.6804  -10524504.70647  -8129899.91362
  23851865.438    -2363271.450 5   -286231.93921
 91  3 20 23 19 15.0000000  0  6G18G11G19G16G 2G 6
  22054283.969     7831168.676 7   6090518.29522
  22836893.9384   -3773540.88846  -2894247.64261
  21009719.1024       9820.89046     14332.73263
  24012843.141    -1408779.938 5   -571990.44221
  21968258.7734  -10554831.52947  -8153531.11462
  23845503.867    -2396692.946 5   -312274.48821
 91  3 20 23 19 30.0000000  0  6G18G11G19G16G 2G 6
  22062205.711     7872803.298 7   6122960.77722
  22837849.6174   -3768499.70946  -2890319.43861
  21010777.8444      15370.07546     18656.76563
  24012318.1724   -1411553.52045   -574151.69461
  21962500.648   -10585089.733 7  -8177108.85322
  23839139.813    -2430118.769 5   -338320.43721
 91  3 20 23 19 45.0000000  0  6G18G11G19G16G 2G 6
  22070142.4304    7914514.26347   6155462.73661
  22838841.4304   -3763311.92146  -2886277.00261
  21011838.6724      20965.68146     23016.97863
  24011808.0704   -1414204.38545   -576217.33061
  21956755.9844  -10615280.24347  -8200633.83862
  23832784.0164   -2463549.86545   -364370.49461
 91  3 20 23 20  0.0000000  0  6G18G11G19G16G 2G 6
  22078095.523     7956302.722 7   6188025.09322
  22839857.0554   -3757976.26046  -2882119.34861
  21012913.3674      26609.16446     27414.49463
  24011332.1644   -1416731.20445   -578186.27061
  21951022.656   -10645401.657 7  -8224104.98322
  23826417.2974   -2496984.85645   -390423.59161
 91  3 20 23 20 15.0000000  0  6G18G11G19G16G 2G 6
  22086063.6094    7998168.88847   6220647.98761
  22840895.0234   -3752492.24746  -2877846.08661
  21013997.1094      32301.10146     31849.77163
  24010873.461    -1419133.563 5   -580058.24821
  21945304.6254  -10675453.28447  -8247521.75362
  23820057.7734   -2530423.23845   -416479.31461
 91  3 20 23 20 30.0000000  0  6G18G11G19G16G 2G 6
  22094043.750     8040112.612 7   6253331.32021
  22841971.7584   -3746859.78346
  21015086.7504      38041.80746
  24010442.4384   -1421411.42345   -581833.21861
  21939597.1724  -10705435.26746  -8270884.24762
  23813690.734    -2563864.886 5   -442537.59821
 91  3 20 23 20 45.0000000  0  6G18G11G19G16G 2G 6
  22102040.9694    8082130.10047   6286072.13361
  22843070.469    -3741082.319 6
  21016190.6484      43827.99746
  24010031.7584   -1423568.30845   -583513.90161
  21933905.7734  -10735350.75647  -8294194.93262
  23807327.3134   -2597313.26745   -468601.13461
 91  3 20 23 21  0.0000000  0  6G18G11G19G16G 2G 6
  22110049.5704    8124221.26047   6318870.35162
  22844196.9924   -3735160.09446  -2864340.50461
  21017297.1884      49659.56346     45375.83563
  24009640.305    -1425604.563 5   -585100.61521
  21928226.305   -10765199.916 7  -8317453.93222
  23800956.852    -2630768.579 5   -494670.03521
 91  3 20 23 21 15.0000000  0  6G18G11G19G16G 2G 6
  22118076.0864    8166390.51547   6351729.41961
  22845353.5704   -3729088.27046  -2859609.20561
  21018417.2894      55541.32146     49959.02363
  24009278.0164   -1427515.53545   -586589.67661
  21922560.008   -10794978.014 7  -8340657.56422
  23794591.125    -2664226.025 5   -520740.62021
 91  3 20 23 21 30.0000000  0  6G18G11G19G16G 2G 6
  22126113.281     8208633.558 7   6384645.97522
  22846535.6254   -3722870.98646  -2854764.57761
  21019543.9694      61469.19446     54578.14563
  24008936.117    -1429305.328 5   -587984.34221
  21916905.953   -10824689.162 7  -8363809.02722
  23788224.2034   -2697689.79045   -546816.13261
 91  3 20 23 21 45.0000000  0  6G18G11G19G16G 2G 6
  22134169.2584    8250955.83247   6417624.27961
  22847747.5944   -3716502.54246  -2849802.15261
  21020686.0004      67449.07146     59237.78563
  24008621.5554   -1430968.43545   -589280.27961
  21911262.898   -10854327.496 7  -8386903.75122
  23781856.711    -2731154.129 5   -572892.07221
 91  3 20 23 22  0.0000000  0  6G18G11G19G16G 2G 6
  22142235.0394    8293353.26147   6450661.14261
  22848987.6484   -3709986.67146  -2844724.84461
  21021834.4844      73477.30646     63935.11763
  24008331.750    -1432508.283 5   -590480.16921
  21905637.8914  -10883896.87147  -8409944.73362
  23775485.617    -2764622.645 5   -598971.28621
 91  3 20 23 22 15.0000000  0  6G18G11G19G16G 2G 6
  22150317.3444    8335827.51447   6483757.86362
  22850257.5084   -3703321.72746  -2839531.37061
  21022987.8284      79555.82146     68671.62863
  24008053.602    -1433923.294 5   -591582.78821
  21900023.477   -10913395.471 7  -8432930.57922
  23769118.320    -2798093.783 5   -625052.53021
 91  3 20 23 22 30.0000000  0  6G18G11G19G16G 2G 6
  22158414.9534    8378376.20247   6516912.59662
  22851551.1414   -3696509.99046  -2834223.52461
  21024153.2664      85682.34546     73445.54163
  24007811.891    -1435216.238 5   -592590.28621
  21894425.3054  -10942825.55047  -8455863.02562
  23762748.0474   -2831569.63845   -651137.44961
 91  3 20 23 22 45.0000000  0  6G18G11G19G16G 2G 6
  22166527.0784    8421000.00247   6550125.84862
  22852877.9534   -3689550.26946  -2828800.35661
  21025330.1254      91858.23046     78257.92663
  24007589.7194   -1436385.38445   -593501.31661
  21888838.4844  -10972185.83847  -8478741.08162
  23756374.617    -2865049.094 5   -677225.17721
 91  3 20 23 23  0.0000000  0  6G18G11G19G16G 2G 6
  22174651.250     8463695.943 7   6583395.31222
  22854227.2584   -3682445.47646  -2823264.16061
  21026516.1174      98080.79446     83106.68063
  24007389.7584   -1437433.97345   -594318.45361
  21883263.930   -11001479.015 6  -8501566.85122
  23750001.5864   -2898534.94245   -703317.88061
 91  3 20 23 23 15.0000000  0  6G18G11G19G16G 2G 6
  22182791.2194    8506469.57747   6616725.31962
  22855610.8594   -3675190.02646  -2817610.55761
  21027709.2664     104355.77446     87996.27763
  24007213.4144   -1438356.60845   -595037.40561
  21877700.977   -11030699.575 6  -8524336.03222
  23743632.0554   -2932021.55945   -729411.19761
 91  3 20 23 23 30.0000000  0  6G18G11G19G16G 2G 6
  22190945.0164    8549320.39547   6650115.46962
  22857019.094    -3667784.063 6  -2811839.67221
  21028910.1334     110682.94046     92926.54263
  24007065.953    -1439153.388 6   -595658.28821
  21872153.180   -11059847.680 6  -8547048.75822
  23737259.109    -2965509.097 5   -755505.23421
 91  3 20 23 23 45.0000000  0  6G18G11G19G16G 2G 6
  22199114.594     8592245.617 7   6683563.59421
  22858455.1644   -3660230.02446  -2805953.41161
  21030126.7194     117060.21346     97895.84663
  24006929.711    -1439826.978 5   -596183.19821
  21866622.5554  -11088925.56146  -8569706.75962
  23730887.070    -2999000.090 5   -781601.96521
 91  3 20 23 24  0.0000000  0  6G18G11G19G16G 2G 6
  22207295.5554    8635242.88147   6717067.86262
  22859921.7734   -3652530.01046  -2799953.40461
  21031348.2584     123485.43646    102902.51963
  24006832.195    -1440379.592 6   -596613.81921
  21861100.148   -11117935.354 6  -8592311.71222
  23724509.695    -3032496.588 5   -807702.96321
 91  3 20 23 24 15.0000000  0  6G18G11G19G16G 2G 6
  22215491.305     8678313.350 7   6750629.16821
  22861413.9384   -3644682.99946  -2793838.84861
  21032581.2504     129959.82946    107947.51063
  24006747.461    -1440810.102 5   -596949.30021
  21855595.2894  -11146875.80247  -8614862.62662
  23718133.656    -3065997.428 5   -833807.37321
 91  3 20 23 24 30.0000000  0  6G18G11G19G16G 2G 6
  22223702.1024    8721455.05847   6784245.97961
  22862934.8524   -3636690.64846  -2787611.03561
  21033820.8524     136481.99346    113029.71963
  24006687.891    -1441120.128 5   -597190.89721
  21850101.461   -11175748.633 7  -8637360.84922
  23711758.0944   -3099504.22545   -859916.44061
 91  3 20 23 24 45.0000000  0  6G18G11G19G16G 2G 6
  22231923.8984    8764670.65147   6817920.37661
  22864484.211    -3628550.133 6  -2781267.77321
  21035072.4454     143054.77446    118151.36763
  24006653.430    -1441306.739 5
  21844619.484   -11204550.906 7  -8659804.10022
  23705384.242    -3133014.088 5   -886027.86321
 91  3 20 23 25  0.0000000  0  6G18G11G19G16G 2G 6
  22240162.4924    8807958.84446   6851651.34261
  22866059.7814   -3620262.61346  -2774809.95861
  21036332.4924     149677.29646    123311.77563
  24006634.813    -1441371.172 5
  21839152.320   -11233283.649 7  -8682193.16422
  23699007.5084   -3166528.07645   -912142.51861
 91  3 20 23 25 15.0000000  0  6G18G11G19G16G 2G 6
  22248412.828     8851318.050 6   6885437.62721
  22867663.2814   -3611829.43046  -2768238.64861
  21037602.4384     156348.28446    128509.94663
  24006650.234    -1441315.089 5
  21833696.258   -11261948.174 7  -8704529.08222
  23692627.2814   -3200047.54145   -938261.43461
 91  3 20 23 25 30.0000000  0  6G18G11G19G16G 2G 6
  22256677.2584    8894750.06446   6919280.66161
  22869299.8914   -3603248.60846  -2761552.29261
  21038878.2664     163069.95146    133747.60563
  24006688.0164   -1441136.47845
  21828254.055   -11290542.423 7  -8726810.23022
  23686250.1884   -3233570.46445   -964383.04461
 91  3 20 23 25 45.0000000  0  6G18G11G19G16G 2G 6
  22264956.898     8938257.804 6   6953182.69521
  22870961.1804   -3594516.95546  -2754748.40961
  21040168.4454     169845.64246    139027.36563
  24006741.8134   -1440832.17245
  21822828.531   -11319063.043 7  -8749034.01222
  23679867.664    -3267093.550 5   -990504.79421
 91  3 20 23 26  0.0000000  0  6G18G11G19G16G 2G 6
  22273248.1954    8981832.63546   6987137.00561
  22872646.7194   -3585643.06846  -2747833.68661
  21041468.6024     176666.85646    144342.59763
  24006822.4614   -1440410.85345   -596638.31161
  21817414.117   -11347518.566 7  -8771207.05622
  23673486.508    -3300625.309 5  -1016633.29121
 91  3 20 23 26 15.0000000  0  6G18G11G19G16G 2G 6
  22281553.484     9025475.772 6   7021144.54521
  22874365.6724   -3576625.61046  -2740807.09961
  21042775.4694     183535.23946    149694.58162
  24006925.2034   -1439871.29845   -596217.88461
  21812011.375   -11375907.586 7  -8793328.29122
  23667107.180    -3334164.383 5  -1042767.48921
 91  3 20 23 26 30.0000000  0  6G18G11G19G16G 2G 6
  22289873.000     9069186.061 6   7055204.40821
  22876107.7734   -3567465.40846  -2733669.28261
  21044090.7974     190449.98446    155082.69163
  24007047.898    -1439214.387 5   -595706.03721
  21806621.422   -11404231.015 7  -8815398.41222
  23660715.6094   -3367711.52945  -1068907.99061
 91  3 20 23 26 45.0000000  0  6G18G11G19G16G 2G 6
  22298204.055     9112966.814 6   7089319.17221
  22877880.602    -3558158.794 6  -2726417.38321
  21045417.6174     197414.74846    160509.78262
  24007199.063    -1438436.610 5   -595100.00321
  21801243.398   -11432485.177 7  -8837414.55622
  23654339.3834   -3401263.17545  -1095051.97461
 91  3 20 23 27  0.0000000  0  6G18G11G19G16G 2G 6
  22306549.727     9156822.267 6   7123492.15221
  22879679.0234   -3548701.70646  -2719048.23061
  21046751.7194     204434.02746    165979.34462
  24007371.891    -1437533.863 5   -594396.60721
  21795883.0864  -11460665.96547  -8859373.53362
  23647949.2974   -3434815.07645  -1121196.18861
 91  3 20 23 27 15.0000000  0  6G18G11G19G16G 2G 6
  22314909.578     9200749.644 6   7157721.16721
  22881509.5944   -3539096.57447  -2711563.70961
  21048098.0634     211505.53746    171489.60763
  24007561.5234   -1436508.69445   -593597.78361
  21790531.602   -11488775.444 7  -8881276.93722
  23641568.500    -3468369.375 5  -1147342.26921
 91  3 20 23 27 30.0000000  0  6G18G11G19G16G 2G 6
  22323282.563     9244749.992 6   7192007.04621
  22883364.0474   -3529342.20046  -2703962.89961
  21049453.1094     218630.63846    177041.63263
  24007784.984    -1435359.628 5   -592702.49721
  21785197.133   -11516812.352 7  -8903123.79822
  23635178.414    -3501924.920 5  -1173489.30021
 91  3 20 23 27 45.0000000  0  6G18G11G19G16G 2G 6
  22331668.219     9288819.373 6   7226346.71721
  22885245.5474   -3519442.26946  -2696248.66461
  21050820.2734     225805.81746    182632.67663
  24008028.289    -1434090.516 5   -591713.58821
  21779873.5004  -11544780.29947  -8924916.91762
  23628795.3834   -3535485.39745  -1199640.17361
 91  3 20 23 28  0.0000000  0  6G18G11G19G16G 2G 6
  22340066.914     9332959.812 6   7260741.75621
  22887159.7814   -3509394.74046  -2688419.42361
  21052194.6804     233033.35546    188264.52563
  24008291.4384   -1432699.27945   -590629.55561
  21774565.648   -11572677.043 7  -8946654.56022
  23622410.0634   -3569048.59845  -1225793.18961
 91  3 20 23 28 15.0000000  0  6G18G11G19G16G 2G 6
  22348480.758     9377169.002 6   7295190.37121
  22889098.7424   -3499201.66146  -2680476.76861
  21053579.3674     240311.25346    193935.60763
  24008580.6254   -1431188.03045   -589451.97261
  21769271.2504  -11600504.68047  -8968338.34362
  23616017.7894   -3602616.60345  -1251949.97661
 91  3 20 23 28 30.0000000  0  6G18G11G19G16G 2G 6
  22356906.023     9421442.562 6   7329689.14421
  22891064.4924   -3488867.13646  -2672423.90361
  21054972.1174     247635.54746    199642.84263
  24008890.6884   -1429561.15445   -588184.31361
  21763987.9144  -11628267.35847  -8989971.51362
  23609630.430    -3636193.462 5  -1278113.61121
 91  3 20 23 28 45.0000000  0  6G18G11G19G16G 2G 6
  22365344.602     9465786.789 6   7364242.97721
  22893058.492    -3478384.752 6  -2664255.82221
  21056376.9844     255012.82646    205391.36563
  24009220.391    -1427811.932 5   -586821.30921
  21758717.969   -11655958.456 7  -9011548.91522
  23603242.3364   -3669772.52045  -1304278.96061
 91  3 20 23 29  0.0000000  0  6G18G11G19G16G 2G 6
  22373795.805     9510199.762 6   7398850.38521
  22895081.9844   -3467756.47846  -2655974.06061
  21057789.6334     262441.27446    211179.76463
  24009576.695    -1425942.468 5   -585364.61021
  21753460.391   -11683579.945 7  -9033072.07122
  23596847.8134   -3703355.76645  -1330447.61361
 91  3 20 23 29 15.0000000  0  6G18G11G19G16G 2G 6
  22382261.367     9554681.778 6   7433511.58521
  22897131.3594   -3456981.49246  -2647577.98061
  21059215.5864     269921.92546    217008.84263
  24009955.3054   -1423952.34645   -583813.89561
  21748218.258   -11711130.947 7  -9054540.30222
  23590458.367    -3736942.339 5  -1356618.79021
 91  3 20 23 29 30.0000000  0  6G18G11G19G16G 2G 6
  22390738.609     9599232.081 6   7468225.99821
  22899211.3984   -3446060.40546  -2639068.05261
  21060646.3914     277454.34146    222878.25263
  24010357.422    -1421842.248 5   -582169.68721
  21742988.805   -11738611.884 7  -9075953.93622
  23584068.250    -3770532.757 5  -1382793.02021
 91  3 20 23 29 45.0000000  0  6G18G11G19G16G 2G 6
  22399229.570     9643853.092 6   7502995.50721
  22901318.0944   -3434990.70946  -2630442.31061
  21062089.8284     285041.14546    228790.04363
  24010784.742    -1419609.510 5   -580429.89821
  21737774.359   -11766020.210 7  -9097310.99622
  23577673.0394   -3804124.36745  -1408968.17461
 91  3 20 23 30  0.0000000  0  6G18G11G19G16G 2G 6
  22407734.922     9688545.622 6   7537820.74321
  22903452.0864   -3423771.39246  -2621699.98961
  21063545.0004     292683.67346    234745.25963
  24011233.0864   -1417253.06145   -578593.73561
  21732572.7664  -11793354.70747  -9118610.51162
  23571284.1024   -3837716.11545  -1435143.38561
 91  3 20 23 30 15.0000000  0  6G18G11G19G16G 2G 6
  22416252.164     9733306.407 6   7572699.16821
  22905615.5704   -3412405.80546  -2612843.69561
  21065010.5234     300378.90446    240741.53363
  24011705.7274   -1414776.47345   -576663.94961
  21727383.742   -11820618.587 7  -9139855.01122
  23564885.648    -3871311.174 5  -1461321.24121
 91  3 20 23 30 30.0000000  0  6G18G11G19G16G 2G 6
  22424782.188     9778135.349 6   7607630.70621
  22907807.9614   -3400893.74046  -2603873.25761
  21066485.8524     308126.85846    246778.89563
  24012197.4304   -1412179.51545   -574640.37661
  21722207.6804  -11847811.55147  -9161044.24862
  23558493.047    -3904909.324 5  -1487501.48621
 91  3 20 23 30 45.0000000  0  6G18G11G19G16G 2G 6
  22433326.523     9823032.183 6   7642615.13521
  22910023.680    -3389235.259 6  -2594788.73821
  21067970.7814     315927.73846    252857.49963
  24012715.945    -1409462.176 6   -572522.99621
  21717048.289   -11874933.732 7  -9182178.33522
  23552101.734    -3938510.524 5  -1513684.09021
 91  3 20 23 31  0.0000000  0  6G18G11G19G16G 2G 6
  22441881.523     9867991.838 6   7677648.52521
  22912271.5554   -3377435.27246  -2585593.94861
  21069460.5554     323776.85746    258973.69163
  24013247.1484   -1406629.49945   -570315.74561
  21711898.891   -11901989.839 7  -9203260.93122
  23545704.1804   -3972119.50145  -1539872.76461
 91  3 20 23 31 15.0000000  0  6G18G11G19G16G 2G 6
  22450449.852     9913013.542 6   7712730.26321
  22914542.5634   -3365494.26346  -2576289.27261
  21070966.1254     331673.96146    265127.27663
  24013815.500    -1403682.006 5   -568018.99921
  21706762.203   -11928980.088 7  -9224292.21522
  23539309.148    -4005736.612 5  -1566067.77821
 91  3 20 23 31 30.0000000  0  6G18G11G19G16G 2G 6
  22459029.555     9958101.569 6   7747863.68721
  22916842.2194   -3353408.19746  -2566871.57161
  21072479.7344     339623.33946    271321.59663
  24014399.9924   -1400615.62345   -565629.64161
  21701640.109   -11955900.575 7  -9245269.13822
  23532909.8364   -4039357.78445  -1592265.97161
 91  3 20 23 31 45.0000000  0  6G18G11G19G16G 2G 6
  22467621.438    10003257.494 6   7783050.01421
  22919169.492    -3341174.945 6  -2557339.17521
  21074001.9614     347627.31546    277558.45663
  24014999.828    -1397428.392 5   -563146.11821
  21696533.273   -11982749.045 7  -9266189.94422
  23526508.1884   -4072980.71045  -1618465.51361
 91  3 20 23 32  0.0000000  0  6G18G11G19G16G 2G 6
  22476229.328    10048482.259 6   7818289.98421
  22921526.6024   -3328793.50646  -2547691.31061
  21075536.8054     355686.95146    283838.68763
  24015633.2974   -1394119.29845   -560567.62561
  21691436.750   -12009524.404 7  -9287053.78422
  23520113.938    -4106604.341 5  -1644665.60821
 91  3 20 23 32 15.0000000  0  6G18G11G19G16G 2G 6
  22484847.539    10093769.811 6   7853578.87821
  22923909.3594   -3316269.82646  -2537932.60361
  21077079.2424     363796.75546    290158.00863
  24016284.1724   -1390694.40745   -557898.90361
  21686354.820   -12036232.382 7  -9307865.12022
  23513708.875    -4140234.478 5  -1670870.75321
 91  3 20 23 32 30.0000000  0  6G18G11G19G16G 2G 6
  22493479.242    10139130.110 6   7888924.45721
  22926321.125    -3303593.828 6  -2528055.21521
  21078634.2584     371966.84346    296524.29863
  24016963.2034   -1387143.84245   -555132.22661
  21681286.883   -12062863.000 7  -9328616.17722
  23507315.836    -4173860.947 5  -1697073.07621
 91  3 20 23 32 45.0000000  0  6G18G11G19G16G 2G 6
  22502124.680    10184557.573 6   7924322.36821
  22928761.4614   -3290771.15346  -2518063.52761
  21080200.0944     380191.79346    302933.34063
  24017661.703    -1383472.946 5   -552271.84121
  21676231.594   -12089421.681 7  -9349311.17722
  23500913.7424   -4207489.35545  -1723276.89361
 91  3 20 23 33  0.0000000  0  6G18G11G19G16G 2G 6
  22510780.6484   10230050.46346   7959771.25861
  22931230.766    -3277802.934 6  -2507958.44321
  21081771.266      388470.763 6    309384.47223
  24018377.0704   -1379683.08945   -549318.72261
  21671190.6804  -12115909.55447  -9369951.00962
  23494516.008    -4241120.716 5  -1749483.00921
 91  3 20 23 33 15.0000000  0  6G18G11G19G16G 2G 6
  22519450.4064   10275608.40046   7995270.82261
  22933723.8754   -3264689.46646  -2497740.18661
  21083359.1094     396803.52646    315877.52363
  24019118.9614   -1375774.63745   -546273.23061
  21666163.656   -12142326.586 7  -9390535.63822
  23488110.7814   -4274755.19445  -1775691.57061
 91  3 20 23 33 30.0000000  0  6G18G11G19G16G 2G 6
  22528132.297    10321233.656 6   8030822.85021
  22936249.219    -3251428.415 6  -2487406.92521
  21084952.4454     405192.67846    322414.51563
  24019896.656    -1371745.454 5   -543133.65921
  21661150.5004  -12168670.33547  -9411063.16862
  23481716.023    -4308390.237 5  -1801900.57221
 91  3 20 23 33 45.0000000  0  6G18G11G19G16G 2G 6
  22536825.719    10366923.771 6   8066425.42221
  22938798.500    -3238022.198 6  -2476960.54621
  21086562.3054     413636.04546    328993.75263
  24020678.6724   -1367597.65045   -539901.64861
  21656151.7664  -12194943.26247  -9431535.50862
  23475309.703    -4342028.115 5  -1828111.75021
 91  3 20 23 34  0.0000000  0  6G18G11G19G16G 2G 6
  22545533.359    10412681.138 6   8102080.39921
  22941377.7504   -3224468.38346  -2466399.14361
  21088177.7814     422136.14146    335617.20263
  24021487.0234   -1363328.73645   -536575.24661
  21651166.836   -12221142.995 7  -9451950.80722
  23468912.641    -4375666.487 5  -1854323.33621
 91  3 20 23 34 15.0000000  0  6G18G11G19G16G 2G 6
  22554253.789    10458501.978 6   8137784.83221
  22943987.0164   -3210770.47846  -2455725.46161
  21089806.6644     430689.93646    342282.49363
  24022332.4694   -1358942.42745   -533157.35661
  21646193.2974  -12247272.62147  -9472311.48762
  23462510.0634   -4409308.45845  -1880537.72061
 91  3 20 23 34 30.0000000  0  6G18G11G19G16G 2G 6
  22562983.844    10504384.308 6   8173537.19821
  22946619.0864   -3196929.98246  -2444940.66561
  21091448.4774     439295.87146    348988.41763
  24023185.4144   -1354440.33545   -529649.28861
  21641234.477   -12273333.667 7  -9492618.71222
  23456104.781    -4442955.569 5  -1906756.09821
 91  3 20 23 34 45.0000000  0  6G18G11G19G16G 2G 6
  22571729.2504   10550334.44646   8209342.38561
  22949280.625    -3182940.725 6  -2434039.96621
  21093094.2664     447960.53646    355740.09063
  24024064.1644   -1349816.61345   -526046.39261
  21636288.133   -12299319.789 7  -9512867.56722
  23449704.641    -4476601.384 5  -1932973.52621
 91  3 20 23 35  0.0000000  0  6G18G11G19G16G 2G 6
  22580485.031    10596346.792 6   8245196.05021
  22951970.8594   -3168808.37346  -2423027.74861
  21094752.1174     456678.30646    362533.15663
  24024965.4844   -1345076.59445   -522352.90561
  21631356.867   -12325236.462 7  -9533062.30122
  23443298.9844   -4510251.59745  -1959194.28461
 91  3 20 23 35 15.0000000  0  6G18G11G19G16G 2G 6
  22589253.1254   10642422.53246   8281099.10561
  22954687.797    -3154531.361 6  -2411902.81621
  21096420.3914     465450.89646    369368.93163
  24025885.656    -1340218.849 5   -518567.69321
  21626439.4694  -12351082.03147  -9553201.64162
  23436894.6094   -4543904.36345  -1985417.10261
 91  3 20 23 35 30.0000000  0  6G18G11G19G16G 2G 6
  22598033.9774   10688561.91446   8317051.74561
  22957431.773    -3140109.175 6  -2400664.76321
  21098103.3674     474279.27446    376248.17963
  24026832.844    -1335242.940 5   -514690.39221
  21621534.4304  -12376855.76647  -9573284.99962
  23430490.125    -4577559.139 5  -2011641.46021
 91  3 20 23 35 45.0000000  0  6G18G11G19G16G 2G 6
  22606824.391    10734766.410 6   8353055.13621
  22960205.414    -3125540.577 6  -2389312.62021
  21099792.5164     483164.79946    383171.96363
  24027809.2194   -1330147.61645   -510720.05361
  21616643.8674  -12402556.39547  -9593311.39462
  23424084.703    -4611214.396 5  -2037866.17321
 91  3 20 23 36  0.0000000  0  6G18G11G19G16G 2G 6
  22615628.7424   10781031.24546   8389105.54161
  22963003.391    -3110829.865 6  -2377849.74521
  21101492.7734     492103.23246    390136.96463
  24028801.141    -1324937.489 5   -506660.22721
  21611764.7894  -12428188.21947  -9613284.18262
  23417680.1954   -4644874.46745  -2064094.67661
 91  3 20 23 36 15.0000000  0  6G18G11G19G16G 2G 6
  22624445.859    10827360.996 6   8425206.52621
  22965831.867    -3095972.399 6  -2366272.52321
  21103205.5784     501099.49946    397147.03563
  24029808.234    -1319607.697 5   -502507.19621
  21606901.2664  -12453746.51847  -9633199.67062
  23411278.1724   -4678534.56645  -2090323.19461
 91  3 20 23 36 30.0000000  0  6G18G11G19G16G 2G 6
  22633272.398    10873751.124 6   8461354.56821
  22968685.3984   -3080972.79846  -2354584.52861
  21104928.8054     510149.45046    404198.94762
  24030846.8524   -1314162.58045   -498264.28161
  21602049.4614  -12479235.65647  -9653061.26962
  23404869.2974   -4712198.95445  -2116555.04261
 91  3 20 23 36 45.0000000  0  6G18G11G19G16G 2G 6
  22642114.6024   10920206.38946   8497553.35961
  22971566.688    -3065825.883 6  -2342781.75521
  21106661.3284     519258.43046    411296.85262
  24031910.055    -1308597.270 5   -493927.71121
  21597214.0944  -12504650.35847  -9672864.86362
  23398463.797    -4745862.428 5  -2142786.20621
 91  3 20 23 37  0.0000000  0  6G18G11G19G16G 2G 6
  22650967.117    10966728.777 6   8533804.44921
  22974477.578    -3050529.826 6  -2330862.77321
  21108407.2344     528428.65146    418442.47462
  24032993.2584   -1302909.99945   -489496.11861
  21592394.500   -12529988.549 7  -9692608.84222
  23392059.4384   -4779522.99845  -2169015.07561
 91  3 20 23 37 15.0000000  0  6G18G11G19G16G 2G 6
  22659832.875    11013315.048 6   8570105.33421
  22977414.961    -3035087.440 6  -2318829.76021
  21110163.9064     537657.26046    425633.59562
  24034095.6564   -1297103.59445   -484971.67961
  21587587.102   -12555252.867 7  -9712295.25122
  23385651.484    -4813183.352 5  -2195243.77821
 91  3 20 23 37 30.0000000  0  6G18G11G19G16G 2G 6
  22668706.9924   11059959.44646   8606451.48961
  22980381.727    -3019504.415 6  -2306687.15521
  21111929.8914     546938.75046    432865.92363
  24035214.523    -1291184.071 5   -480359.07621
  21582791.5314  -12580449.04147  -9731928.55962
  23379246.109    -4846849.041 5  -2221476.63221
 91  3 20 23 37 45.0000000  0  6G18G11G19G16G 2G 6
  22677595.4844   11106663.08246   8642843.81861
  22983373.055    -3003779.567 6  -2294434.05121
  21113706.3524     556274.56046    440140.57563
  24036370.7114   -1285150.07245   -475657.30361
  21578008.9454  -12605575.75747  -9751507.75362
  23372835.9844   -4880518.63945  -2247712.55261
 91  3 20 23 38  0.0000000  0  6G18G11G19G16G 2G 6
  22686493.6644   11153429.50446   8679285.06361
  22986394.133    -2987909.466 6  -2282067.76121
  21115491.9144     565668.42746    447460.46663
  24037543.2424   -1278997.99845   -470863.51561
  21573241.1254  -12630629.33947  -9771029.95062
  23366431.063    -4914188.519 6  -2273948.69021
 91  3 20 23 38 15.0000000  0  6G18G11G19G16G 2G 6
  22695406.172    11200257.944 6   8715774.63721
  22989441.5784   -2971894.67246  -2269588.72061
  21117293.3204     575120.03246    454825.35063
  24038735.1724   -1272728.37945   -465978.13561
  21568487.3054  -12655610.23447  -9790495.52662
  23360025.7894   -4947859.14646  -2300185.41961
 91  3 20 23 38 30.0000000  0  6G18G11G19G16G 2G 6
  22704328.9304   11247142.65446   8752308.05661
  22992516.891    -2955740.535 6  -2257001.09721
  21119101.3444     584624.18746    462231.18263
  24039949.969    -1266346.987 5   -461005.66521
  21563746.5394  -12680523.82547  -9809908.64162
  23353614.3674   -4981535.79346  -2326426.82661
 91  3 20 23 38 45.0000000  0  6G18G11G19G16G 2G 6
  22713261.6254   11294086.35346   8788887.43761
  22995619.242    -2939444.416 6  -2244302.83821
  21120919.8134     594183.97346    469680.37062
  24041181.281    -1259851.008 5   -455943.90421
  21559019.4614  -12705367.26147  -9829267.10262
  23347206.3204   -5015215.49646  -2352670.61661
 91  3 20 23 39  0.0000000  0  6G18G11G19G16G 2G 6
  22722204.7194   11341087.73646   8825511.76961
  22998745.211    -2923007.389 6  -2231494.78921
  21122749.4774     603798.41746    477172.14162
  24042439.6094   -1253241.41245   -450793.58161
  21554304.289   -12730141.444 7  -9848571.59222
  23340797.5864   -5048899.27046  -2378917.59761
 91  3 20 23 39 15.0000000  0  6G18G11G19G16G 2G 6
  22731160.1724   11388147.87246   8862181.88661
  23001899.6564   -2906428.10646  -2218575.87561
  21124590.0704     613469.18446    484707.80662
  24043723.9534   -1246517.23345   -445554.00861
  21549604.906   -12754844.920 7  -9867820.98622
  23334385.9694   -5082585.52246  -2405166.48761
 91  3 20 23 39 30.0000000  0  6G18G11G19G16G 2G 6
  22740129.781    11435270.181 6   8898900.45021
  23005080.711    -2889703.268 6  -2205543.55821
  21126441.5704     623199.75346    492290.06062
  24045027.1334   -1239675.20445   -440222.61561
  21544916.6804  -12779474.23747  -9887012.59862
  23327977.1254   -5116270.82546  -2431414.64261
 91  3 20 23 39 45.0000000  0  6G18G11G19G16G 2G 6
  22749106.1254   11482448.34946   8935662.53161
  23008292.344    -2872838.996 6  -2192402.58221
  21128302.2034     632984.36746    499914.43062
  24046349.867    -1232721.279 5   -434803.99021
  21540243.5394  -12804035.42447  -9906151.12162
  23321564.508    -5149961.084 5  -2457666.66921
 91  3 20 23 40  0.0000000  0  6G18G11G19G16G 2G 6
  22758098.391    11529687.836 6   8972472.39721
  23011527.3054   -2855829.62246  -2179148.54861
  21130176.8054     642828.84546    507585.44963
  24047689.1884   -1225649.96045   -429293.92861
  21535584.5634  -12828522.54947  -9925231.93362
  23315152.9224   -5183650.45245  -2483917.99561
 91  3 20 23 40 15.0000000  0  6G18G11G19G16G 2G 6
  22767093.9454   11576987.70446   9009329.31161
  23014793.813    -2838676.300 6  -2165782.33821
  21132058.1804     652732.19346    515302.34063
  24049060.945    -1218462.185 5   -423693.08821
  21530938.0394  -12852936.52347  -9944255.73862
  23308744.0084   -5217339.89546  -2510169.36661
 91  3 20 23 40 30.0000000  0  6G18G11G19G16G 2G 6
  22776107.2814   11624345.31246   9046231.22361
  23018087.180    -2821381.218 6  -2152305.67421
  21133956.1804     662692.45846    523063.58963
  24050452.695    -1211160.077 5   -418003.16021
  21526304.4534  -12877279.46747  -9963224.20262
  23302331.4064   -5251031.50245  -2536422.45761
 91  3 20 23 40 45.0000000  0  6G18G11G19G16G 2G 6
  22785133.5944   11671762.10746   9083179.24761
  23021403.633    -2803942.966 6  -2138717.44821
  21135862.8524     672711.45446    530870.59263
  24051864.3674   -1203742.71845   -412223.46861
  21521686.2274  -12901550.01147  -9982136.24762
  23295922.328    -5284723.703 5  -2562675.98521
 91  3 20 23 41  0.0000000  0  6G18G11G19G16G 2G 6
  22794167.1564   11719236.56046   9120172.20361
  23024748.086    -2786362.988 6  -2125018.79421
  21137779.2504     682787.96946    538722.41763
  24053298.9924   -1196211.65545   -406355.10161
  21517080.5554  -12925749.50947 -10000992.93362
  23289508.9694   -5318417.59945  -2588930.84061
 91  3 20 23 41 15.0000000  0  6G18G11G19G16G 2G 6
  22803212.234    11766771.205 6   9157212.05821
  23028121.5314   -2768638.37846  -2111207.44261
  21139708.1334     692925.05946    546621.44563
  24054753.734    -1188563.861 5   -400395.87421
  21512491.9694  -12949874.83047 -10019791.82462
  23283097.0084   -5352110.30045  -2615184.78261
 91  3 20 23 41 30.0000000  0  6G18G11G19G16G 2G 6
  22812270.234    11814362.045 6   9194295.71321
  23031519.8524   -2750773.21846  -2097286.58061
  21141647.9224     703119.01846    554564.78463
  24056230.8594   -1180803.44545   -394348.82061
  21507914.0084  -12973929.88447 -10038535.96162
  23276685.102    -5385805.605 5  -2641440.72221
 91  3 20 23 41 45.0000000  0  6G18G11G19G16G 2G 6
  22821336.0704   11862012.60246   9231425.88961
  23034948.047    -2732763.960 6  -2083253.41421
  21143601.0164     713373.60946    562555.37063
  24057725.0634   -1172926.52845   -388211.03161
  21503350.4614  -12997910.92147 -10057222.42162
  23270271.898    -5419499.806 5  -2667695.81121
 91  3 20 23 42  0.0000000  0  6G18G11G19G16G 2G 6
  22830415.0004   11909717.66246   9268598.54661
  23038401.086    -2714615.599 6  -2069111.86021
  21145562.0084     723684.07646    570589.49863
  24059247.5394   -1164938.77245   -381986.79161
  21498800.2734  -13021822.89047 -10075855.06362
  23263859.8984   -5453197.56745  -2693953.69561
 91  3 20 23 42 15.0000000  0  6G18G11G19G16G 2G 6
  22839499.5394   11957477.16146   9305813.61061
  23041880.773    -2696327.905 6  -2054861.72921
  21147534.3364     734051.04146    578667.64863
  24060785.633    -1156839.410 5   -375675.65621
  21494262.6414  -13045665.33347 -10094433.52762
  23257447.055    -5486898.637 5  -2720214.14721
 91  3 20 23 42 30.0000000  0  6G18G11G19G16G 2G 6
  22848602.383    12005293.384 6   9343072.89121
  23045388.945    -2677898.931 6  -2040501.52021
  21149518.6174     744476.67846    586791.51763
  24062355.984    -1148626.541 5   -369276.05821
  21489739.4774  -13069436.11647 -10112956.14962
  23251030.4534   -5520600.61745  -2746475.29861
 91  3 20 23 42 45.0000000  0  6G18G11G19G16G 2G 6
  22857710.3054   12053165.36446   9380375.59761
  23048921.219    -2659329.526 6  -2026031.87621
  21151514.9144     754960.43446    594960.66763
  24063938.547    -1140301.301 5   -362788.90621
  21485229.4694  -13093135.88147 -10131423.43662
  23244619.3054   -5554304.23645  -2772737.73761
 91  3 20 23 43  0.0000000  0  6G18G11G19G16G 2G 6
  22866830.9924   12101093.92946   9417722.40861
  23052481.086    -2640618.548 6  -2011451.92821
  21153523.9924     765503.57146    603176.09563
  24065538.7504   -1131862.36345   -356213.16561
  21480732.8674  -13116763.53747 -10149834.53762
  23238203.9694   -5588008.30245  -2799000.52561
 91  3 20 23 43 15.0000000  0  6G18G11G19G16G 2G 6
  22875963.258    12149080.484 6   9455114.40321
  23056069.6484   -2621764.52146  -1996760.50761
  21155539.4534     776107.81246    611439.13663
  24067166.1254   -1123308.22645   -349547.66261
  21476251.3134  -13140317.31947 -10168188.06862
  23231792.125    -5621710.987 5  -2825262.23421
 91  3 20 23 43 30.0000000  0  6G18G11G19G16G 2G 6
  22885105.6254   12197119.99846   9492547.66561
  23059684.4304   -2602772.13846  -1981961.27961
  21157567.0474     786768.65546    619746.27763
  24068820.5394   -1114643.95545   -342796.32161
  21471782.5634  -13163801.63247 -10186487.46962
  23225379.1254   -5655416.87845  -2851526.41961
 91  3 20 23 43 45.0000000  0  6G18G11G19G16G 2G 6
  22894258.0084   12245214.76846   9530023.99061
  23063327.0784   -2583638.97146  -1967052.34761
  21159607.4454     797488.71146    628099.56163
  24070485.547    -1105867.306 5   -335957.40921
  21467326.0234  -13187214.23547 -10204730.99362
  23218963.164    -5689123.447 5  -2877791.15021
 91  3 20 23 44  0.0000000  0  6G18G11G19G16G 2G 6
  22903418.1094   12293366.90946   9567545.00661
  23066993.1094   -2564363.03246  -1952032.16461
  21161662.9924     808270.54846    636500.98563
  24072173.2344   -1096975.98344   -329029.14261
  21462884.4844  -13210552.88347 -10222916.88562
  23212552.4774   -5722828.40646  -2904054.61461
 91  3 20 23 44 15.0000000  0  6G18G11G19G16G 2G 6
  22912593.977    12341572.366 6   9605107.56421
  23070686.977    -2544948.271 6  -1936903.80021
  21163721.9924     819110.32546    644947.55563
  24073892.367    -1087973.865 4   -322014.57821
  21458456.5084  -13233821.40347 -10241048.13962
  23206133.633    -5756535.491 6  -2930319.74021
 91  3 20 23 44 30.0000000  0  6G18G11G19G16G 2G 6
  22921775.539    12389832.353 6   9642712.62721
  23074409.547    -2525393.403 6  -1921666.26421
  21165799.0864     830009.63346    653440.51463
  24075624.125    -1078859.863 3   -314912.81421
  21454041.6024  -13257018.16647 -10259123.47762
  23199724.7114   -5790243.07946  -2956585.27061
 91  3 20 23 44 45.0000000  0  6G18G11G19G16G 2G 6
  22930974.203    12438147.996 6   9680361.05421
  23078156.086    -2505697.369 6  -1906318.72621
  21167881.844      840969.698 6    661980.81423
  24077376.742    -1069633.180 3   -307723.27221
  21449642.5234  -13280141.98647 -10277141.97762
  23193307.102    -5823950.059 6  -2982850.30721
 91  3 20 23 45  0.0000000  0  6G18G11G19G16G 2G 6
  22940175.5234   12486519.60046   9718053.09161
  23081932.5474   -2485859.59346  -1890860.74461
  21169980.7504     851991.66446    670569.35063
  24079156.0474   -1060292.86844   -300445.11161
  21445256.9844  -13303192.00747 -10295102.96762
  23186890.8204   -5857655.54846  -3009114.19361
 91  3 20 23 45 15.0000000  0  6G18G11G19G16G 2G 6
  22949390.3284   12534942.17146   9755784.83261
  23085733.3594   -2465884.92246  -1875296.10561
  21172086.5084     863070.79946    679202.43463
  24080949.516    -1050844.091 4   -293082.50721
  21440882.5634  -13326173.22247 -10313010.34662
  23180477.758    -5891364.250 6  -3035380.57421
 91  3 20 23 45 30.0000000  0  6G18G11G19G16G 2G 6
  22958618.367    12583417.694 6   9793557.83621
  23089559.867    -2445771.143 6  -1859623.05621
  21174204.5554     874209.49346    687881.93263
  24082777.4924   -1041284.65944   -285633.64461
  21436522.4614  -13349083.27847 -10330862.27662
  23174065.0944   -5925073.72046  -3061647.57761
 91  3 20 23 45 45.0000000  0  6G18G11G19G16G 2G 6
  22967850.1724   12631944.97446   9831371.17861
  23093414.2504   -2425519.55446  -1843842.61861
  21176338.5394     885406.94946    696607.21263
  24084621.0474   -1031615.97845   -278099.63261
  21432177.586   -13371923.237 7 -10348659.58322
  23167646.508    -5958785.064 6  -3087916.01621
 91  3 20 23 46  0.0000000  0  6G18G11G19G16G 2G 6
  22977095.5864   12680527.95846   9869227.91461
  23097296.8594   -2405126.25946  -1827951.77061
  21178480.313      896667.275 6    705381.47523
  24086482.8594   -1021833.83545   -270477.23861
  21427844.4694  -13394688.80447 -10366398.93562
  23161235.6334   -5992493.99746  -3114182.59261
 91  3 20 23 46 15.0000000  0  6G18G11G19G16G 2G 6
  22986350.5004   12729166.33546   9907127.81761
  23101201.7424   -2384591.21546  -1811950.46861
  21180636.3914     907990.69146    714204.90863
  24088363.648    -1011938.384 5   -262766.54921
  21423527.406   -13417380.007 7 -10384080.33622
  23154819.3674   -6026200.34846  -3140447.16361
 91  3 20 23 46 30.0000000  0  6G18G11G19G16G 2G 6
  22995615.8284   12777856.33846   9945067.95161
  23105135.6804   -2363918.37246  -1795841.79661
  21182799.4694     919373.53146    723074.64263
  24090264.7814   -1001933.67644   -254970.72061
  21419221.8284  -13440000.61147 -10401706.72162
  23148404.8984   -6059907.84946  -3166712.61661
 91  3 20 23 46 45.0000000  0  6G18G11G19G16G 2G 6
  23004890.2894   12826598.56846   9983048.77261
  23109097.7664   -2343106.61446  -1779624.87961
  21184979.5944     930816.90146    731991.55063
  24092191.3524    -991818.63344   -247088.85561
  21414930.516   -13462549.303 7 -10419277.07422
  23141989.883    -6093615.142 6  -3192977.92121
 91  3 20 23 47  0.0000000  0  6G18G11G19G16G 2G 6
  23014173.492    12875390.485 6  10021068.31221
  23113084.461    -2322158.409 6  -1763301.62421
  21187170.0084     942318.87346    740954.11063
  24094137.727     -981595.507 4   -239122.84121
  21410652.7274  -13485028.35247 -10436793.15962
  23135575.7344   -6127324.49046  -3219244.82161
 91  3 20 23 47 15.0000000  0  6G18G11G19G16G 2G 6
  23023470.469    12924234.922 6  10059128.78221
  23117097.6954   -2301070.97946  -1746869.90961
  21189366.7734     953882.60746    749964.80963
  24096096.6254    -971261.51344   -231070.43661
  21406389.4534  -13507434.86247 -10454252.71762
  23129158.2194   -6161032.89546  -3245510.99661
 91  3 20 23 47 30.0000000  0  6G18G11G19G16G 2G 6
  23032774.047    12973131.144 6  10097229.60321
  23121138.008    -2279845.337 6  -1730330.47121
  21191578.328      965507.421 6    759023.09323
  24098094.914     -960818.008 4   -222932.68721
  21402138.3674  -13529769.63247 -10471656.37762
  23122747.2664   -6194741.04646  -3271776.95961
 91  3 20 23 47 45.0000000  0  6G18G11G19G16G 2G 6
  23042091.195    13022082.865 6  10135373.66721
  23125204.359    -2258477.329 6  -1713680.11321
  21193805.086      977197.656 6    768132.35423
  24100105.070     -950261.001 5   -214706.50421
  21397904.2504  -13552028.34647 -10489000.76562
  23116334.016    -6228444.594 6  -3298039.34921
 91  3 20 23 48  0.0000000  0  6G18G11G19G16G 2G 6
  23051414.672    13071078.950 6  10173552.30221
  23129293.422    -2236977.972 6  -1696927.39921
  21196041.539      988942.750 6    777284.36323
  24102125.8134    -939601.21844   -206400.27161
  21393681.2584  -13574221.79047 -10506294.30162
  23109919.594    -6262154.279 6  -3324306.53221
 91  3 20 23 48 15.0000000  0  6G18G11G19G16G 2G 6
  23060747.398    13120128.328 6  10211772.45121
  23133411.1254   -2215338.52946  -1680065.52861
  21198286.969     1000751.607 6    786486.05623
  24104174.4144    -928829.93544   -198007.08861
  21389470.3444  -13596341.02047 -10523530.00862
  23103505.945    -6295861.060 6  -3350571.43621
 91  3 20 23 48 30.0000000  0  6G18G11G19G16G 2G 6
  23070094.063    13169229.442 6  10250032.92621
  23137553.750    -2193560.591 6  -1663095.72821
  21200546.133     1012623.001 6    795736.47723
  24106251.5474    -917948.36744   -189528.00861
  21385276.836   -13618387.555 7 -10540709.07322
  23097088.922    -6329566.366 5  -3376835.20921
 91  3 20 23 48 45.0000000  0  6G18G11G19G16G 2G 6
  23079446.563    13218378.449 6  10288330.71421
  23141725.344    -2171647.722 6  -1646020.78821
  21202816.7344    1024553.46146    805032.92763
  24108343.336     -906960.435 4   -180966.04621
  21381093.9064  -13640364.67447 -10557834.03862
  23090677.6724   -6363273.43545  -3403100.34361
 91  3 20 23 49  0.0000000  0  6G18G11G19G16G 2G 6
  23088808.4454   13267578.77746  10326668.50461
  23145921.9614   -2149596.01446  -1628837.68261
  21205098.000     1036547.343 6    814378.78923
  24110456.422     -895862.741 4   -172318.58921
  21376925.9694  -13662268.38247 -10574901.80062
  23084259.617    -6396978.174 5  -3429363.65921
 91  3 20 23 49 15.0000000  0  6G18G11G19G16G 2G 6
  23098181.4844   13316832.99246  10365048.26661
  23150146.3444   -2127403.38246  -1611544.74561
  21207391.648     1048606.890 6    823775.82223
  24112580.8984    -884652.83744   -163583.65161
  21372771.0784  -13684096.69247 -10591910.81662
  23077850.867    -6430678.407 5  -3455623.46621
 91  3 20 23 49 30.0000000  0  6G18G11G19G16G 2G 6
  23107565.7424   13366135.15546  10403465.39661
  23154395.055    -2105075.501 6  -1594146.42421
  21209697.766     1060726.790 6    833219.88223
  24114740.7274    -873336.58144   -154765.83661
  21368629.922   -13705854.988 7 -10608865.27422
  23071437.5784   -6464379.40546  -3481883.86361
 91  3 20 23 49 45.0000000  0  6G18G11G19G16G 2G 6
  23116953.180    13415487.539 6  10441921.65521
  23158670.000    -2082609.903 6  -1576640.78621
  21212017.766     1072909.796 6    842713.12023
  24116906.922     -861911.392 5   -145863.14721
  21364504.7034  -13727540.45547 -10625762.98562
  23065021.1564   -6498078.52045  -3508142.80361
 91  3 20 23 50  0.0000000  0  6G18G11G19G16G 2G 6
  23126355.4144   13464886.44046  10480414.17761
  23162967.3524   -2060010.26546  -1559030.71861
  21214347.258     1085152.599 6    852252.95423
  24119109.898     -850380.761 5   -136878.30721
  21360389.9534  -13749156.51247 -10642606.59962
  23058609.586    -6531778.950 6  -3534402.76921
 91  3 20 23 50 15.0000000  0  6G18G11G19G16G 2G 6
  23135760.7894   13514333.71246  10518944.37161
  23167294.5704   -2037274.86146  -1541314.85361
  21216689.125     1097457.208 6    861840.94523
  24121324.055     -838743.303 5   -127810.20921
  21356290.9694  -13770701.34047 -10659394.72362
  23052196.055    -6565478.942 6  -3560662.37421
 91  3 20 23 50 30.0000000  0  6G18G11G19G16G 2G 6
  23145180.2734   13563828.18046  10557511.34661
  23171647.3054   -2014404.64546  -1523493.95061
  21219040.7114    1109823.09246    871476.69363
  24123557.703     -827000.056 5   -118659.68221
  21352205.3284  -13792175.59347 -10676127.84462
  23045783.922    -6599178.964 6  -3586922.03321
 91  3 20 23 50 45.0000000  0  6G18G11G19G16G 2G 6
  23154612.094    13613369.441 6  10596114.78721
  23176026.2974   -1991400.22146  -1505568.45761
  21221408.445     1122249.889 6    881159.89822
  24125809.0394    -815151.17045   -109426.85761
  21348131.8674  -13813579.74947 -10692806.34962
  23039369.523    -6632879.455 5  -3613182.02921
 91  3 20 23 51  0.0000000  0  6G18G11G19G16G 2G 6
  23164047.516    13662959.779 6  10634756.47021
  23180430.1644   -1968258.80146  -1487536.21661
  21223783.594     1134740.724 6    890893.00022
  24128084.2894    -803194.31445
  21344071.8594  -13834911.03547 -10709428.06762
  23032957.938    -6666577.517 6  -3639440.14521
 91  3 20 23 51 15.0000000  0  6G18G11G19G16G 2G 6
  23173493.844    13712599.439 6  10673436.58421
  23184858.0634   -1944980.14646  -1469397.04061
  21226173.633     1147295.883 6    900676.22322
  24130387.6804    -791129.26345
  21340026.7814  -13856168.93447 -10725992.60862
  23026544.844    -6700272.593 6  -3665695.94321
 91  3 20 23 51 30.0000000  0  6G18G11G19G16G 2G 6
  23182948.6564   13762284.90246  10712152.38161
  23189314.547    -1921567.926 6  -1451153.79421
  21228576.680     1159912.260 6    910507.15423
  24132698.2194    -778959.66245
  21335996.0084  -13877356.94347 -10742502.68862
  23020133.2734   -6733967.96146  -3691951.93961
 91  3 20 23 51 45.0000000  0  6G18G11G19G16G 2G 6
  23192413.359    13812017.844 6  10750905.19121
  23193796.445    -1898020.199 6  -1432804.96221
  21230988.1564    1172591.94746    920387.42062
  24135032.0944    -766683.58045
  21331976.055   -13898472.782 7 -10758956.53022
  23013721.7274   -6767661.45046  -3718206.51161
 91  3 20 23 52  0.0000000  0  6G18G11G19G16G 2G 6
  23201888.813    13861798.793 6  10789695.41321
  23198300.672    -1874336.498 6  -1414350.16921
  21233412.828     1185335.873 6    930317.73723
  24137386.3284    -754300.56845
  21327973.6484  -13919515.97747 -10775353.77462
  23007310.6724   -6801352.33446  -3744459.02061
 91  3 20 23 52 15.0000000  0  6G18G11G19G16G 2G 6
  23211369.188    13911627.069 6  10828522.49621
  23202831.0314   -1850517.63246  -1395790.05561
  21235849.305     1198143.437 6    940297.64023
  24139766.4614    -741811.16545
  21323981.5474  -13940487.15747 -10791694.88362
  23000898.953    -6835041.127 6  -3770709.91721
 91  3 20 23 52 30.0000000  0  6G18G11G19G16G 2G 6
  23220858.3204   13961500.84646  10867385.02561
  23207391.1954   -1826565.09946  -1377125.78161
  21238297.102     1211013.375 6    950326.14223
  24142162.6884    -729216.94245
  21320004.016   -13961387.502 7 -10807980.81223
  22994487.805    -6868729.082 5  -3796960.16621
 91  3 20 23 52 45.0000000  0  6G18G11G19G16G 2G 6
  23230358.531    14011418.262 6  10906281.56821
  23211974.664    -1802480.797 6  -1358358.83621
  21240759.367     1223944.226 6    960402.11923
  24144578.359     -716520.067 5
  21316040.0004  -13982218.84547 -10824212.97163
  22988079.109    -6902417.877 6  -3823211.06521
 91  3 20 23 53  0.0000000  0  6G18G11G19G16G 2G 6
  23239869.3284   14061383.65546  10945215.50161
  23216583.719    -1778260.245 6  -1339485.72021
  21243232.6644    1236940.73146    970529.25363
  24147008.7894    -703716.29344
  21312091.2734  -14002976.62147 -10840387.80463
  22981666.0084   -6936102.77546  -3849458.91361
 91  3 20 23 53 15.0000000  0  5G18G11G19G 2G 6
  23249385.625    14111393.567 6  10984184.12221
  23221219.0474   -1753907.07246  -1320509.26661
  21245719.0634    1249999.64946    980705.02563
  21308153.023   -14023663.967 7 -10856507.75423
  22975257.6804   -6969786.84546  -3875706.12461
 91  3 20 23 53 30.0000000  0  5G18G11G19G 2G 6
  23258904.9774   14161445.51346  11023185.48761
  23225879.320    -1729423.343 6  -1301431.08221
  21248211.7504    1263119.19746    990928.04163
  21304231.1414  -14044282.82447 -10872574.34063
  22968846.9304   -7003472.17746  -3901954.33761
 91  3 20 23 53 45.0000000  0  5G18G11G19G 2G 6
  23268440.609    14211542.108 6  11062221.64921
  23230562.172    -1704806.405 6  -1282249.09921
  21250722.406     1276302.334 6   1001200.60523
  21300319.8914  -14064830.39147 -10888585.37162
  22962438.805    -7037155.756 6  -3928201.15321
 91  3 20 23 54  0.0000000  0  5G18G11G19G 2G 6
  23277983.6644   14261685.04246  11101293.92461
  23235272.6174   -1680054.74346  -1262962.12361
  21253240.813     1289551.006 6   1011524.23123
  21296423.703   -14085304.969 7 -10904539.53523
  22956027.1174   -7070835.68746  -3954445.15561
 91  3 20 23 54 15.0000000  0  5G18G11G19G 2G 6
  23287529.8984   14311872.88346  11140401.18561
  23240006.836    -1655169.679 6  -1243571.21021
  21255776.664     1302863.930 6   1021897.92223
  21292540.578   -14105707.753 7 -10920437.75123
  22949619.852    -7104513.125 6  -3980687.20321
 91  3 20 23 54 30.0000000  0  5G18G11G19G 2G 6
  23297092.453    14362106.691 6  11179544.28021
  23244768.0944   -1630150.26846  -1224075.59861
  21258321.383     1316242.574 6   1032322.83023
  21288671.5004  -14126037.55947 -10936279.10262
  22943211.2034   -7138186.73246  -4006926.25761
 91  3 20 23 54 45.0000000  0  5G18G11G19G 2G 6
  23306661.875    14412383.618 6  11218720.95621
  23249554.6644   -1604999.08746  -1204477.31561
  21260881.9534    1329684.73546   1042797.22963
  21284816.102   -14146296.813 7 -10952065.48122
  22936803.188    -7171858.762 6  -4033164.10321
 91  3 20 23 55  0.0000000  0  5G18G11G19G 2G 6
  23316238.7894   14462705.82046  11257932.91161
  23254367.219    -1579713.943 6  -1184774.65521
  21263450.813     1343192.679 6   1053322.88623
  21280974.2974  -14166483.08347 -10967794.98162
  22930396.8674   -7205526.89446  -4059398.89261
 91  3 20 23 55 15.0000000  0  5G18G11G19G 2G 6
  23325821.023    14513070.389 6  11297177.88621
  23259203.219    -1554297.626 6  -1164969.77221
  21266034.180     1356764.297 6   1063898.15523
  21277147.3284  -14186598.98047 -10983469.65062
  22923989.703    -7239193.477 6  -4085632.49521
 91  3 20 23 55 30.0000000  0  5G18G11G19G 2G 6
  23335411.3834   14563477.32046  11336455.85661
  23264064.102    -1528750.031 6  -1145062.60221
  21268630.273     1370399.781 6   1074523.19623
  21273334.2274  -14206644.20747 -10999089.24862
  22917586.008    -7272858.317 6  -4111864.72921
 91  3 20 23 55 45.0000000  0  5G18G11G19G 2G 6
  23345014.391    14613925.115 6  11375765.67421
  23268953.555    -1503072.665 6  -1125054.30921
  21271236.125     1384097.858 6   1085197.00523
  21269531.836   -14226619.960 7 -11014654.71222
  22911178.047    -7306522.320 6  -4138096.31021
 91  3 20 23 56  0.0000000  0  5G18G11G19G 2G 6
  23354621.7974   14664415.57046  11415108.73261
  23273861.828    -1477263.841 6  -1104943.58921
  21273854.219     1397860.647 6   1095921.24123
  21265744.0234  -14246524.57247 -11030164.74162
  22904771.922    -7340183.676 6  -4164325.83121
 91  3 20 23 56 15.0000000  0  5G18G11G19G 2G 6
  23364236.500    14714946.704 6  11454483.50321
  23278798.9454   -1451325.43346  -1084731.89061
  21276487.023     1411686.643 6   1106694.73023
  21261969.1174  -14266359.71147 -11045620.63362
  22898365.695    -7373843.842 6  -4190554.42221
 91  3 20 23 56 30.0000000  0  5G18G11G19G 2G 6
  23373862.1024   14765522.24446  11493892.87361
  23283759.0704   -1425253.81546  -1064416.37561
  21279131.930     1425579.794 6   1117520.55123
  21258208.242   -14286121.354 7 -11061019.26022
  22891963.6334   -7407499.02546  -4216779.11661
 91  3 20 23 56 45.0000000  0  5G18G11G19G 2G 6
  23383491.6334   14816136.95646  11533332.76161
  23288744.992    -1399053.842 6  -1044000.87721
  21281784.617     1439535.460 6   1128395.07923
  21254459.8754  -14305814.18047 -11076364.26262
  22885558.586    -7441153.729 6  -4243003.45321
 91  3 20 23 57  0.0000000  0  5G18G11G19G 2G 6
  23393132.500    14866800.782 6  11572810.92621
  23293758.5944   -1372715.69746  -1023477.71661
  21284456.266     1453563.879 6   1139326.30123
  21250728.336   -14325428.246 7 -11091647.90122
  22879156.8674   -7474797.77846  -4269219.48161
 91  3 20 23 57 15.0000000  0  5G18G11G19G 2G 6
  23402784.0394   14917503.18946  11612319.14961
  23298793.570    -1346249.928 6  -1002855.08721
  21287135.227     1467654.797 6   1150306.22123
  21247009.227   -14344973.960 7 -11106878.28022
  22872754.328    -7508441.552 6  -4295435.30021
 91  3 20 23 57 29.9990000  0  5G18G11G19G 2G 6
  23412440.823    14968242.629 6  11651856.22021
  23303854.4014   -1319656.44746   -982132.93461
  21289831.003     1481809.584 6   1161335.90522
  21243303.190   -14364447.818 7 -11122052.66522
  22866351.620    -7542080.454 6  -4321647.31921
 91  3 20 23 57 44.9990000  0  5G18G11G19G 2G 6
  23422099.9014   15019027.59046  11691428.76361
  23308939.394    -1292929.896 6   -961307.10421
  21292537.198     1496032.173 6   1172418.42422
  21239612.065   -14383850.447 7 -11137171.54823
  22859951.042    -7575716.966 6  -4347857.48521
 91  3 20 23 57 59.9990000  0  5G18G11G19G 2G 6
  23431770.901    15069852.328 6  11731032.30821
  23314050.0264   -1266074.28446   -940380.70861
  21295254.386     1510319.563 6   1183551.43822
  21235932.105   -14403182.591 7 -11152235.51223
  22853551.105    -7609350.744 6  -4374065.50821
 91  3 20 23 58 14.9990000  0  5G18G11G19G 2G 6
  23441452.534    15120719.546 6  11770668.94721
  23319185.355    -1239086.901 6   -919351.63721
  21297987.425     1524674.983 6   1194737.46322
  21232267.956   -14422441.289 7 -11167242.23623
  22847153.5344   -7642978.72246  -4400269.03561
 91  3 20 23 58 29.9990000  0  5G18G11G19G 2G 6
  23451141.206    15171624.255 6  11810334.80221
  23324346.4644   -1211972.85946   -898223.84561
  21300730.276     1539093.513 6   1205972.66522
  21228615.401   -14441631.408 7 -11182195.52522
  22840751.503    -7676605.653 6  -4426471.72521
 91  3 20 23 58 44.9990000  0  5G18G11G19G 2G 6
  23460836.2534   15222563.02946  11850027.20061
  23329530.214    -1184735.497 6   -876999.98221
  21303485.667     1553572.262 6   1217254.79123
  21224976.370   -14460756.195 7 -11197097.90223
  22834356.565    -7710234.650 6  -4452676.03221
 91  3 20 23 58 59.9990000  0  5G18G11G19G 2G 6
  23470535.6284   15273538.89646  11889748.50861
  23334737.026    -1157371.697 6   -855677.59321
  21306250.401     1568114.784 6   1228586.60823
  21221349.4644  -14479812.41547 -11211946.84662
  22827953.331    -7743862.299 6  -4478879.27421
 91  3 20 23 59 14.9990000  0  5G18G11G19G 2G 6
  23480243.1204   15324551.48445  11929498.42361
  23339967.511    -1129881.783 6   -834256.94021
  21309033.222     1582721.033 6   1239968.08522
  21217735.159   -14498800.108 7 -11226742.40522
  22821555.948    -7777488.493 6  -4505081.40321
 91  3 20 23 59 29.9990000  0  5G18G11G19G 2G 6
  23489957.745    15375604.883 6  11969280.13621
  23345223.1834   -1102261.64846   -812734.79661
  21311826.972     1597395.394 6   1251402.63723
  21214137.230   -14517714.761 7 -11241481.04322
  22815159.8084   -7811108.75946  -4531278.89361
 91  3 20 23 59 44.9990000  0  5G18G11G19G 2G 6
  23499679.2694   15426690.53245  12009086.99261
  23350504.1674   -1074519.91446   -791117.89461
  21314630.526     1612129.658 6   1262883.85422
  21210551.003   -14536564.978 7 -11256169.47322
  22808757.136    -7844731.399 6  -4557478.24421
 91  3 20 23 59 59.9990000  0  5G18G11G19G 2G 6
  23509408.745    15477812.921 6  12048922.46621
  23355806.183    -1046651.875 6   -769402.58421
  21317443.300     1626928.747 6   1274415.59222
  21206976.730   -14555345.662 7 -11270803.72322
  22802361.612    -7878351.498 6  -4583675.62021
 91  3 21  0  0 14.9990000  0  5G18G11G19G 2G 6
  23519141.878    15528972.978 6  12088787.28721
  23361134.050    -1018656.838 6   -747588.31421
  21320271.651     1641793.656 6   1285998.62122
  21203415.776   -14574055.991 7 -11285383.15222
  22795965.2764   -7911967.96546  -4609870.15261
 91  3 21  0  0 29.9990000  0  5G18G11G19G 2G 6
  23528884.5814   15580171.40346  12128682.01761
  23366483.0894    -990533.76846   -725674.28461
  21323116.206     1656725.961 6   1297634.16822
  21199869.175   -14592694.785 7 -11299906.83622
  22789569.573    -7945579.460 6  -4636060.81521
 91  3 21  0  0 44.9990000  0  5G18G11G19G 2G 6
  23538637.2224   15631408.95046  12168607.23061
  23371860.276     -962282.010 6   -703659.97821
  21325969.214     1671726.597 6   1309322.96222
  21196335.519   -14611261.254 7 -11314374.16722
  22783172.2764   -7979185.10046  -4662246.92361
 91  3 21  0  0 59.9990000  0  5G18G11G19G 2G 6
  23548393.526    15682677.412 6  12208556.52821
  23377260.683     -933909.743 6   -681551.76721
  21328834.190     1686787.652 6   1321058.83522
  21192814.206   -14629763.304 7 -11328791.30322
  22776775.276    -8012792.546 6  -4688434.43521
 91  3 21  0  1 14.9990000  0  5G18G11G19G 2G 6
  23558156.3624   15733985.42045  12248536.64461
  23382684.9724    -905408.36246   -659342.94461
  21331714.058     1701917.919 6   1332848.64122
  21189308.034   -14648191.986 7 -11343151.27122
  22770383.128    -8046393.025 6  -4714616.52621
 91  3 21  0  1 29.9990000  0  5G18G11G19G 2G 6
  23567924.565    15785327.824 5  12288543.56821
  23388130.948     -876782.840 6   -637037.39021
  21334605.237     1717113.018 6   1344688.96222
  21185813.675   -14666552.213 7 -11357457.89522
  22763989.3784   -8079991.12946  -4740796.75661
 91  3 21  0  1 44.9990000  0  5G18G11G19G 2G 6
  23577702.401    15836708.745 5  12328580.50921
  23393602.144     -848029.178 6   -614631.99621
  21337509.128     1732377.308 6   1356583.19822
  21182334.1054  -14684839.67247 -11371707.82562
  22757599.9724   -8113582.44546  -4766971.71761
 91  3 21  0  1 59.9990000  0  5G18G11G19G 2G 6
  23587484.534    15888124.180 5  12368644.32021
  23399099.3624    -819151.24646   -592129.74661
  21340427.573     1747707.255 6   1368528.59922
  21178868.675   -14703058.078 7 -11385903.93222
  22751207.112    -8147170.460 6  -4793144.09221
 91  3 21  0  2 14.9990000  0  5G18G11G19G 2G 6
  23597276.3864   15939574.23345  12408735.13161
  23404615.534     -790149.231 6   -569530.83121
  21343356.839     1763102.954 6   1380525.22622
  21175413.5894  -14721207.31047 -11400046.15362
  22744815.339    -8180755.035 6  -4819313.78821
 91  3 21  0  2 29.9990000  0  5G18G11G19G 2G 6
  23607074.9954   15991054.38745  12448849.38161
  23410159.183     -761027.383 6   -546838.53621
  21346298.972     1778560.589 6   1392570.12122
  21171972.605   -14739291.371 7 -11414137.57722
  22738424.3234   -8214339.97546  -4845483.78061
 91  3 21  0  2 44.9990000  0  5G18G11G19G 2G 6
  23616880.9644   16042575.83946  12488995.80761
  23415725.6284    -731774.38646   -524044.05961
  21349252.612     1794091.697 6   1404672.26022
  21168546.175   -14757298.840 7 -11428169.33122
  22732037.8234   -8247913.79446  -4871645.09361
 91  3 21  0  2 59.9990000  0  5G18G11G19G 2G 6
  23626691.7374   16094130.35946  12529168.03361
  23421318.1444    -702398.43746   -501153.76061
  21352221.698     1809688.297 6   1416825.43522
  21165132.292   -14775237.873 7 -11442147.74622
  22725647.6364   -8281484.42746  -4897803.92161
 91  3 21  0  3 14.9990000  0  5G18G11G19G 2G 6
  23636507.644    16145719.155 6  12569366.92121
  23426930.878     -672898.350 6   -478166.73421
  21355202.792     1825352.098 6   1429030.98222
  21161731.261   -14793107.003 7 -11456071.69722
  22719261.2614   -8315050.23846  -4923959.00361
 91  3 21  0  3 29.9990000  0  5G18G11G19G 2G 6
  23646330.1904   16197342.77346  12609592.95761
  23432565.7924    -643273.76446   -455082.69961
  21358194.894     1841083.895 6   1441289.50322
  21158344.425   -14810905.459 7 -11469940.58522
  22712872.9724   -8348610.51746  -4950109.78261
 91  3 21  0  3 44.9990000  0  5G18G11G19G 2G 6
  23656156.276    16248998.397 5  12649843.93521
  23438227.1124    -613527.31646   -431903.70461
  21361199.839     1856881.312 6   1453599.16422
  21154970.886   -14828635.557 7 -11483756.19922
  22706489.0034   -8382167.44746  -4976257.94161
 91  3 21  0  3 59.9990000  0  5G18G11G19G 2G 6
  23665996.1754   16300687.80545  12690121.23261
  23443910.1444    -583657.48246   -408628.57361
  21364221.714     1872746.107 6   1465961.32622
  21151610.909   -14846295.708 7 -11497517.30222
  22700101.0894   -8415719.28246  -5002402.14561
 91  3 21  0  4 14.9990000  0  5G18G11G19G 2G 6
  23675841.292    16352404.322 6  12730419.66521
  23449614.362     -553670.591 6   -385262.22021
  21367251.425     1888672.327 6   1478371.35022
  21148260.800   -14863891.845 7 -11511228.53322
  22693719.9874   -8449271.90246  -5028546.95561
 91  3 21  0  4 29.9990000  0  5G18G11G19G 2G 6
  23685686.6514   16404148.54446  12770739.66961
  23455346.8234    -523566.00446   -361804.15661
  21370297.120     1904661.072 6   1490830.08722
  21144924.917   -14881423.360 7 -11524889.40922
  22687330.2844   -8482824.30646  -5054691.58561
 91  3 21  0  4 44.9990000  0  5G18G11G19G 2G 6
  23695537.987    16455924.034 5  12811084.04821
  23461095.5264    -493340.42346   -338251.82461
  21373349.651     1920716.235 6   1503340.58723
  21141602.026   -14898886.560 7 -11538497.05122
  22680949.8474   -8516372.78946  -5080833.17161
 91  3 21  0  4 59.9990000  0  5G18G11G19G 2G 6
  23705396.519    16507731.555 5  12851453.38621
  23466874.261     -462993.060 6   -314604.58521
  21376418.659     1936838.564 6   1515903.41723
  21138292.808   -14916280.536 7 -11552050.74822
  22674564.2454   -8549916.22146  -5106970.80861
 91  3 21  0  5 14.9990000  0  5G18G11G19G 2G 6
  23715261.8704   16559568.30646  12891845.49761
  23472672.5264    -432526.52946   -290864.49761
  21379498.495     1953026.064 6   1528517.03122
  21134994.144   -14933607.600 7 -11565552.31322
  22668183.5584   -8583456.85046  -5133106.26961
 91  3 21  0  5 29.9990000  0  5G18G11G19G 2G 6
  23725129.2764   16611432.40646  12932258.92161
  23478491.1754    -401942.72846   -267033.00961
  21382592.308     1969277.167 6   1541180.20922
  21131710.058   -14950869.295 7 -11579002.94122
  22661798.8944   -8616996.24546  -5159240.77061
 91  3 21  0  5 44.9990000  0  5G18G11G19G 2G 6
  23735004.7224   16663325.80246  12972695.18661
  23484334.9954    -371239.56246   -243108.53061
  21385696.019     1985594.076 6   1553894.66423
  21128437.972   -14968063.522 7 -11592400.99422
  22655418.7304   -8650532.03246  -5185372.45661
 91  3 21  0  5 59.9990000  0  5G18G11G19G 2G 6
  23744886.237    16715249.095 6  13013154.73321
  23490199.769     -340416.516 6   -219090.62821
  21388814.315     2001977.747 6   1566661.13722
  21125179.276   -14985189.447 7 -11605745.82622
  22649040.2844   -8684063.15346  -5211500.51661
 91  3 21  0  6 14.9990000  0  5G18G11G19G 2G 6
  23754771.128    16767203.273 5  13053638.34321
  23496087.3864    -309472.58946   -194978.52661
  21391944.136     2018429.519 6   1579480.68322
  21121933.769   -15002245.897 7 -11619036.52422
  22642656.8084   -8717588.45046  -5237624.03161
 91  3 21  0  6 29.9990000  0  5G18G11G19G 2G 6
  23764665.0584   16819190.27945  13094147.53661
  23501998.5974    -278405.97946   -170770.85061
  21395088.9334    2034951.71446   1592355.09362
  21118702.940   -15019230.716 8 -11632271.40522
  22636280.9254   -8751105.51346  -5263741.12761
 91  3 21  0  6 44.9990000  0  5G18G11G19G 2G 6
  23774565.4874   16871208.72145  13134681.22861
  23507934.5974    -247217.95146   -146468.55661
  21398244.8624    2051543.34846   1605283.61162
  21115482.0584  -15036145.09447 -11645451.40062
  22629900.378    -8784615.384 6  -5289852.61421
 91  3 21  0  6 59.9990000  0  5G18G11G19G 2G 6
  23784467.4484   16923255.34745  13175236.88061
  23513893.730     -215911.724 6   -122074.14421
  21401415.597     2068201.690 6   1618264.11622
  21112276.425   -15052991.902 7 -11658578.73722
  22623529.6054   -8818120.84346  -5315960.67061
 91  3 21  0  7 14.9990000  0  5G18G11G19G 2G 6
  23794378.1594   16975327.99245  13215812.80361
  23519872.0034    -184489.59046    -97589.41961
  21404596.901     2084924.606 6   1631294.93522
  21109083.230   -15069773.357 7 -11671655.15522
  22617151.870    -8851623.814 6  -5342066.77921
 91  3 21  0  7 29.9990000  0  5G18G11G19G 2G 6
  23804291.362    17027430.953 5  13256412.35521
  23525874.105     -152947.271 6    -73011.03821
  21407792.386     2101716.699 6   1644379.65422
  21105901.440   -15086484.820 7 -11684677.02023
  22610778.6834   -8885119.70646  -5368167.38761
 91  3 21  0  7 44.9990000  0  5G18G11G19G 2G 6
  23814208.3474   17079559.65145  13297031.93461
  23531898.355     -121289.203 6    -48342.46521
  21411000.8234    2118573.92146   1657515.12662
  21102735.339   -15103130.587 7 -11697647.71222
  22604404.8314   -8918612.57446  -5394265.62361
 91  3 21  0  7 59.9990000  0  5G18G11G19G 2G 6
  23824134.792    17131717.062 5  13337673.90821
  23537944.6444     -89512.50346    -23581.46161
  21414225.667     2135499.459 6   1670703.83422
  21099580.855   -15119707.485 7 -11710564.73123
  22598033.3944   -8952099.13546  -5420358.96461
 91  3 21  0  8 14.9990000  0  5G18G11G19G 2G 6
  23834067.5654   17183903.81945  13378338.76561
  23544013.8624     -57616.42046      1272.56261
  21417455.339     2152494.544 6   1683946.73922
  21096439.737   -15136214.640 7 -11723427.40423
  22591662.378    -8985578.314 6  -5446446.52821
 91  3 21  0  8 29.9990000  0  5G18G11G19G 2G 6
  23844005.8704   17236122.05545  13419028.13261
  23550104.9254     -25598.93446     26221.18061
  21420703.097     2169561.669 6   1697245.77222
  21093312.956   -15152649.558 7 -11736233.79123
  22585292.7224   -9019047.56446  -5472526.36961
 91  3 21  0  8 44.9990000  0  5G18G11G19G 2G 6
  23853947.7924   17288365.04045  13459736.79061
  23556222.4804       6533.32946     51259.24461
  21423963.901     2186694.606 6   1710596.09322
  21090197.112   -15169018.708 7 -11748988.93123
  22578923.534    -9052513.149 6  -5498603.34621
 91  3 21  0  8 59.9990000  0  5G18G11G19G 2G 6
  23863890.565    17340636.093 5  13500467.31021
  23562358.409       38783.561 6     76389.22121
  21427242.136     2203896.688 6   1724000.29522
  21087093.995   -15185318.761 7 -11761690.22623
  22572558.5654   -9085971.50546  -5524674.68961
 91  3 21  0  9 14.9990000  0  5G18G11G19G 2G 6
  23873845.909    17392932.463 5  13541217.57021
  23568518.3314      71148.79946    101608.82661
  21430523.3154    2221165.50746   1737456.49362
  21084005.769   -15201552.343 7 -11774339.72423
  22566189.339    -9119425.135 6  -5550742.35221
 91  3 21  0  9 29.9990000  0  5G18G11G19G 2G 6
  23883804.5814   17445257.24445  13581989.96461
  23574699.1984     103632.46546    126920.71961
  21433827.651     2238504.603 6   1750967.45322
  21080929.581   -15217715.903 7 -11786934.65723
  22559825.034    -9152870.477 6  -5576803.55921
 91  3 21  0  9 44.9990000  0  5G18G11G19G 2G 6
  23893765.8474   17497602.28345  13622778.13561
  23580899.901      136226.492 6    152318.60221
  21437134.980     2255906.386 6   1764527.26422
  21077866.237   -15233817.318 7 -11799481.16723
  22553461.855    -9186315.052 6  -5602864.16521
 91  3 21  0  9 59.9990000  0  5G18G11G19G 2G 6
  23903731.394    17549975.797 5  13663588.49821
  23587127.5584     168939.21546    177808.97461
  21440463.175     2273379.421 6   1778142.58922
  21074815.362   -15249848.175 7 -11811972.70323
  22547099.9254   -9219750.20146  -5628917.41361
 91  3 21  0 10 14.9990000  0  5G18G11G19G 2G 6
  23913704.409    17602373.422 5  13704417.66321
  23593372.6284     201765.94646    203388.17861
  21443796.690     2290919.598 6   1791810.24222
  21071778.003   -15265812.691 7 -11824412.54322
  22540739.948    -9253180.154 6  -5654966.61921
 91  3 21  0 10 29.9990000  0  5G18G11G19G 2G 6
  23923678.933    17654795.126 5  13745265.57521
  23599641.6444     234706.74546    229056.27561
  21447147.042     2308527.477 6   1805530.64622
  21068752.7064  -15281710.45147 -11836800.36562
  22534377.183    -9286604.410 6  -5681011.39221
 91  3 21  0 10 44.9990000  0  5G18G11G19G 2G 6
  23933659.261    17707241.640 5  13786132.82421
  23605932.1904     267762.04646    254813.57861
  21450511.394     2326203.650 6   1819304.26922
  21065740.5504  -15297540.83047 -11849135.68562
  22528019.3314   -9320022.12446  -5707051.06761
 91  3 21  0 10 59.9990000  0  5G18G11G19G 2G 6
  23943645.370    17759713.024 5  13827019.45021
  23612245.4564     300932.15046    280660.35061
  21453889.831     2343948.699 6   1833131.56122
  21062740.050   -15313303.246 7 -11861418.04222
  22521659.667    -9353432.662 6  -5733085.14021
 91  3 21  0 11 14.9990000  0  5G18G11G19G 2G 6
  23953633.4094   17812206.93145  13867923.62761
  23618578.7454     334214.74746    306594.77161
  21457277.144     2361760.893 6   1847011.17022
  21059754.339   -15328999.906 7 -11873649.16522
  22515303.800    -9386837.944 6  -5759115.13221
 91  3 21  0 11 29.9990000  0  5G18G11G19G 2G 6
  23963622.6594   17864721.71345  13908844.08261
  23624931.019      367607.983 6    332615.42021
  21460680.3554    2379638.81546   1860941.98862
  21056778.073   -15344632.287 7 -11885830.19922
  22508947.206    -9420239.282 6  -5785142.03921
 91  3 21  0 11 44.9990000  0  5G18G11G19G 2G 6
  23973622.589    17917260.745 5  13949783.41421
  23631310.589      401115.227 6    358724.90221
  21464096.089     2397585.965 6   1874926.76422
  21053816.2304  -15360196.92447 -11897958.44863
  22502593.7924   -9453633.00746  -5811163.01061
 91  3 21  0 11 59.9990000  0  5G18G11G19G 2G 6
  23983625.511    17969822.381 5  13990740.38021
  23637707.0114     434734.86146    384921.96261
  21467527.190     2415601.077 6   1888964.49522
  21050867.2614  -15375695.08547 -11910034.90062
  22496238.003    -9487020.436 6  -5837179.08521
 91  3 21  0 12 14.9990000  0  5G18G11G19G 2G 6
  23993630.073    18022406.990 5  14031715.23121
  23644125.7764     468467.58946    411207.13761
  21470964.198     2433685.434 6   1903056.18622
  21047930.6284  -15391125.85347 -11922058.83362
  22489885.347    -9520400.372 6  -5863189.31821
 91  3 21  0 12 29.9990000  0  5G18G11G19G 2G 6
  24003640.659    18075016.714 5  14072709.65721
  23650568.800      502315.267 6    437581.88321
  21474419.105     2451841.135 6   1917203.46722
  21045007.6364  -15406487.13547 -11934028.63063
  22483535.292    -9553770.489 6  -5889191.90421
 91  3 21  0 12 44.9990000  0  5G18G11G19G 2G 6
  24013660.4724   18127644.67945  14113718.31061
  23657028.597      536270.894 6    464040.73021
  21477886.097     2470061.578 6   1931401.20222
  21042096.175   -15421785.591 7 -11945949.46223
  22477186.261    -9587137.280 6  -5915191.89021
 91  3 21  0 12 59.9990000  0  5G18G11G19G 2G 6
  24023678.6834   18180291.76645  14154741.85761
  23663509.8554     570335.37346    490584.41161
  21481367.136     2488348.033 6   1945650.36622
  21039196.5504  -15437020.10047 -11957820.47062
  22470837.097    -9620499.621 6  -5941188.41621
 91  3 21  0 13 14.9990000  0  5G18G11G19G 2G 6
  24033698.839    18232961.494 5  14195783.03821
  23670015.901      604512.356 6    517215.75421
  21484859.792     2506704.487 6   1959954.07422
  21036311.9874  -15452186.87247 -11969638.69663
  22464491.0504   -9653853.37846  -5967178.26061
 91  3 21  0 13 29.9990000  0  5G18G11G19G 2G 6
  24043724.8944   18285652.69345  14236840.93061
  23676538.5584     638800.55846    543933.77061
  21488365.972     2525129.842 6   1974311.46922
  21033437.7374  -15467286.86547 -11981404.89063
  22458146.644    -9687199.493 6  -5993162.14921
 91  3 21  0 13 44.9990000  0  5G18G11G19G 2G 6
  24053756.784    18338363.043 5  14277913.77321
  23683084.253      673197.767 6    570736.73721
  21491885.276     2543622.571 6   1988721.37422
  21030575.8234  -15482322.14747 -11993120.65963
  22451801.011    -9720539.670 6  -6019141.40121
 91  3 21  0 13 59.9990000  0  5G18G11G19G 2G 6
  24063791.6904   18391097.11045  14319005.08061
  23689654.1594     707708.34246    597628.03361
  21495418.0584    2562187.32246   2003187.40262
  21027727.4954  -15497288.10047 -12004782.40163
  22445457.331    -9753869.093 6  -6045112.27021
 91  3 21  0 14 14.9990000  0  5G18G11G19G 2G 6
  24073831.464    18443853.152 5  14360113.54821
  23696240.698      742330.708 6    624606.44621
  21498962.120     2580822.850 6   2017708.57822
  21024893.2614  -15512185.92247 -12016391.05763
  22439118.4874   -9787189.00746  -6071075.74861
 91  3 21  0 14 29.9990000  0  5G18G11G19G 2G 6
  24083873.925    18496628.975 5  14401237.39921
  23702851.8084     777062.77146    651670.32961
  21502525.386     2599527.414 6   2032283.54522
  21022071.3944  -15527017.46747 -12027948.06563
  22432780.0264   -9820501.12646  -6097033.13861
 91  3 21  0 14 44.9990000  0  5G18G11G19G 2G 6
  24093924.120    18549423.290 5  14442375.64321
  23709482.4174     811902.98346    678818.48861
  21506096.112     2618299.811 6   2046911.37422
  21019261.6674  -15541784.19047 -12039454.56563
  22426442.5654   -9853806.59246  -6122985.35961
 91  3 21  0 14 59.9990000  0  5G18G11G19G 2G 6
  24103973.8864   18602236.71545  14483528.80861
  23716132.5894     846851.71746    706051.18561
  21509683.144     2637140.887 6   2061592.72022
  21016464.3554  -15556485.35747 -12050909.98163
  22420103.339    -9887104.492 6  -6148931.67521
 91  3 21  0 15 14.9990000  0  5G18G11G19G 2G 6
  24114028.589    18655069.043 5  14524696.68221
  23722801.4174     881909.01446    733368.49561
  21513281.081     2656050.996 6   2076327.84722
  21013679.3864  -15571120.63147 -12062314.05663
  22413769.198    -9920394.536 6  -6174871.85521
 91  3 21  0 15 29.9990000  0  5G18G11G19G 2G 6
  24124087.901    18707916.859 5  14565876.62121
  23729492.9874     917071.37946    760767.68161
  21516892.511     2675027.140 6   2091114.44023
  21010905.1444  -15585693.20747 -12073669.27163
  22407435.6204   -9953679.61846  -6200808.18861
 91  3 21  0 15 44.9990000  0  5G18G11G19G 2G 6
  24134142.2614   18760781.83445  14607069.95361
  23736204.378      952340.657 6    788250.18021
  21520515.042     2694071.445 6   2105954.14122
  21008145.0424  -15600201.01247 -12084974.01563
  22401104.4644   -9986957.54246  -6226738.94361
 91  3 21  0 15 59.9990000  0  5G18G11G19G 2G 6
  24144210.0974   18813666.57145  14648278.65361
  23742934.8474     987719.44446    815818.00061
  21524154.362     2713186.896 6   2120849.27823
  21005396.8004  -15614641.31247 -12096226.16163
  22394772.0974  -10020225.18846  -6252661.69361
 91  3 21  0 16 14.9990000  0  5G18G11G19G 2G 6
  24154274.2764   18866566.67745  14689499.35961
  23749690.2224    1023203.04546    843467.51661
  21527803.589     2732369.294 6   2135796.58123
  21002661.5504  -15629018.48147 -12107429.11363
  22388442.347   -10053486.904 6  -6278579.81321
 91  3 21  0 16 29.9990000  0  5G18G11G19G 2G 6
  24164346.355    18919487.553 5  14730736.25121
  23756462.8154    1058796.83646    871202.87361
  21531469.597     2751624.249 6   2150800.42022
  20999938.5814  -15643327.06747 -12118578.62063
  22382115.7764  -10086736.78746  -6304488.71061
 91  3 21  0 16 44.9990000  0  5G18G11G19G 2G 6
  24174418.3314   18972426.38245  14771987.10261
  23763255.3314    1094497.90746    899021.82561
  21535143.534     2770949.115 6   2165858.74323
  20997229.7144  -15657569.62647 -12129676.68263
  22375790.6284  -10119977.41846  -6330390.40661
 91  3 21  0 16 59.9990000  0  5G18G11G19G 2G 6
  24184492.542    19025383.930 5  14813252.56021
  23770068.3154    1130307.09046    926925.01861
  21538837.112     2790345.220 6   2180972.57222
  20994530.8624  -15671744.96448 -12140722.36563
  22369466.3704  -10153207.44646  -6356283.84761
 91  3 21  0 17 14.9990000  0  5G18G11G19G 2G 6
  24194574.480    19078354.785 5  14854528.42121
  23776902.8784    1166218.93146    954908.19961
  21542538.987     2809807.414 6   2196137.90122
  20991845.651   -15685858.266 7 -12151719.70023
  22363142.0424  -10186431.94146  -6382172.96361
 91  3 21  0 17 29.9990000  0  5G18G11G19G 2G 6
  24204659.1204   19131341.52445  14895816.62161
  23783757.464     1202236.192 6    982973.52121
  21546255.995     2829339.021 6   2211357.31422
  20989170.8944  -15699906.57047 -12162666.39563
  22356822.894   -10219647.738 6  -6408055.29821
 91  3 21  0 17 44.9990000  0  5G18G11G19G 2G 6
  24214741.597    19184345.372 5  14937118.13121
  23790631.472     1238359.902 6   1011121.81121
  21549985.151     2848941.306 6   2226631.80122
  20986510.3864  -15713888.61747 -12173561.46163
  22350503.9094  -10252853.36046  -6433929.71361
 91  3 21  0 17 59.9990000  0  5G18G11G19G 2G 6
  24224833.0194   19237365.46245  14978432.35561
  23797526.737     1274589.188 6   1039352.35921
  21553729.222     2868613.933 6   2241961.10222
  20983862.9174  -15727805.00247 -12184405.36263
  22344187.5584  -10286049.27546  -6459796.57861
 91  3 21  0 18 14.9990000  0  5G18G11G19G 2G 6
  24234929.722    19290400.771 5  15019758.38821
  23804442.573     1310922.973 6   1067664.34621
  21557485.612     2888356.039 6   2257344.54522
  20981227.2224  -15741656.64647 -12195198.80963
  22337870.5424  -10319236.05146  -6485656.30861
 91  3 21  0 18 29.9990000  0  5G18G11G19G 2G 6
  24245023.792    19343449.621 5  15061095.00921
  23811376.480     1347359.670 6   1096056.54021
  21561257.065     2908166.540 6   2272781.27822
  20978602.6674  -15755444.80347 -12205942.79263
  22331559.034   -10352414.801 6  -6511509.78021
 91  3 21  0 18 44.9990000  0  5G18G11G19G 2G 6
  24255121.3004   19396516.94045  15102446.00861
  23818328.761     1383904.194 6   1124532.74221
  21565038.839     2928050.668 6   2288275.38422
  20975992.0814  -15769164.30247 -12216633.27463
  22325245.0504  -10385580.20446  -6537352.85861
 91  3 21  0 18 59.9990000  0  5G18G11G19G 2G 6
  24265226.011    19449595.443 5  15143805.69421
  23825303.0974    1420549.09546   1153087.14661
  21568836.050     2948001.289 6   2303821.30822
  20973392.1364  -15782822.37047 -12227275.88763
  22318936.4564  -10418739.17946  -6563190.93061
 91  3 21  0 19 14.9990000  0  5G18G11G19G 2G 6
  24275328.175    19502686.009 5  15185174.80821
  23832296.6904    1457295.13146   1181720.35761
  21572644.440     2968019.696 6   2319420.04522
  20970805.3864  -15796417.99147 -12237869.83363
  22312626.4484  -10451890.66146  -6589023.16361
 91  3 21  0 19 29.9990000  0  5G18G11G19G 2G 6
  24285431.4564   19555788.34245  15226553.08561
  23839305.5584    1494142.03946   1210432.16861
  21576467.565     2988105.820 6   2335071.55222
  20968230.7844  -15809951.22047 -12248415.16963
  22306321.503   -10485034.508 6  -6614849.46021
 91  3 21  0 19 44.9990000  0  4G11G19G 2G 6
  23846338.581     1531091.105 6   1239223.56521
  21580301.730     3008261.305 6   2350777.10522
  20965668.9174  -15823420.29747 -12258910.51463
  22300014.9334  -10518168.79646  -6640668.28661
 91  3 21  0 19 59.9990000  0  4G11G19G 2G 6
  23853390.886     1568146.496 6   1268097.85021
  21584152.917     3028490.800 6   2366540.32522
  20963115.487   -15836820.996 7 -12269352.57723
  22293712.042   -10551289.089 6  -6666476.23221
 91  3 21  0 20 14.9990000  0  4G11G19G 2G 6
  23860462.0894    1605305.88746   1297053.15261
  21588015.823     3048792.368 6   2382359.70722
  20960580.026   -15850155.341 7 -12279742.93423
  22287413.7924  -10584397.29146  -6692274.74961
 91  3 21  0 20 29.9990000  0  4G11G19G 2G 6
  23867551.956     1642563.215 6   1326084.78721
  21591895.636     3069160.232 6   2398230.75422
  20958052.886   -15863429.155 7 -12290086.12223
  22281114.401   -10617498.782 6  -6718068.03521
 91  3 21  0 20 44.9990000  0  4G11G19G 2G 6
  23874661.4014    1679920.40446   1355194.22761
  21595779.933     3089596.548 6   2414155.13222
  20955539.6364  -15876640.34547 -12300380.51163
  22274818.0654  -10650591.39146  -6743854.38861
 91  3 21  0 20 59.9990000  0  4G11G19G 2G 6
  23881786.651     1717379.974 6   1384383.43521
  21599681.105     3110104.432 6   2430135.28022
  20953038.5034  -15889785.84447 -12310623.72363
  22268522.144   -10683672.008 6  -6769631.41021
 91  3 21  0 21 14.9990000  0  4G11G19G 2G 6
  23888935.230     1754938.841 6   1413649.99921
  21603600.284     3130681.302 6   2446169.18322
  20950549.5264  -15902868.39647 -12320817.87463
  22262227.940   -10716743.299 6  -6795401.16221
 91  3 21  0 21 29.9990000  0  4G11G19G 2G 6
  23896101.6054    1792597.75846   1442994.55961
  21607533.120     3151328.246 6   2462257.68622
  20948071.3004  -15915887.23547 -12330962.38363
  22255937.0114  -10749804.01646  -6821162.65961
 91  3 21  0 21 44.9990000  0  4G11G19G 2G 6
  23903286.300     1830356.883 6   1472417.20021
  21611469.909     3172045.765 6   2478401.18222
  20945607.1984  -15928842.01047 -12341056.97863
  22249648.4874  -10782853.57846  -6846915.47161
 91  3 21  0 21 59.9990000  0  4G11G19G 2G 6
  23910490.0734    1868213.17346   1501915.53761
  21615429.019     3192831.015 6   2494597.45822
  20943152.0654  -15941735.56647 -12351103.86763
  22243361.1984  -10815894.68546  -6872661.69661
 91  3 21  0 22 14.9990000  0  4G11G19G 2G 6
  23917713.144     1906172.604 6   1531494.24721
  21619395.112     3213690.592 6   2510851.65422
  20940712.5194  -15954561.39947 -12361097.98863
  22237076.269   -10848920.754 6  -6898396.21221
 91  3 21  0 22 29.9990000  0  4G11G19G 2G 6
  23924953.6054    1944227.33646   1561147.22361
  21623380.323     3234616.918 6   2527157.86122
  20938283.214   -15967327.231 7 -12371045.34723
  22230790.5894  -10881939.17946  -6924124.76761
 91  3 21  0 22 44.9990000  0  4G11G19G 2G 6
  23932215.003     1982383.939 5   1590879.56521
  21627374.151     3255616.824 6   2543521.39622
  20935867.6444  -15980026.34047 -12380940.71463
  22224511.0344  -10914942.94646  -6949841.90061
 91  3 21  0 22 59.9990000  0  4G11G19G 2G 6
  23939497.3864    2020638.13545   1620687.97061
  21631383.315     3276686.384 6   2559939.21422
  20933461.2764  -15992662.79347 -12390787.26563
  22218231.644   -10947935.996 6  -6975550.68921
 91  3 21  0 23 14.9990000  0  4G11G19G 2G 6
  23946796.175     2058991.489 5   1650573.61221
  21635405.042     3297827.675 6   2576412.92422
  20931067.6054  -16005234.39047 -12400583.27263
  22211958.7924  -10980916.12946  -7001249.40861
 91  3 21  0 23 29.9990000  0  4G11G19G 2G 6
  23954110.0814    2097443.55345   1680536.20461
  21639444.917     3319040.576 6   2592942.43222
  20928689.6054  -16017741.43947 -12410328.99463
  22205682.097   -11013883.374 6  -7026938.08721
 91  3 21  0 23 44.9990000  0  4G11G19G 2G 6
  23961450.3004    2135991.61246   1710573.58161
  21643492.776     3340322.890 6   2609526.02722
  20926319.9484  -16030186.28847 -12420026.24163
  22199409.651   -11046839.968 6  -7052618.47721
 91  3 21  0 23 59.9990000  0  4G11G19G 2G 6
  23968799.1054    2174631.32546   1740682.37761
  21647554.4174    3361670.68946   2626160.64762
  20923964.0264  -16042573.18747 -12429678.33063
  22193140.901   -11079789.824 6  -7078293.60421
 91  3 21  0 24 14.9990000  0  4G11G19G 2G 6
  23976172.058     2213369.218 6   1770867.67721
  21651630.6284    3383090.92646   2642851.71062
  20921618.9484  -16054895.35447 -12439279.99163
  22186873.292   -11112725.826 6  -7103957.93521
 91  3 21  0 24 29.9990000  0  4G11G19G 2G 6
  23983561.9724    2252203.86846   1801128.36861
  21655725.909     3404582.479 6   2659598.35022
  20919285.8004  -16067153.85947 -12448832.03463
  22180609.245   -11145649.094 6  -7129612.35021
 91  3 21  0 24 44.9990000  0  4G11G19G 2G 6
  23990970.7924    2291133.48146   1831463.03761
  21659823.8474    3426143.87646   2676399.40962
  20916964.6834  -16079350.22347 -12458335.66063
  22174346.730   -11178560.799 6  -7155257.75821
 91  3 21  0 24 59.9990000  0  4G11G19G 2G 6
  23998396.7224    2330156.04646   1861870.14761
  21663938.159     3447773.434 6   2693253.58222
  20914654.8864  -16091486.25347 -12467792.27063
  22168084.136   -11211462.537 6  -7180895.40021
 91  3 21  0 25 14.9990000  0  4G11G19G 2G 6
  24005839.8554    2369273.45446   1892351.15961
  21668069.855     3469473.439 6   2710162.65322
  20912357.8474  -16103559.72147 -12477200.13063
  22161827.136   -11244351.886 6  -7206523.38121
 91  3 21  0 25 29.9990000  0  4G11G19G 2G 6
  24013302.1674    2408481.67346   1922902.93761
  21672212.1594    3491240.32346   2727123.83562
  20910072.5654  -16115574.32447 -12486562.12563
  22155569.081   -11277232.444 6  -7232144.51521
 91  3 21  0 25 44.9990000  0  4G11G19G 2G 6
  24020781.3554    2447785.41746   1953529.15761
  21676368.4644    3513079.05946   2744141.00362
  20907798.1054  -16127525.22947 -12495874.48463
  22149314.987   -11310099.018 6  -7257754.76121
 91  3 21  0 25 59.9990000  0  4G11G19G 2G 6
  24028277.1364    2487181.39146   1984227.24961
  21680537.1514    3534986.85646   2761211.98962
  20905534.3704  -16139415.38147 -12505139.49963
  22143061.659   -11342954.471 6  -7283356.33821
 91  3 21  0 26 14.9990000  0  4G11G19G 2G 6
  24035793.269     2526673.408 6   2015000.19521
  21684718.8704    3556967.95046   2778340.08762
  20903284.2534  -16151240.79747 -12514354.07463
  22136812.886   -11375794.555 6  -7308945.94121
 91  3 21  0 26 29.9990000  0  4G11G19G 2G 6
  24043326.308     2566255.433 6   2045843.26921
  21688916.5034    3579016.64046   2795520.85062
  20901045.1984  -16163007.14547 -12523522.61863
  22130566.9804  -11408624.55346  -7334527.69161
 91  3 21  0 26 44.9990000  0  4G11G19G 2G 6
  24050873.948     2605928.053 6   2076756.93121
  21693124.644     3601133.855 6   2812755.02022
  20898816.7534  -16174713.51347 -12532644.42863
  22124319.862   -11441443.709 6  -7360100.98921
 91  3 21  0 26 59.9990000  0  4G11G19G 2G 6
  24058441.870     2645692.485 6   2107742.14621
  21697346.0584    3623321.28846   2830043.89962
  20896602.6984  -16186358.52147 -12541718.42863
  22118076.464   -11474250.142 6  -7385664.36321
 91  3 21  0 27 14.9990000  0  4G11G19G 2G 6
  24066027.097     2685554.648 6   2138803.46821
  21701582.058     3645585.075 6   2847392.27822
  20894396.6984  -16197936.19047 -12550739.95363
  22111838.159   -11507037.558 6  -7411212.91921
 91  3 21  0 27 29.9990000  0  4G11G19G 2G 6
  24073630.1124    2725508.75046   2169936.44561
  21705834.0264    3667919.77646   2864795.91562
  20892206.9484  -16209451.87047 -12559713.18663
  22105599.8784  -11539811.15246  -7436750.71661
 91  3 21  0 27 44.9990000  0  4G11G19G 2G 6
  24081251.2144    2765554.75346   2201141.06061
  21710095.034     3690325.864 6   2882255.18022
  20890027.7224  -16220905.29047 -12568637.89663
  22099368.995   -11572570.433 7  -7462277.35021
 91  3 21  0 27 59.9990000  0  4G11G19G 2G 6
  24088887.300     2805688.843 6   2232414.29621
  21714372.339     3712799.876 6   2899767.37122
  20887859.2064  -16232299.98047 -12577516.84563
  22093136.730   -11605318.782 7  -7487795.46121
 91  3 21  0 28 14.9990000  0  4G11G19G 2G 6
  24096543.2454    2845915.41946   2263759.62061
  21718663.980     3735346.647 6   2917336.26922
  20885703.3394  -16243631.25047 -12586346.37663
  22086907.347   -11638051.403 6  -7513301.32421
 91  3 21  0 28 29.9990000  0  4G11G19G 2G 6
  24104214.4644    2886230.12646   2295173.60361
  21722967.534     3757962.163 6   2934958.72822
  20883558.5264  -16254903.28448 -12595129.74463
  22080680.995   -11670772.020 6  -7538797.83521
 91  3 21  0 28 44.9990000  0  4G11G19G 2G 6
  24111902.5424    2926637.02646   2326659.44461
  21727284.714     3780651.032 6   2952638.34222
  20881426.2374  -16266111.54348 -12603863.42563
  22074457.003   -11703476.256 6  -7564281.57821
 91  3 21  0 28 59.9990000  0  4G11G19G 2G 6
  24119609.003     2967130.934 5   2358213.05821
  21731618.136     3803408.090 6   2970371.09122
  20879303.4014  -16277260.99947 -12612551.28463
  22068236.4404  -11736168.71347  -7589756.14961
 91  3 21  0 29 14.9990000  0  4G11G19G 2G 6
  24127333.1124    3007714.41746   2389836.45661
  21735958.3554    3826236.46546   2988159.41062
  20877194.4404  -16288348.87548 -12621191.15863
  22062017.339   -11768846.348 7  -7615219.16521
 91  3 21  0 29 29.9990000  0  4G11G19G 2G 6
  24135069.714     3048385.368 5   2421528.03621
  21740317.651     3849134.400 6   3006001.93122
  20875094.9484  -16299377.09848 -12629784.54663
  22055801.347   -11801510.804 7  -7640671.91221
 91  3 21  0 29 44.9990000  0  4G11G19G 2G 6
  24142825.6594    3089141.61045   2453286.07361
  21744687.151     3872100.037 6   3023897.21522
  20873006.573   -16310347.511 7 -12638332.89823
  22049590.011   -11834163.663 7  -7666115.61921
 91  3 21  0 29 59.9990000  0  4G11G19G 2G 6
  24150598.222     3129987.309 6   2485113.81821
  21749070.058     3895138.039 6   3041848.88022
  20870931.948   -16321255.645 8 -12646832.71823
  22043378.222   -11866800.371 6  -7691546.74721
 91  3 21  0 30 14.9990000  0  4G11G19G 2G 6
  24158391.815     3170920.285 6   2517009.56221
  21753469.605     3918246.693 6   3059855.59822
  20868866.128   -16332103.376 7 -12655285.47123
  22037167.581   -11899422.546 6  -7716966.54221
 91  3 21  0 30 29.9990000  0  4G11G19G 2G 6
  24166193.8234    3211939.00846   2548972.12261
  21757880.948     3941424.791 6   3077916.43222
  20866814.0194  -16342892.03047 -12663692.18463
  22030963.456   -11932031.245 6  -7742375.83221
 91  3 21  0 30 44.9990000  0  4G11G19G 2G 6
  24174017.6284    3253045.29145   2581002.90561
  21762301.6444    3964674.54346   3096033.08262
  20864771.9334  -16353619.47747 -12672051.20763
  22024761.933   -11964624.083 7  -7767772.76621
 91  3 21  0 30 59.9990000  0  4G11G19G 2G 6
  24181856.394     3294232.713 5   2613096.92321
  21766739.839     3987989.724 6   3114200.72722
  20862742.9014  -16364291.99148 -12680367.42163
  22018562.331   -11997207.068 7  -7793162.02421
 91  3 21  0 31 14.9990000  0  4G11G19G 2G 6
  24189708.339     3335512.081 5   2645262.57921
  21771190.0264    4011381.68646   3132428.20462
  20860723.5344  -16374898.29348 -12688632.04363
  22012363.9404  -12029768.92446  -7818534.81761
 91  3 21  0 31 29.9990000  0  4G11G19G 2G 6
  24197582.534     3376874.722 5   2677493.12821
  21775653.9874    4034842.02346   3150708.95062
  20858715.4254  -16385446.75548 -12696851.59463
  22006170.7144  -12062317.66346  -7843897.38261
 91  3 21  0 31 44.9990000  0  4G11G19G 2G 6
  24205470.4874    3418321.92345   2709789.57961
  21780133.4954    4058372.29346   3169044.20362
  20856720.3784  -16395935.80748 -12705024.85163
  21999979.097   -12094851.648 6  -7869248.45421
 91  3 21  0 31 59.9990000  0  4G11G19G 2G 6
  24213373.9804    3459854.23345   2742152.32861
  21784624.6984    4081973.59746   3187434.79862
  20854735.0264  -16406364.82448 -12713151.33063
  21993791.495   -12127369.841 6  -7894587.22321
 91  3 21  0 32 14.9990000  0  4G11G19G 2G 6
  24221292.315     3501473.683 5   2774582.98421
  21789131.5194    4105648.29446   3205882.58362
  20852762.542   -16416731.497 8 -12721229.23223
  21987606.8004  -12159869.55346  -7919911.58261
 91  3 21  0 32 29.9990000  0  4G11G19G 2G 6
  24229229.8474    3543178.47545   2807080.15761
  21793651.4404    4129395.07246   3224386.53862
  20850801.362   -16427037.232 8 -12729259.65023
  21981425.9404  -12192352.17746  -7945222.62061
 91  3 21  0 32 44.9990000  0  4G11G19G 2G 6
  24237180.6284    3584967.20246   2839642.71161
  21798181.4724    4153212.72346   3242945.71762
  20848851.6834  -16437283.33048 -12737243.59763
  21975248.948   -12224818.598 7  -7970521.05521
 91  3 21  0 32 59.9990000  0  4G11G19G 2G 6
  24245150.167     3626839.256 6   2872270.21221
  21802730.097     4177101.174 6   3261560.06322
  20846914.9174  -16447469.85548 -12745181.12363
  21969072.097   -12257268.884 7  -7995806.90821
 91  3 21  0 33 14.9990000  0  4G11G19G 2G 6
  24253132.995     3668794.573 6   2904962.58121
  21807284.6674    4201060.66846   3280229.77262
  20844987.8084  -16457596.75248 -12753072.17963
  21962902.8554  -12289702.59147  -8021079.83961
 91  3 21  0 33 29.9990000  0  4G11G19G 2G 6
  24261132.5584    3710829.26745   2937716.79761
  21811857.0654    4225087.79846   3298952.17862
  20843070.4174  -16467667.65348 -12760919.60563
  21956730.706   -12322123.069 6  -8046342.46821
 91  3 21  0 33 44.9990000  0  4G11G19G 2G 6
  24269147.7064    3752945.12146   2970534.25261
  21816443.7534    4249184.66146   3317728.92362
  20841164.1204  -16477680.47148 -12768721.76763
  21950564.167   -12354528.144 6  -8071593.09621
 91  3 21  0 33 59.9990000  0  4G11G19G 2G 6
  24277179.011     3795147.062 6   3003418.79921
  21821047.4724    4273356.51046   3336564.09762
  20839272.4724  -16487630.03048 -12776474.64163
  21944401.753   -12386912.267 6  -8096827.39621
 91  3 21  0 34 14.9990000  0  4G11G19G 2G 6
  24285224.690     3837432.974 5   3036368.79121
  21825657.386     4297601.700 6   3355456.42922
  20837389.0654  -16497517.93348 -12784179.46563
  21938242.0974  -12419277.05346  -8122046.62361
 91  3 21  0 34 29.9990000  0  4G11G19G 2G 6
  24293286.550     3879804.365 6   3069385.38221
  21830287.636     4321921.972 6   3374407.26322
  20835519.4484  -16507342.56648 -12791834.99263
  21932088.2844  -12451620.44846  -8147249.17861
 91  3 21  0 34 44.9990000  0  4G11G19G 2G 6
  24301365.4334    3922251.75046   3102461.17461
  21834925.7694    4346308.33646   3393409.59062
  20833660.8864  -16517113.17148 -12799448.42363
  21925935.9174  -12483951.47246  -8172442.09361
 91  3 21  0 34 59.9990000  0  4G11G19G 2G 6
  24309459.7374    3964782.53846   3135601.99061
  21839582.565     4370768.472 6   3412469.41922
  20831813.331   -16526822.041 8 -12807013.75223
  21919785.4484  -12516262.18846  -8197619.17661
 91  3 21  0 35 14.9990000  0  4G11G19G 2G 6
  24317566.2844    4007393.56146   3168805.31761
  21844249.183     4395299.673 6   3431584.61622
  20829977.0344  -16536472.06148 -12814533.22063
  21913641.7144  -12548555.31746  -8222782.56961
 91  3 21  0 35 29.9990000  0  4G11G19G 2G 6
  24325690.1124    4050085.37946   3202071.59961
  21848931.565     4419902.965 6   3450755.98822
  20828152.698   -16546062.192 8 -12822006.02423
  21907499.862   -12580829.572 7  -8247931.25621
 91  3 21  0 35 44.9990000  0  4G11G19G 2G 6
  24333829.940     4092859.306 6   3235401.84121
  21853627.019     4444579.967 6   3469984.79522
  20826337.870   -16555590.943 8 -12829430.99723
  21901361.526   -12613083.190 6  -8273063.86721
 91  3 21  0 35 59.9990000  0  4G11G19G 2G 6
  24341982.151     4135708.484 5   3268790.75721
  21858337.050     4469324.165 6   3489265.96122
  20824535.9484  -16565064.79648 -12836813.19463
  21895227.597   -12645322.505 7  -8298185.32221
 91  3 21  0 36 14.9990000  0  4G11G19G 2G 6
  24350152.2844    4178633.10845   3302238.43061
  21863057.5504    4494136.06146   3508599.87562
  20822743.2844  -16574483.48448 -12844152.40363
  21889096.792   -12677546.893 7  -8323295.15621
 91  3 21  0 36 29.9990000  0  4G11G19G 2G 6
  24358337.7534    4221639.99845   3335750.19661
  21867791.3154    4519022.97146   3527992.23562
  20820962.980   -16583839.845 8 -12851443.04523
  21882967.7614  -12709748.93747  -8348387.56861
 91  3 21  0 36 44.9990000  0  4G11G19G 2G 6
  24366536.8084    4264725.60346   3369323.30661
  21872542.9404    4543981.69846   3547440.56762
  20819193.480   -16593137.314 8 -12858687.80023
  21876842.8314  -12741931.74446  -8373464.99662
 91  3 21  0 36 59.9990000  0  4G11G19G 2G 6
  24374750.683     4307887.049 6   3402955.53321
  21877309.6594    4569009.71146   3566942.87362
  20817435.651   -16602378.495 8 -12865888.69823
  21870721.620   -12774097.673 6  -8398529.26622
 91  3 21  0 37 14.9990000  0  4G11G19G 2G 6
  24382975.284     4351125.197 5   3436647.49821
  21882079.5424    4594108.32146   3586500.19962
  20815687.2694  -16611562.15648 -12873044.76763
  21864603.862   -12806245.229 7  -8423579.23122
 91  3 21  0 37 29.9990000  0  3G19G 2G 6
  21886870.9404    4619279.07046   3606113.73362
  20813950.792   -16620686.830 7 -12880154.87423
  21858491.042   -12838372.949 7  -8448613.74222
 91  3 21  0 37 44.9990000  0  3G19G 2G 6
  21891675.2224    4644522.55446   3625783.94162
  20812225.980   -16629751.674 8 -12887218.36423
  21852380.667   -12870479.775 6  -8473631.97122
 91  3 21  0 37 59.9990000  0  3G19G 2G 6
  21896493.4484    4669835.41646   3645508.20862
  20810511.292   -16638760.270 7 -12894238.02423
  21846274.1674  -12902568.95546  -8498636.45162
 91  3 21  0 38 14.9990000  0  3G19G 2G 6
  21901322.2304    4695215.11146   3665284.55662
  20808806.7224  -16647715.44747 -12901216.05563
  21840171.464   -12934642.911 7  -8523629.06922
 91  3 21  0 38 29.9990000  0  3G19G 2G 6
  21906164.7764    4720662.96446   3685114.00862
  20807114.206   -16656615.848 7 -12908151.40723
  21834070.683   -12966700.044 7  -8548608.57222
 91  3 21  0 38 44.9990000  0  3G19G 2G 6
  21911017.6984    4746180.19146   3704997.53662
  20805430.206   -16665460.313 7 -12915043.17323
  21827974.2304  -12998739.18647  -8573574.04762
 91  3 21  0 38 59.9990000  0  3G19G 2G 6
  21915888.3314    4771767.43546   3724935.61362
  20803759.230   -16674248.182 7 -12921890.84223
  21821880.183   -13030759.350 6  -8598524.73821
 91  3 21  0 39 14.9990000  0  4G15G19G 2G 6
  24116760.1054         -0.01154
  21920772.6834    4797426.27046   3744929.48461
  20802096.136   -16682978.248 7 -12928693.46823
  21815790.550   -13062759.123 6  -8623459.55021
 91  3 21  0 39 29.9990000  0  4G15G19G 2G 6
  24111113.433      -29676.811 4
  21925667.6364    4823156.67246   3764979.10962
  20800446.128   -16691650.505 7 -12935451.05523
  21809704.0114  -13094738.05046  -8648378.12461
 91  3 21  0 39 44.9990000  0  4G15G19G 2G 6
  24105478.933      -59279.687 4
  21930578.448     4848957.892 6   3785083.91321
  20798807.300   -16700265.783 7 -12942164.23323
  21803624.581   -13126696.685 7  -8673280.88521
 91  3 21  0 39 59.9990000  0  4G15G19G 2G 6
  24099864.495      -88808.975 5        -0.19831
  21935502.612     4874829.536 6   3805243.59321
  20797177.730   -16708824.458 7 -12948833.31423
  21797547.3004  -13158635.42746  -8698168.15361
 91  3 21  0 40 14.9990000  0  4G15G19G 2G 6
  24094257.0344    -118266.01644    -22953.67361
  21940437.011     4900769.793 6   3825456.73622
  20795560.565   -16717328.426 7 -12955459.75723
  21791472.9254  -13190555.66147  -8723040.99461
 91  3 21  0 40 29.9990000  0  4G15G19G 2G 6
  24088665.8784    -147648.07644    -45848.71261
  21945388.7144    4926781.13346   3845725.27061
  20793953.386   -16725775.292 8 -12962041.71023
  21785402.3704  -13222454.91647  -8747897.49062
 91  3 21  0 40 44.9990000  0  4G15G19G 2G 6
  24083088.534     -176957.763 5    -68687.36721
  21950349.612     4952860.442 6   3866046.76622
  20792355.706   -16734168.310 8 -12968581.70523
  21779333.7454  -13254336.15747  -8772739.94762
 91  3 21  0 40 59.9990000  0  4G15G19G 2G 6
  24077528.5734    -206190.64945    -91466.12461
  21955325.6594    4979011.76246   3886424.38062
  20790770.487   -16742503.541 8 -12975076.66823
  21773273.2614  -13286195.12947  -8797565.05862
 91  3 21  0 41 14.9990000  0  4G15G19G 2G 6
  24071978.136     -235347.630 5   -114185.80121
  21960315.362     5005233.964 6   3906857.22422
  20789194.628   -16750782.156 8 -12981527.52323
  21767214.2374  -13318032.72747  -8822373.50762
 91  3 21  0 41 29.9990000  0  4G15G19G 2G 6
  24066443.2534    -264429.18245   -136846.64861
  21965322.0504    5031526.19946   3927344.63662
  20787629.972   -16759005.250 8 -12987935.10223
  21761159.4954  -13349849.84047  -8847165.99361
 91  3 21  0 41 44.9990000  0  4G15G19G 2G 6
  24060924.5584    -293435.97545   -159449.25461
  21970336.917     5057887.535 6   3947885.89922
  20786074.667   -16767173.724 8 -12994300.12423
  21755108.4094  -13381647.16847  -8871943.06162
 91  3 21  0 41 59.9990000  0  4G15G19G 2G 6
  24055422.1514    -322364.64645   -181990.97261
  21975367.4094    5084320.82746   3968483.22762
  20784533.151   -16775284.893 8 -13000620.49523
  21749062.105   -13413421.696 7  -8896702.36721
 91  3 21  0 42 14.9990000  0  4G15G19G 2G 6
  24049928.2144    -351214.24345   -204471.10061
  21980409.706     5110826.744 6   3989137.14622
  20782999.276   -16783338.160 8 -13006895.74123
  21743020.2064  -13445172.48447  -8921443.16461
 91  3 21  0 42 29.9990000  0  4G15G19G 2G 6
  24044447.909     -379986.229 5   -226890.74421
  21985467.1904    5137403.20746   4009846.04262
  20781476.605   -16791335.733 8 -13013127.59923
  21736982.042   -13476901.514 7  -8946167.00722
 91  3 21  0 42 44.9990000  0  4G15G19G 2G 6
  24038994.519     -408674.885 5   -249245.48521
  21990538.3474    5164055.62146   4030614.11962
  20779967.331   -16799271.942 8 -13019311.63923
  21730949.0584  -13508603.02247  -8970869.41162
 91  3 21  0 42 59.9990000  0  4G15G19G 2G 6
  24033547.3234    -437289.13845   -271542.18961
  21995624.5814    5190774.90046   4051434.29761
  20778466.761   -16807156.159 8 -13025455.15923
  21724919.948   -13540285.987 7  -8995557.36822
 91  3 21  0 43 14.9990000  0  4G15G19G 2G 6
  24028118.464     -465827.927 5   -293780.14321
  22000719.519     5217562.053 6   4072307.35121
  20776976.909   -16814987.526 8 -13031557.49823
  21718893.503   -13571949.250 7  -9020229.97122
 91  3 21  0 43 29.9990000  0  4G15G19G 2G 6
  24022704.0504    -494289.75345   -315958.08061
  22005832.214     5244418.222 6   4093234.19221
  20775496.144   -16822764.959 8 -13037617.81423
  21712873.745   -13603591.547 7  -9044886.22622
 91  3 21  0 43 44.9990000  0  4G15G19G 2G 6
  24017303.901     -522670.954 5   -338073.19521
  22010955.776     5271346.669 6   4114217.35321
  20774028.401   -16830485.254 8 -13043633.59923
  21706856.675   -13635209.480 7  -9069523.50022
 91  3 21  0 43 59.9990000  0  4G15G19G 2G 6
  24011917.956     -550969.685 5   -360124.08421
  22016093.214     5298348.562 6   4135257.74321
  20772569.894   -16838147.118 8 -13049603.85523
  21700844.2764  -13666801.59047  -9094140.67062
 91  3 21  0 44 14.9990000  0  4G15G19G 2G 6
  24006542.6284    -579190.55645   -382114.28661
  22021243.8394    5325418.89046   4156351.47061
  20771122.823   -16845755.808 8 -13055532.68423
  21694836.8784  -13698372.75347  -9118741.51462
 91  3 21  0 44 29.9990000  0  4G15G19G 2G 6
  24001188.2694    -607333.37245   -404043.68761
  22026410.448     5352557.631 6   4177498.50321
  20769683.526   -16853311.591 8 -13061420.28823
  21688833.6834  -13729922.89847  -9143325.97262
 91  3 21  0 44 44.9990000  0  4G15G19G 2G 6
  23995844.8784    -635398.22645   -425912.27261
  22031587.0584    5379764.43046   4198698.56961
  20768255.737   -16860814.713 8 -13067266.85523
  21682833.1124  -13761452.00447  -9167894.04362
 91  3 21  0 44 59.9990000  0  4G15G19G 2G 6
  23990520.4564    -663382.78845   -447718.35661
  22036778.558     5407041.283 6   4219953.21721
  20766838.589   -16868263.385 8 -13073070.99823
  21676837.8234  -13792957.98247  -9192444.09362
 91  3 21  0 45 14.9990000  0  4G15G19G 2G 6
  23985213.9954    -691286.14245   -469461.13861
  22041983.1514    5434388.87046   4241262.98562
  20765431.401   -16875656.974 8 -13078832.21223
  21670846.2764  -13824440.10647  -9216975.54862
 91  3 21  0 45 29.9990000  0  4G15G19G 2G 6
  23979918.495     -719107.180 5   -491139.75321
  22047201.5194    5461807.72945   4262628.29762
  20764035.105   -16882994.753 8 -13084549.93723
  21664861.0194  -13855897.25647  -9241487.54762
 91  3 21  0 45 44.9990000  0  4G15G19G 2G 6
  23974641.870     -746850.519 5   -512757.83621
  22052430.8474    5489292.88246   4284045.26662
  20762648.651   -16890281.878 8 -13090228.20023
  21658878.9334  -13887334.35147  -9265983.92362
 91  3 21  0 45 59.9990000  0  4G15G19G 2G 6
  23969375.7614    -774510.54545   -534311.01861
  22057674.425     5516849.503 6   4305517.91421
  20761270.792   -16897513.237 8 -13095863.00923
  21652900.8474  -13918745.99647  -9290460.47162
 91  3 21  0 46 14.9990000  0  4G15G19G 2G 6
  23964128.6514    -802088.61445   -555800.32161
  22062930.097     5544475.868 6   4327044.91522
  20759906.308   -16904690.580 8 -13101455.72523
  21646928.1284  -13950133.73047  -9314918.38262
 91  3 21  0 46 29.9990000  0  4G15G19G 2G 6
  23958898.0114    -829584.29645   -577225.43961
  22068205.550     5572172.314 5   4348626.50922
  20758550.456   -16911813.965 8 -13107006.39023
  21640960.308   -13981497.321 7  -9339357.47622
 91  3 21  0 46 44.9990000  0  4G15G19G 2G 6
  23953684.2144    -856995.89045   -598585.01861
  22073483.573     5599940.141 6   4370263.73022
  20757205.9174  -16918882.20548 -13112514.08263
  21634995.6444  -14012835.24347  -9363776.56862
 91  3 21  0 46 59.9990000  0  4G15G19G 2G 6
  23948477.761     -884324.889 5   -619880.23121
  22078784.245     5627777.227 5   4391954.91722
  20755871.011   -16925897.097 8 -13117980.20823
  21629038.5424  -14044149.16147  -9388176.94862
 91  3 21  0 47 14.9990000  0  4G15G19G 2G 6
  23943295.8234    -911570.60845   -641110.56561
  22084092.222     5655684.175 6   4413700.55122
  20754546.886   -16932858.321 8 -13123404.51623
  21623082.605   -14075438.321 7  -9412558.04322
 91  3 21  0 47 29.9990000  0  4G15G19G 2G 6
  23938126.706     -938735.432 5   -662277.84921
  22089421.230     5683658.260 5   4435498.49622
  20753232.480   -16939768.651 8 -13128789.17623
  21617134.1054  -14106705.35547  -9436921.90062
 91  3 21  0 47 44.9990000  0  5G15G13G19G 2G 6
  23932969.042     -965815.156 5   -683378.81821
  23889986.0424         -0.59154
  22094755.065     5711703.301 6   4457351.72622
  20751926.925   -16946624.355 8 -13134131.26723
  21611188.6444  -14137946.21147  -9461265.36662
 91  3 21  0 47 59.9990000  0  5G15G13G19G 2G 6
  23927833.5584    -992809.64145   -704413.40161
  23878211.2694     -61894.41644
  22100102.839     5739819.125 6   4479260.11922
  20750632.8154  -16953425.64548 -13139430.96163
  21605248.5034  -14169160.78347  -9485588.35162
 91  3 21  0 48 14.9990000  0  5G15G13G19G 2G 6
  23922712.8864   -1019717.61845   -725380.56861
  23866439.8154    -123758.35144
  22105467.144     5768006.510 6   4501224.26921
  20749349.425   -16960171.712 8 -13144687.62323
  21599313.7374  -14200348.03347  -9509890.05262
 91  3 21  0 48 29.9990000  0  5G15G13G19G 2G 6
  23917608.3394   -1046538.70744   -746280.01761
  23854673.3554    -185592.08645
  22110845.4724    5796265.50346   4523244.22261
  20748075.690   -16966862.576 8 -13149901.27123
  21593383.9804  -14231507.76547  -9534170.30162
 91  3 21  0 48 44.9990000  0  5G15G13G19G 2G 6
  23912519.4404   -1073276.81245   -767114.80661
  23842911.2844    -247399.43444
  22116235.995     5824591.782 6   4545316.60021
  20746811.933   -16973502.753 8 -13155075.42023
  21587458.1124  -14262644.02547  -9558432.26162
 91  3 21  0 48 59.9990000  0  5G15G13G19G 2G 6
  23907451.1834   -1099927.86945   -787881.76361
  23831147.9174    -309176.11544
  22121639.019     5852989.246 6   4567444.44621
  20745557.964   -16980088.314 8 -13160207.00423
  21581538.745   -14293752.760 7  -9582672.78022
 91  3 21  0 49 14.9990000  0  5G15G13G19G 2G 6
  23902394.948    -1126497.666 5   -808585.38021
  23819402.440     -370928.078 4
  22127056.948     5881451.663 6   4589622.90821
  20744315.386   -16986625.380 8 -13165300.79923
  21575622.3864  -14324839.99347  -9606896.54062
 91  3 21  0 49 29.9990000  0  5G15G13G19G 2G 6
  23897358.1284   -1152981.32045   -829221.88261
  23807659.0584    -432650.33044        -0.14871
  22132490.151     5909983.662 5   4611855.58121
  20743080.347   -16993109.732 8 -13170353.52123
  21569712.3554  -14355900.96247  -9631099.83462
 91  3 21  0 49 44.9990000  0  5G15G13G19G 2G 6
  23892334.222    -1179376.246 5   -849789.24121
  23795916.690     -494340.258 4    -48069.95421
  22137928.558     5938587.398 6   4634144.16621
  20741857.128   -16999539.293 8 -13175363.54823
  21563808.0194  -14386933.39947  -9655280.89062
 91  3 21  0 49 59.9990000  0  5G15G13G19G 2G 6
  23887329.0584   -1205683.50845   -870288.29961
  23784187.0654    -555998.86044    -96115.31261
  22143384.386     5967261.537 6   4656487.60721
  20740644.331   -17005915.341 8 -13180331.87023
  21557906.8234  -14417938.34147  -9679440.52162
 91  3 21  0 50 14.9990000  0  5G15G13G19G 2G 6
  23882340.370    -1231903.277 5   -890719.17421
  23772460.558     -617625.991 4
  22148856.651     5996005.722 6   4678885.62221
  20739441.206   -17012238.252 8 -13185258.78923
  21552013.5424  -14448915.86947  -9703578.78862
 91  3 21  0 50 29.9990000  0  5G15G13G19G 2G 6
  23877366.0504   -1258031.30545   -911078.56361
  23760740.972     -679217.664 4
  22154341.573     6024823.655 5   4701341.10321
  20738248.159   -17018504.308 8 -13190141.41023
  21546123.2764  -14479862.06147  -9727692.63762
 91  3 21  0 50 44.9990000  0  5G15G13G19G 2G 6
  23872408.9724   -1284073.54344   -931371.11461
  23749023.706     -740780.264 4
  22159837.3234    6053708.85246   4723848.99261
  20737065.534   -17024720.243 8 -13194984.97323
  21540240.0734  -14510783.24147  -9751787.00762
 91  3 21  0 50 59.9990000  0  5G15G13G19G 2G 6
  23867467.542    -1310029.311 4   -951596.27121
  23737314.0814    -802312.19744
  22165344.8314    6082662.04045   4746409.88461
  20735892.315   -17030885.345 8 -13199788.93123
  21534359.745   -14541678.425 7  -9775861.11522
 91  3 21  0 51 14.9990000  0  5G15G13G19G 2G 6
  23862537.7064   -1335896.97244   -971752.78361
  23725609.7304    -863812.00044
  22170866.909     6111684.252 5   4769024.55021
  20734729.362   -17036998.412 8 -13204552.33723
  21528485.769   -14572546.263 7  -9799913.92322
 91  3 21  0 51 29.9990000  0  5G15G13G19G 2G 6
  23857635.8394   -1361672.60644   -991837.58461
  23713911.5194    -925276.01045        -0.00471
  22176404.417     6140778.797 5   4791695.57721
  20733577.573   -17043056.329 8 -13209272.77323
  21522617.4954  -14603383.21647  -9823942.66662
 91  3 21  0 51 44.9990000  0  5G15G13G19G 2G 6
  23852753.9564   -1387358.50745  -1011852.46061
  23702224.011     -986706.694 5    -47867.75221
  22181954.542     6169943.181 5   4814421.03221
  20732432.690   -17049061.606 8 -13213952.19023
  21516755.4404  -14634191.80847  -9847949.29262
 91  3 21  0 51 59.9990000  0  5G15G13G19G 2G 6
  23847883.4874   -1412955.71345  -1031798.23161
  23690538.769    -1048104.621 5    -95710.01121
  22187517.628     6199176.296 5   4837200.03721
  20731299.503   -17055015.505 8 -13218591.57223
  21510898.2224  -14664972.61447  -9871934.28462
 91  3 21  0 52 14.9990000  0  5G15G13G19G 2G 6
  23843029.5114   -1438461.32845  -1051672.61161
  23678860.206    -1109466.974 5   -143524.51321
  22193094.558     6228480.564 5   4860034.49221
  20730176.605   -17060915.592 8 -13223189.02223
  21505046.8864  -14695723.11647  -9895895.64462
 91  3 21  0 52 29.9990000  0  5G15G13G19G 2G 6
  23838196.8554   -1463875.99444  -1071476.15661
  23667192.050    -1170794.332 5   -191311.79521
  22198684.2454    6257854.53246   4882923.26061
  20729065.323   -17066763.325 8 -13227745.67523
  21499200.7304  -14726444.46447  -9919834.29762
 91  3 21  0 52 44.9990000  0  5G15G13G19G 2G 6
  23833373.2844   -1489199.01145  -1091208.27361
  23655528.628    -1232085.634 5   -239070.96521
  22204284.378     6287299.080 5   4905867.02022
  20727960.753   -17072557.814 8 -13232260.83823
  21493360.151   -14757135.482 7  -9943749.32422
 91  3 21  0 52 59.9990000  0  5G15G13G19G 2G 6
  23828576.901    -1514431.508 5  -1110869.81921
  23643871.565    -1293342.072 5   -286802.98221
  22209904.269     6316812.696 5   4928864.59722
  20726869.737   -17078300.660 8 -13236735.76523
  21487523.2224  -14787797.62547  -9967641.84162
 91  3 21  0 53 14.9990000  0  5G15G13G19G 2G 6
  23823788.097    -1539572.312 5  -1130459.93721
  23632218.519    -1354562.550 5   -334506.92221
  22215533.417     6346396.346 6   4951916.74221
  20725785.519   -17083991.322 8 -13241170.02323
  21481694.5034  -14818429.80447  -9991510.98462
 91  3 21  0 53 29.9990000  0  5G15G13G19G 2G 6
  23819023.2924   -1564620.48945  -1149977.87961
  23620579.2764   -1415746.06945   -382182.16161
  22221178.120     6376050.391 5   4975023.74821
  20724712.6364  -17089629.35848 -13245563.28563
  21475872.3944  -14849031.29647 -10015356.25062
 91  3 21  0 53 44.9990000  0  5G15G13G19G 2G 6
  23814272.933    -1589575.812 5  -1169423.50921
  23608944.987    -1476892.581 5   -429828.51321
  22226830.284     6405774.552 5   4998185.38021
  20723650.7304  -17095214.86248 -13249915.61763
  21470054.175   -14879602.052 7 -10039177.56522
 91  3 21  0 53 59.9990000  0  5G15G13G19G 2G 6
  23809543.097    -1614441.152 5  -1188798.98321
  23597314.886    -1538004.843 5   -477448.15221
  22232502.620     6435565.669 5   5021399.17921
  20722596.909   -17100751.167 8 -13254229.60523
  21464243.9954  -14910145.24447 -10062977.40162
 91  3 21  0 54 14.9990000  0  5G15G13G19G 2G 6
  23804827.6904   -1639210.66145  -1208099.78961
  23585694.0504   -1599076.73045   -525036.36861
  22238185.440     6465429.443 5   5044669.61221
  20721554.433   -17106232.533 8 -13258500.78123
  21458437.1834  -14940654.82347 -10086751.04562
 91  3 21  0 54 29.9990000  0  5G15G13G19G 2G 6
  23800129.5344   -1663886.98845  -1227328.00361
  23574079.214    -1660111.124 5   -572595.35121
  22243881.112     6495362.595 5   5067994.09421
  20720521.011   -17111662.247 8 -13262731.70723
  21452636.3154  -14971133.80847 -10110500.84562
 91  3 21  0 54 44.9990000  0  5G15G13G19G 2G 6
  23795453.597    -1688468.041 5  -1246481.96721
  23562471.1204   -1721105.85045   -620123.40261
  22249588.5814    6525366.73145   5091373.90461
  20719498.815   -17117038.717 8 -13266921.14523
  21446841.581   -15001580.229 7 -10134225.27022
 91  3 21  0 54 59.9990000  0  5G15G13G19G 2G 6
  23790796.558    -1712953.856 5  -1265561.74921
  23550873.3474   -1782060.40645   -667620.19561
  22255313.589     6555441.786 5   5114808.95521
  20718484.503   -17122362.248 8 -13271069.33323
  21441054.2144  -15031993.97447 -10157924.22762
 91  3 21  0 55 14.9990000  0  4G13G19G 2G 6
  23539282.7844   -1842973.69945   -715084.83061
  22261050.0584    6585588.75945   5138300.06861
  20717481.776   -17127631.949 8 -13275175.57623
  21435273.8314  -15062373.89047 -10181596.83062
 91  3 21  0 55 29.9990000  0  5G15G13G19G 2G 6
  23781530.2844         -0.53355
  23527695.159    -1903847.735 5   -762518.86821
  22266800.753     6615805.115 5   5161845.22321
  20716488.347   -17132850.297 7 -13279241.80323
  21429499.7534  -15092722.27547 -10205244.85762
 91  3 21  0 55 44.9990000  0  5G15G13G19G 2G 6
  23776924.722      -24200.912 5
  23516119.9254   -1964682.19745   -809922.07061
  22272563.097     6646090.855 6   5185444.44921
  20715505.214   -17138017.305 8 -13283268.02423
  21423729.6984  -15123038.78747 -10228868.05262
 91  3 21  0 55 59.9990000  0  5G15G13G19G 2G 6
  23772339.300      -48305.666 5
  23504550.7454   -2025476.20145   -857293.73261
  22278340.4724    6676446.48746   5209098.13361
  20714531.5034  -17143132.46048 -13287253.84863
  21417968.1444  -15153322.73947 -10252465.87562
 91  3 21  0 56 14.9990000  0  5G15G13G19G 2G 6
  23767770.7144     -72314.14745        -0.18071
  23492993.175    -2086228.972 5   -904633.24721
  22284129.0814    6706872.29446   5232806.49561
  20713568.542   -17148195.611 8 -13291199.15223
  21412211.198   -15183573.589 7 -10276037.91622
 91  3 21  0 56 29.9990000  0  5G15G13G19G 2G 6
  23763218.5344     -96231.34045    -18636.85161
  23481437.4174   -2146945.44145   -951944.53861
  22289933.440     6737362.953 6   5256565.40221
  20712613.042   -17153212.158 8 -13295108.13123
  21406458.784   -15213796.503 7 -10299588.18722
 91  3 21  0 56 44.9990000  0  5G15G13G19G 2G 6
  23758687.206     -120054.978 5    -37200.64421
  23469890.901    -2207623.447 5   -999225.78821
  22295747.401     6767920.277 6   5280376.25121
  20711668.831   -17158180.080 8 -13298979.22323
  21400713.745   -15243989.260 7 -10323114.96622
 91  3 21  0 56 59.9990000  0  5G15G13G19G 2G 6
  23754169.7224    -143777.47345    -55685.61661
  23458353.073    -2268255.334 5  -1046471.15921
  22301574.5344    6798551.48045   5304244.67761
  20710733.964   -17163092.283 8 -13302806.89823
  21394975.159   -15274144.363 7 -10346612.39822
 91  3 21  0 57 14.9990000  0  5G15G13G19G 2G 6
  23749669.4724    -167406.94745    -74098.11361
  23446817.5734   -2328848.96145  -1093686.66261
  22307415.050     6829248.333 5   5328164.26021
  20709808.948   -17167957.251 8 -13306597.76223
  21389242.003   -15304270.020 7 -10370086.88422
 91  3 21  0 57 29.9990000  0  5G15G13G19G 2G 6
  23745195.0194    -190942.62445    -92437.52261
  23435295.339    -2389403.496 5  -1140871.74621
  22313271.8234    6860011.45045   5352135.46361
  20708891.839   -17172774.493 8 -13310351.44023
  21383515.6904  -15334365.36947 -10393537.74062
 91  3 21  0 57 44.9990000  0  5G15G13G19G 2G 6
  23740734.7304    -214382.94045   -110702.60961
  23423776.9724   -2449917.32745  -1188025.13561
  22319134.745     6890841.882 5   5376159.12421
  20707984.058   -17177542.660 8 -13314066.87623
  21377794.3704  -15364428.92347 -10416963.82562
 91  3 21  0 57 59.9990000  0  5G15G13G19G 2G 6
  23736294.2764    -237726.44645   -128892.26361
  23412268.690    -2510388.993 4  -1235145.59921
  22325019.565     6921740.671 5   5400236.06121
  20707086.214   -17182260.829 8 -13317743.36423
  21372080.7144  -15394459.49847 -10440364.20362
 91  3 21  0 58 14.9990000  0  5G15G13G19G 2G 6
  23731869.8944    -260972.40845   -147005.91161
  23400771.2924   -2570817.79145  -1282232.68861
  22330913.230     6952708.413 5   5424366.72521
  20706199.5504  -17186928.63548 -13321380.60463
  21366371.5194  -15424456.37147 -10463738.32762
 91  3 21  0 58 29.9990000  0  5G15G13G19G 2G 6
  23727465.026     -284123.337 5   -165045.51721
  23389278.784    -2631206.048 5  -1329288.20021
  22336814.456     6983742.018 5   5448548.70021
  20705319.5034  -17191549.23248 -13324981.06063
  21360668.9644  -15454422.25847 -10487088.29962
 91  3 21  0 58 44.9990000  0  5G15G13G19G 2G 6
  23723078.2844    -307176.15845   -183008.66361
  23377791.8474   -2691550.28845  -1376309.44961
  22342736.206     7014844.379 5   5472784.25821
  20704448.8784  -17196119.69748 -13328542.45163
  21354974.1204  -15484353.95747 -10510411.63862
 91  3 21  0 58 59.9990000  0  5G15G13G19G 2G 6
  23718708.753     -330127.392 5   -200892.64221
  23366325.026    -2751847.327 5  -1423293.83421
  22348670.5264    7046018.57645   5497075.79661
  20703589.308   -17200636.902 8 -13332062.33823
  21349284.6444  -15514248.11147 -10533705.71962
 91  3 21  0 59 14.9990000  0  5G15G13G19G 2G 6
  23714361.6204    -352978.14445   -218698.32661
  23354858.472    -2812098.362 5  -1470242.45621
  22354610.9644    7077262.92945   5521421.98861
  20702738.878   -17205102.529 8 -13335542.02523
  21343602.9954  -15544106.29147 -10556971.77463
 91  3 21  0 59 29.9990000  0  5G15G13G19G 2G 6
  23710035.1904    -375727.93645   -236425.33961
  23343399.917    -2872302.822 5  -1517154.73821
  22360574.6124    7108577.38245   5545822.81761
  20701898.620   -17209516.507 8 -13338981.46423
  21337927.8314  -15573927.99647 -10580209.40063
 91  3 21  0 59 44.9990000  0  5G15G13G19G 2G 6
  23705720.2844    -398383.30345   -254078.78961
  23331953.7534   -2932466.86045  -1564035.54261
  22366543.659     7139955.267 5   5570273.07821
  20701068.089   -17213885.823 8 -13342386.10523
  21332256.9014  -15603719.61147 -10603423.58063
 91  3 21  0 59 59.9990000  0  5G15G13G19G 2G 6
  23701425.487     -420938.025 5   -271653.80521
  23320514.5974   -2992584.62945  -1610880.28661
  22372529.870     7171402.445 5   5594777.32021
  20700246.792   -17218204.363 8 -13345751.18323
  21326595.5034  -15633475.13347 -10626609.63463
 91  3 21  1  0 14.9990000  0  5G15G13G19G 2G 6
  23697154.776     -443390.326 5   -289149.02221
  23309078.214    -3052653.996 5  -1657687.31121
  22378524.362     7202920.559 5   5619336.84521
  20699434.737   -17222470.800 8 -13349075.66223
  21320940.831   -15663192.843 7 -10649766.20922
 91  3 21  1  0 29.9990000  0  5G15G13G19G 2G 6
  23692902.6594    -465744.57346   -306567.83561
  23297660.3944   -3112679.01445  -1704459.81061
  22384533.097     7234504.891 5   5643947.96821
  20698631.323   -17226689.731 8 -13352363.12423
  21315292.3314  -15692877.09447 -10672896.72462
 91  3 21  1  0 44.9990000  0  5G15G13G19G 2G 6
  23688669.5814    -487998.98946   -323908.82061
  23286242.495    -3172658.031 5  -1751196.44221
  22390558.706     7266156.821 5   5668611.75821
  20697838.065   -17230859.668 8 -13355612.40423
  21309649.1594  -15722526.27247 -10695999.92862
 91  3 21  1  0 59.9990000  0  5G15G13G19G 2G 6
  23684446.870     -510158.732 6   -341176.04121
  23274839.1984   -3232596.39245  -1797901.36261
  22396593.112     7297870.605 5   5693323.75321
  20697050.526   -17234986.451 7 -13358828.05523
  21304013.7924  -15752145.63547 -10719079.88562
 91  3 21  1  1 14.9990000  0  5G15G13G19G 2G 6
  23680250.362     -532216.754 5   -358364.00621
  23263440.425    -3292486.639 5  -1844568.83021
  22402641.933     7329653.300 5   5718089.44321
  20696276.433   -17239063.214 8 -13362004.74123
  21298384.4174  -15781728.10847 -10742131.10562
 91  3 21  1  1 29.9990000  0  5G15G13G19G 2G 6
  23676069.300     -554173.722 5   -375473.26921
  23252053.206    -3352329.078 5  -1891199.00221
  22408702.4644    7361504.11245   5742908.21661
  20695509.940   -17243090.847 8 -13365143.13923
  21292761.0424  -15811274.14747 -10765153.92862
 91  3 21  1  1 44.9990000  0  5G15G13G19G 2G 6
  23671912.0424    -576032.08945   -392505.66461
  23240676.612    -3412126.392 5  -1937794.06121
  22414774.636     7393419.987 5   5767777.67921
  20694753.245   -17247072.311 8 -13368245.55923
  21287145.2144  -15840786.60947 -10788150.58662
 91  3 21  1  1 59.9990000  0  5G15G13G19G 2G 6
  23667772.526     -597789.143 5   -409459.09021
  23229305.0424   -3471876.08745  -1984351.98661
  22420866.4094    7425403.23645   5792699.65061
  20694003.995   -17251005.493 8 -13371310.36223
  21281536.9334  -15870263.00547 -10811119.13462
 91  3 21  1  2 14.9990000  0  5G15G13G19G 2G 6
  23663650.737     -619442.855 5   -426332.03021
  23217946.659    -3531576.019 5  -2030871.15821
  22426960.7614    7457455.36245   5817675.29061
  20693264.026   -17254888.831 8 -13374336.31823
  21275934.456   -15899701.257 7 -10834057.95522
 91  3 21  1  2 29.9990000  0  5G15G13G19G 2G 6
  23659553.0584    -640995.85246   -443126.46661
  23206593.4094   -3591228.37245  -2077353.23561
  22433071.300     7489573.543 5   5842702.40221
  20692535.917   -17258725.032 8 -13377325.54823
  21270338.925   -15929103.955 7 -10856969.07022
 91  3 21  1  2 44.9990000  0  5G15G13G19G 2G 6
  23655469.4014    -662446.84345   -459841.43661
  23195246.0974   -3650831.79845  -2123797.19761
  22439198.261     7521758.733 5   5867781.71821
  20691813.855   -17262513.018 8 -13380277.20423
  21264749.933   -15958469.942 7 -10879851.57922
 91  3 21  1  2 59.9990000  0  5G15G13G19G 2G 6
  23651405.011     -683794.993 5   -476476.26021
  23183915.3944   -3710385.50745  -2170202.41061
  22445336.870     7554011.429 5   5892913.64121
  20691102.315   -17266252.595 8 -13383191.13923
  21259169.8554  -15987798.50547 -10902704.93962
 91  3 21  1  3 14.9990000  0  5G15G13G19G 2G 6
  23647364.2614    -705041.35645   -493031.76661
  23172594.065    -3769890.576 5  -2216569.75521
  22451484.151     7586330.309 5   5918097.13821
  20690400.019   -17269945.033 8 -13386068.34023
  21253595.730   -16017090.600 7 -10925529.87722
 91  3 21  1  3 29.9990000  0  5G15G13G19G 2G 6
  23643340.667     -726188.401 5   -509509.89821
  23161275.7064   -3829349.48445  -2262901.09961
  22457646.065     7618712.412 5   5943329.90421
  20689706.526   -17273593.290 8 -13388911.11924
  21248027.894   -16046348.880 7 -10948328.46222
 91  3 21  1  3 44.9990000  0  5G15G13G19G 2G 6
  23639332.683     -747229.187 5   -525905.21121
  23149973.2454   -3888754.85645  -2309190.74061
  22463823.761     7651164.465 5   5968617.17221
  20689022.261   -17277190.699 8 -13391714.26924
  21242468.230   -16075566.449 7 -10971095.31922
 91  3 21  1  3 59.9990000  0  5G15G13G19G 2G 6
  23635349.3704    -768171.06345   -542223.48061
  23138680.261    -3948114.232 5  -2355444.55521
  22470009.386     7683678.688 5   5993952.87121
  20688345.815   -17280745.069 8 -13394483.88624
  21236914.6594  -16104750.73447 -10993836.25862
 91  3 21  1  4 14.9990000  0  5G15G13G19G 2G 6
  23631385.308     -789009.157 5   -558460.85621
  23127391.1594   -4007422.60345  -2401658.60561
  22476212.956     7716259.736 5   6019340.66521
  20687677.605   -17284251.974 8 -13397216.51823
  21231368.8704  -16133896.96047 -11016547.54262
 91  3 21  1  4 29.9990000  0  5G15G13G19G 2G 6
  23627436.683     -809744.842 5   -574618.43421
  23116114.214    -4066681.026 5  -2447833.75021
  22482423.245     7748906.217 5   6044779.43021
  20687019.355   -17287712.708 8 -13399913.17424
  21225829.519   -16163006.201 7 -11039229.99022
 91  3 21  1  4 44.9990000  0  5G15G13G19G 2G 6
  23623512.448     -830375.771 6   -590694.38821
  23104845.8474   -4125887.13645  -2493968.11561
  22488646.034     7781619.999 5   6070270.63321
  20686370.386   -17291125.118 8 -13402572.17323
  21220297.4094  -16192076.20747 -11061881.87862
 91  3 21  1  4 59.9990000  0  5G15G13G19G 2G 6
  23619605.894     -850903.931 5   -606690.25821
  23093593.1904   -4185042.99145  -2540063.31661
  22494884.589     7814398.433 5   6095812.22221
  20685728.870   -17294491.865 8 -13405195.59123
  21214773.0814  -16221109.29547 -11084504.99262
 91  3 21  1  5 14.9990000  0  5G15G13G19G 2G 6
  23615720.5504    -871328.14746   -622605.13461
  23082342.011    -4244147.519 5  -2586118.54821
  22501138.073     7847242.253 5   6121404.76221
  20685096.862   -17297812.426 8 -13407783.02423
  21209254.7374  -16250104.42347 -11107098.54262
 91  3 21  1  5 29.9990000  0  5G15G13G19G 2G 6
  23611853.9804    -891650.90946   -638440.95961
  23071108.558    -4303203.034 5  -2632135.57021
  22507396.7374    7880148.65145   6147046.05561
  20684472.519   -17301089.461 8 -13410336.53023
  21203743.4954  -16279064.01647 -11129664.39562
 91  3 21  1  5 44.9990000  0  5G15G13G19G 2G 6
  23608005.487     -911865.354 5   -654192.38221
  23059874.784    -4362202.251 5  -2678108.72621
  22513672.917     7913124.460 5   6172741.44321
  20683858.644   -17304316.370 8 -13412850.98423
  21198241.6284  -16307981.18647 -11152197.19362
 91  3 21  1  5 59.9990000  0  5G15G13G19G 2G 6
  23604175.9094    -931979.92445   -669865.97561
  23048656.628    -4421153.899 5  -2724044.81221
  22519958.4874    7946160.79145   6198484.00261
  20683252.823   -17307501.968 8 -13415333.24223
  21192745.1054  -16336864.43947 -11174703.56362
 91  3 21  1  6 14.9990000  0  5G15G13G19G 2G 6
  23600370.667     -951989.519 5   -685457.79621
  23037449.1054   -4480052.67545  -2769939.71261
  22526258.9804    7979262.30045   6224277.34861
  20682654.901   -17310641.616 8 -13417779.70223
  21187255.1984  -16365708.88847 -11197179.70362
 91  3 21  1  6 29.9990000  0  5G15G13G19G 2G 6
  23596580.6364    -971892.80145   -700966.75861
  23026252.612    -4538897.021 6  -2815792.19121
  22532572.7764    8012430.18645   6250122.41561
  20682066.565   -17313734.095 8 -13420189.40223
  21181774.4564  -16394513.05247 -11219624.43862
 91  3 21  1  6 44.9990000  0  5G15G13G19G 2G 6
  23592813.0734    -991690.68345   -716393.58561
  23015067.6754   -4597687.72446  -2861602.86661
  22538893.737     8045663.387 5   6276018.36421
  20681486.964   -17316780.673 8 -13422563.33424
  21176299.6984  -16423277.68247 -11242038.37162
 91  3 21  1  6 59.9990000  0  5G15G13G19G 2G 6
  23589068.222    -1011386.091 5   -731740.57621
  23003888.6594   -4656427.63146  -2907373.97061
  22545229.948     8078958.188 5   6301962.32021
  20680916.0894  -17319784.67548 -13424904.08663
  21170833.4564  -16452005.99947 -11264424.01562
 91  3 21  1  7 14.9990000  0  5G15G13G19G 2G 6
  23585337.8784   -1030980.10645   -747008.53461
  22992720.2694   -4715117.73246  -2953106.28461
  22551577.480     8112313.326 5   6327953.28721
  20680351.667   -17322747.531 8 -13427212.78324
  21165373.401   -16480699.088 7 -11286782.20122
 91  3 21  1  7 29.9990000  0  5G15G13G19G 2G 6
  23581628.3234   -1050470.68545   -762195.91561
  22981559.0114   -4773756.39846  -2998798.49461
  22557936.940     8145730.387 5   6353992.50421
  20679797.050   -17325667.779 8 -13429488.28123
  21159920.105   -16509355.217 7 -11309111.60822
 91  3 21  1  7 44.9990000  0  5G15G13G19G 2G 6
  23577939.7694   -1069851.56345   -777297.81761
  22970415.1364   -4832336.90646  -3044445.40761
  22564307.972     8179215.534 5   6380084.77721
  20679249.480   -17328539.348 8 -13431725.85123
  21154476.292   -16537967.867 7 -11331407.12223
 91  3 21  1  7 59.9990000  0  5G15G13G19G 2G 6
  23574272.4334   -1089124.48545   -792315.58761
  22959276.776    -4890860.544 5  -3090047.97821
  22570695.261     8212766.732 5   6406228.52021
  20678711.597   -17331364.170 8 -13433926.98324
  21149038.323   -16566538.724 7 -11353670.07823
 91  3 21  1  8 14.9990000  0  5G15G13G19G 2G 6
  23570623.1834   -1108290.75445   -807250.28061
  22948149.151    -4949329.013 5  -3135607.60921
  22577090.136     8246381.980 5   6432422.17221
  20678183.792   -17334144.052 8 -13436093.10124
  21143609.401   -16595069.372 7 -11375901.70023
 91  3 21  1  8 29.9990000  0  5G15G13G19G 2G 6
  23567001.2844   -1127349.83045   -822101.43461
  22937033.386    -5007741.617 5  -3181123.68321
  22583500.472     8280061.704 5   6458666.06421
  20677661.050   -17336878.723 8 -13438223.99324
  21138187.480   -16623559.112 7 -11398101.44523
 91  3 21  1  8 44.9990000  0  5G15G13G19G 2G 6
  23563395.425    -1146300.126 5   -836867.82121
  22925927.269    -5066096.241 5  -3226594.56921
  22589921.464     8313807.598 5   6484961.51321
  20677151.214   -17339566.707 8 -13440318.50423
  21132774.034   -16652006.175 7 -11420267.93423
 91  3 21  1  8 59.9990000  0  5G15G13G19G 2G 6
  23559807.0814   -1165143.61746   -851551.00161
  22914836.409    -5124395.121 5  -3272022.03821
  22596354.628     8347616.802 5   6511306.29921
  20676648.339   -17342210.623 8 -13442378.67423
  21127369.612   -16680412.979 7 -11442403.05223
 91  3 21  1  9 14.9990000  0  5G15G13G19G 2G 6
  23556242.409    -1183877.115 6   -866148.46121
  22903752.886    -5182634.952 6  -3317403.50821
  22602800.972     8381492.329 5   6537702.77121
  20676152.550   -17344807.366 8 -13444402.09123
  21121970.9724  -16708776.21947 -11464504.21663
 91  3 21  1  9 29.9990000  0  5G15G13G19G 2G 6
  23552697.8704   -1202500.53645   -880660.13061
  22892682.9954   -5240815.30746  -3362738.56761
  22609260.167     8415434.011 5   6564150.78421
  20675668.972   -17347357.224 8 -13446388.97423
  21116582.683   -16737095.717 7 -11486571.29923
 91  3 21  1  9 44.9990000  0  5G15G13G19G 2G 6
  23549172.5584   -1221016.87345   -895088.38961
  22881621.6674   -5298939.16946  -3408029.68361
  22615729.886     8449438.502 5   6590647.72521
  20675192.065   -17349863.650 8 -13448342.01523
  21111201.2064  -16765374.53447 -11508606.68363
 91  3 21  1  9 59.9990000  0  5G15G13G19G 2G 6
  23545669.183    -1239429.038 5   -909435.44521
  22870569.0654   -5357009.43946  -3453278.99261
  22622212.808     8483502.642 5   6617191.16321
  20674722.956   -17352329.960 8 -13450263.80223
  21105827.0814  -16793615.71547 -11530612.73363
 91  3 21  1 10 14.9990000  0  5G15G13G19G 2G 6
  23542190.308    -1257730.415 5   -923696.18021
  22859528.698    -5415019.577 5  -3498481.47421
  22628707.019     8517632.436 5   6643785.76421
  20674263.159   -17354749.995 8 -13452149.52323
  21100459.7304  -16821812.72147 -11552584.36662
 91  3 21  1 10 29.9990000  0  5G15G13G19G 2G 6
  23538727.831    -1275922.022 5   -937871.38721
  22848503.3154   -5472970.38046  -3543637.71561
  22635217.5264    8551826.61245   6670430.52161
  20673808.870   -17357124.892 8 -13454000.07124
  21095103.206   -16849966.563 7 -11574522.36622
 91  3 21  1 10 44.9990000  0  5G15G13G19G 2G 6
  23535283.073    -1294001.767 5   -951959.41721
  22837485.464    -5530859.655 6  -3588746.00121
  22641732.222     8586086.958 5   6697126.84321
  20673366.815   -17359452.792 8 -13455813.99824
  21089755.300   -16878074.988 7 -11596424.98623
 91  3 21  1 10 59.9990000  0  5G15G13G19G 2G 6
  23531867.980    -1311970.247 5   -965960.75221
  22826483.847    -5588687.669 6  -3633806.58221
  22648264.433     8620412.531 5   6723873.98721
  20672931.628   -17361734.514 8 -13457591.94223
  21084413.0974  -16906138.68647 -11618292.74562
 91  3 21  1 11 14.9990000  0  5G15G13G19G 2G 6
  23528467.394    -1329828.921 5   -979876.52321
  22815488.3394   -5646455.85046  -3678820.51461
  22654809.433     8654801.681 5   6750670.69121
  20672506.558   -17363971.930 8 -13459335.36623
  21079082.269   -16934159.011 7 -11640126.71323
 91  3 21  1 11 29.9990000  0  5G15G13G19G 2G 6
  23525089.644    -1347575.103 5   -993704.63621
  22804507.6284   -5704161.51246  -3723785.74361
  22661370.800     8689256.760 5   6777518.74921
  20672088.472   -17366162.654 8 -13461042.39923
  21073757.8154  -16962133.37147 -11661924.85263
 91  3 21  1 11 44.9990000  0  5G15G13G19G 2G 6
  23521735.8944   -1365210.87945  -1007446.73261
  22793537.8234   -5761806.86446  -3768703.97261
  22667938.526     8723775.190 5   6804416.18721
  20671681.3314  -17368309.33748 -13462715.11164
  21068442.5894  -16990064.01947 -11683688.92963
 91  3 21  1 11 59.9990000  0  5G15G13G19G 2G 6
  23518396.1124   -1382737.39845  -1021103.69561
  22782582.190    -5819392.788 5  -3813575.90321
  22674516.870     8758355.679 5   6831361.96821
  20671280.886   -17370413.343 8 -13464354.57324
  21063136.628   -17017951.900 7 -11705419.69123
 91  3 21  1 12 14.9990000  0  5G15G13G19G 2G 6
  23515087.198    -1400154.859 5  -1034675.68021
  22771632.526    -5876919.058 5  -3858401.34321
  22681107.355     8792997.697 5   6858355.70521
  20670888.550   -17372475.079 8 -13465961.10324
  21057837.5344  -17045797.26547 -11727117.32462
 91  3 21  1 12 29.9990000  0  5G15G13G19G 2G 6
  23511788.6754   -1417458.71045  -1048159.12161
  22760697.2224   -5934381.01946  -3903176.68461
  22687717.058     8827705.475 5   6885400.67621
  20670505.058   -17374490.152 8 -13467531.27024
  21052547.7144  -17073595.47347 -11748778.20863
 91  3 21  1 12 44.9990000  0  5G15G13G19G 2G 6
  23508520.6594   -1434650.01045  -1061554.88461
  22749773.9094   -5991780.03346  -3947902.97861
  22694327.081     8862477.362 5   6912495.61221
  20670130.409   -17376460.289 8 -13469066.41823
  21047266.503   -17101347.881 7 -11770403.40923
 91  3 21  1 12 59.9990000  0  5G15G13G19G 2G 6
  23505271.792    -1451727.130 5  -1074861.66821
  22738864.300    -6049114.147 6  -3992578.69321
  22700957.769     8897315.143 5   6939641.89021
  20669764.948   -17378383.917 8 -13470565.32924
  21041995.058   -17129052.510 7 -11791991.38323
 91  3 21  1 13 14.9990000  0  5G15G13G19G 2G 6
  23502043.878    -1468693.092 5  -1088081.82121
  22727962.0034   -6106386.31546  -4037206.15661
  22707601.034     8932215.157 5   6966836.66021
  20669406.339   -17380264.416 8 -13472030.62824
  21036731.120   -17156712.702 7 -11813544.72523
 91  3 21  1 13 29.9990000  0  5G15G13G19G 2G 6
  23498836.9804   -1485544.52345  -1101212.74861
  22717077.9564   -6163593.12446  -4081782.66761
  22714251.011     8967180.513 5   6994082.35021
  20669056.073   -17382098.808 8 -13473460.00423
  21031477.1984  -17184325.01547 -11835060.75663
 91  3 21  1 13 44.9990000  0  5G15G13G19G 2G 6
  23495649.5974   -1502283.06145  -1114255.68261
  22706206.7304   -6220736.02946  -4126309.37861
  22720920.745     9002209.163 5   7021377.34921
  20668715.683   -17383889.231 8 -13474855.11824
  21026232.269   -17211891.062 7 -11856540.74222
 91  3 21  1 13 59.9990000  0  5G15G13G19G 2G 6
  23492485.3234   -1518908.46645  -1127210.48961
  22695340.7764   -6277814.46646  -4170785.87861
  22727593.870     9037301.252 5   7048721.78621
  20668385.081   -17385635.299 8 -13476215.66924
  21020994.675   -17239410.345 7 -11877984.28622
 91  3 21  1 14 14.9990000  0  5G15G13G19G 2G 6
  23489344.167    -1535420.878 5  -1140077.23721
  22684493.050    -6334828.837 6  -4215212.44421
  22734286.628     9072456.097 5   7076115.11321
  20668061.112   -17387337.641 8 -13477542.15524
  21015765.503   -17266883.337 7 -11899391.76123
 91  3 21  1 14 29.9990000  0  5G15G13G19G 2G 6
  23486223.2374   -1551816.91845  -1152853.28361
  22673657.9564   -6391775.34746  -4259586.14061
  22740994.339     9107677.040 5   7103559.97421
  20667745.511   -17388993.051 8 -13478832.06624
  21010547.4254  -17294306.28947 -11920760.23763
 91  3 21  1 14 44.9990000  0  5G15G13G19G 2G 6
  23483126.386    -1568099.773 5  -1165541.13721
  22662832.987    -6448657.359 6  -4303909.56321
  22747703.5894    9142960.33445   7131053.37961
  20667437.495   -17390605.111 8 -13480088.19624
  21005339.1054  -17321682.64747 -11942092.39863
 91  3 21  1 14 59.9990000  0  5G15G13G19G 2G 6
  23480050.448    -1584266.032 5  -1178138.14821
  22652019.972    -6505471.258 6  -4348179.91921
  22754429.292     9178308.957 5   7158597.71621
  20667140.042   -17392170.830 7 -13481308.21724
  21000138.9874  -17349008.97347 -11963385.58063
 91  3 21  1 15 14.9990000  0  5G15G13G19G 2G 6
  23476994.4724   -1600317.18945  -1190645.43261
  22641223.144    -6562218.063 6  -4392398.02321
  22761167.987     9213721.394 5   7186191.77321
  20666851.503   -17393691.965 8 -13482493.49824
  20994948.0894  -17376286.65447 -11984640.84963
 91  3 21  1 15 29.9990000  0  5G15G13G19G 2G 6
  23473960.269    -1616248.367 5  -1203059.26421
  22630437.480    -6618893.151 6  -4436560.21621
  22767926.261     9249201.962 5   7213838.90521
  20666571.019   -17395163.852 8 -13483640.39724
  20989767.378   -17403510.991 7 -12005854.57023
 91  3 21  1 15 44.9990000  0  5G15G13G19G 2G 6
  23470952.511    -1632061.024 5  -1215380.71621
  22619667.3314   -6675497.63846  -4480667.38761
  22774683.839     9284749.353 5   7241538.11921
  20666299.3554  -17396588.23548 -13484750.28163
  20984596.7614  -17430683.18447 -12027027.64563
 91  3 21  1 15 59.9990000  0  5G15G13G19G 2G 6
  23467966.011    -1647760.530 5  -1227614.01821
  22608907.0194   -6732036.86046  -4524723.71161
  22781463.0034    9320357.61745   7269284.78761
  20666037.026   -17397970.939 8 -13485827.68824
  20979434.3864  -17457808.70647 -12048164.35663
 91  3 21  1 16 14.9990000  0  5G15G13G19G 2G 6
  23464998.136    -1663345.726 5  -1239758.25421
  22598159.206    -6788509.574 6  -4568728.20421
  22788248.0734    9356027.61145   7297079.53061
  20665781.581   -17399310.929 8 -13486871.81124
  20974280.1364  -17484886.30647 -12069263.72463
 91  3 21  1 16 29.9990000  0  5G15G13G19G 2G 6
  23462056.323    -1678809.128 5  -1251807.58221
  22587425.5894   -6844908.25846  -4612675.02461
  22795049.987     9391766.260 5   7324927.78521
  20665536.112   -17400601.207 8 -13487877.20424
  20969139.831   -17511908.604 7 -12090320.00823
 91  3 21  1 16 44.9990000  0  5G15G13G19G 2G 6
  23459137.3004   -1694158.04245  -1263767.71861
  22576709.0424   -6901240.01446  -4656569.67161
  22801863.175     9427565.928 5   7352823.57021
  20665297.808   -17401849.300 8 -13488849.71624
  20964006.847   -17538882.834 7 -12111338.83223
 91  3 21  1 16 59.9990000  0  5G15G13G19G 2G 6
  23456236.1364   -1709386.41645  -1275633.88861
  22566001.2844   -6957498.76046  -4700407.45361
  22808689.206     9463432.351 5   7380771.38521
  20665070.495   -17403049.573 8 -13489784.97124
  20958884.2614  -17565802.95147 -12132315.48563
 91  3 21  1 17 14.9990000  0  5G15G13G19G 2G 6
  23453362.1834   -1724498.73445  -1287409.63261
  22555309.1674   -7013688.68146  -4744191.58161
  22815524.6364    9499361.00245   7408767.68261
  20664849.3864  -17404206.53048 -13490686.47064
  20953769.089   -17592673.246 7 -12153253.33523
 91  3 21  1 17 29.9990000  0  5G15G13G19G 2G 6
  23450509.440    -1739494.095 5  -1299094.26421
  22544631.7694   -7069808.95346  -4787921.45361
  22822375.745     9535352.243 5   7436812.76321
  20664638.792   -17405319.650 8 -13491553.81324
  20948666.323   -17619492.967 7 -12174151.76623
 91  3 21  1 17 44.9990000  0  5G15G13G19G 2G 6
  23447677.769    -1754373.380 5  -1310688.42221
  22533963.3394   -7125859.94746  -4831597.34861
  22829234.284     9571405.220 5   7464905.93621
  20664435.347   -17406389.876 8 -13492387.73824
  20943572.315   -17646262.654 7 -12195011.21023
 91  3 21  1 17 59.9990000  0  5G15G13G19G 2G 6
  23444866.0504   -1769132.15945  -1322188.69161
  22523306.2764   -7181837.13946  -4875215.71461
  22836110.925     9607524.062 5   7493050.43321
  20664239.745   -17407413.040 8 -13493184.99524
  20938489.909   -17672978.012 7 -12215828.32323
 91  3 21  1 18 14.9990000  0  5G15G13G19G 2G 6
  23442082.6834   -1783769.44745  -1333594.29461
  22512672.948    -7237739.685 6  -4918775.93421
  22842996.0114    9643709.24745   7521246.62761
  20664052.815   -17408388.631 8 -13493945.17924
  20933415.276   -17699637.996 7 -12236602.28723
 91  3 21  1 18 29.9990000  0  5G15G13G19G 2G 6
  23439319.331    -1798288.252 5  -1344907.55621
  22502047.284    -7293570.223 6  -4962280.05321
  22849891.964     9679957.495 5   7549491.95921
  20663878.651   -17409319.584 8 -13494670.57524
  20928352.425   -17726245.558 7 -12257335.39523
 91  3 21  1 18 44.9990000  0  5G15G13G19G 2G 6
  23436578.2764   -1812689.58545  -1356129.32461
  22491438.495    -7349329.781 6  -5005728.84321
  22856799.745     9716267.409 5   7577785.34821
  20663708.433   -17410207.647 8 -13495362.54824
  20923298.698   -17752801.832 7 -12278028.54723
 91  3 21  1 18 59.9990000  0  5G15G13G19G 2G 6
  23433863.8234   -1826973.10045  -1367259.26361
  22480840.972    -7405018.217 6  -5049122.23821
  22863723.386     9752638.874 5   7606126.70321
  20663547.503   -17411053.033 8 -13496021.27124
  20918252.331   -17779306.608 7 -12298681.56923
 91  3 21  1 19 14.9990000  0  5G15G13G19G 2G 6
  23431169.401    -1841136.486 5  -1378295.60121
  22470258.9954   -7460632.85146  -5092458.10461
  22870658.128     9789074.058 5   7634517.69321
  20663395.175   -17411853.208 8 -13496644.75824
  20913221.6054  -17805757.31747 -12319292.44663
 91  3 21  1 19 29.9990000  0  5G15G13G19G 2G 6
  23428495.230    -1855180.104 5  -1389238.59121
  22459689.2454   -7516173.81346  -5135736.56361
  22877604.042     9825572.486 5   7662957.96321
  20663250.784   -17412608.912 8 -13497233.59924
  20908198.800   -17832154.214 7 -12339861.40623
 91  3 21  1 19 44.9990000  0  5G15G13G19G 2G 6
  23425845.487    -1869101.970 5  -1400086.73021
  22449132.276    -7571638.986 6  -5178955.99221
  22884559.3784    9862135.49645   7691448.57061
  20663116.917   -17413318.495 8 -13497786.49324
  20903184.636   -17858495.464 7 -12360387.00223
 91  3 21  1 19 59.9990000  0  5G15G13G19G 2G 6
  23423220.0264   -1882899.13245  -1410837.69761
  22438593.0344   -7627025.25246  -5222113.91961
  22891531.2764    9898765.89945   7719991.68461
  20662988.776   -17413979.183 8 -13498301.29024
  20898183.5974  -17884777.84747 -12380866.72563
 91  3 21  1 20 14.9990000  0  5G15G13G19G 2G 6
  23420617.1124   -1896577.59345  -1421496.17061
  22428067.5344   -7682338.92946  -5265215.30661
  22898512.730     9935457.295 5   7748582.32821
  20662872.378   -17414597.458 8 -13498783.03624
  20893192.370   -17911007.612 7 -12401305.44523
 91  3 21  1 20 29.9990000  0  5G15G13G19G 2G 6
  23418035.690    -1910134.690 5  -1432060.06621
  22417555.2374   -7737576.96346  -5308257.72961
  22905508.1364    9972212.08545   7777222.36861
  20662762.487   -17415170.756 8 -13499229.74323
  20888212.683   -17937181.771 7 -12421700.83723
 91  3 21  1 20 44.9990000  0  5G15G13G19G 2G 6
  23415480.386    -1923573.178 5  -1442531.54321
  22407059.0584   -7792741.66746  -5351243.02661
  22912511.448    10009027.411 5   7805909.58021
  20662661.425   -17415702.152 8 -13499643.79324
  20883241.6124  -17963303.09847 -12442055.05863
 91  3 21  1 20 59.9990000  0  5G15G13G19G 2G 6
  23412948.3394   -1936892.89945  -1452910.45461
  22396575.120    -7847832.724 6  -5394170.91721
  22919528.355    10045903.303 5   7834643.99121
  20662570.870   -17416191.387 8 -13500024.99624
  20878280.167   -17989371.167 7 -12462367.78823
 91  3 21  1 21 14.9990000  0  5G15G13G19G 2G 6
  23410433.167    -1950091.344 5  -1463194.87121
  22386104.6444   -7902847.92746  -5437039.69461
  22926556.269    10082841.530 5   7863426.98121
  20662486.065   -17416636.713 8 -13500371.98624
  20873330.675   -18015383.911 7 -12482637.40623
 91  3 21  1 21 29.9990000  0  5G15G13G19G 2G 6
  23407945.862    -1963165.744 5  -1473382.64421
  22375652.3314   -7957784.05446  -5479846.88661
  22933601.6054   10119844.81445   7892260.65861
  20662407.862   -17417035.431 8 -13500682.65424
  20868392.5814  -18041338.24547 -12502861.52663
 91  3 21  1 21 44.9990000  0  5G15G13G19G 2G 6
  23405479.315    -1976120.822 5  -1483477.42621
  22365210.112    -8012645.531 6  -5522595.89321
  22940657.034    10156908.029 5   7921141.04521
  20662341.870   -17417392.591 8 -13500960.94123
  20863462.878   -18067238.761 7 -12523043.69623
 91  3 21  1 21 59.9990000  0  5G15G13G19G 2G 6
  23403035.644    -1988957.007 5  -1493479.57021
  22354788.948    -8067432.657 6  -5565286.97921
  22947719.105    10194030.416 5   7950067.51721
  20662280.097   -17417708.625 8 -13501207.17324
  20858544.839   -18093085.759 7 -12543184.16223
 91  3 21  1 22 14.9990000  0  5G15G13G19G 2G 6
  23400615.5584   -2001672.56545  -1503387.72361
  22344375.495    -8122144.003 6  -5607918.99421
  22954791.4174   10231213.40245   7979041.23261
  20662229.253   -17417982.166 8 -13501420.29824
  20853634.394   -18118877.582 7 -12563281.63423
 91  3 21  1 22 29.9990000  0  5G15G13G19G 2G 6
  23398220.558    -2014266.382 5  -1513201.01421
  22333979.7764   -8176778.33446  -5650491.02361
  22961881.214    10268457.729 5   8008062.74221
  20662183.925   -17418212.362 8 -13501599.65124
  20848739.7304  -18144613.14347 -12583335.25963
 91  3 21  1 22 44.9990000  0  5G15G13G19G 2G 6
  23395847.9014   -2026744.70545  -1522924.32061
  22323596.4484   -8231341.51446  -5693007.59461
  22968980.5194   10305757.06845   8037127.10761
  20662147.003   -17418405.706 8 -13501750.28924
  20843851.4094  -18170298.44147 -12603349.71563
 91  3 21  1 22 59.9990000  0  5G15G13G19G 2G 6
  23393496.183    -2039104.619 5  -1532555.34521
  22313225.581    -8285830.024 6  -5735466.00421
  22976085.4804   10343114.20045   8066236.50961
  20662118.3704  -17418559.44148
  20838973.065   -18195930.399 7 -12623322.62023
 91  3 21  1 23 14.9990000  0  5G15G13G19G 2G 6
  23391163.823    -2051345.823 5  -1542093.86321
  22302869.9804   -8340243.98346  -5777866.30561
  22983209.0504   10380528.79045   8095390.70761
  20662097.745   -17418673.686 8
  20834104.6834  -18221508.83547 -12643253.80963
 91  3 21  1 23 29.9990000  0  5G15G13G19G 2G 6
  23388858.4564   -2063465.44545  -1551537.64261
  22292529.9254   -8394580.50746  -5820206.26561
  22990337.042    10418003.407 5   8124591.64721
  20662084.300   -17418745.805 8
  20829248.4724  -18247030.85947 -12663141.04263
 91  3 21  1 23 44.9990000  0  5G15G13G19G 2G 6
  23386575.964    -2075468.014 5  -1560890.21321
  22282203.276    -8448843.607 6  -5862489.00821
  22997476.284    10455533.238 5   8153835.64021
  20662075.620   -17418780.751 8
  20824403.3784  -18272500.92447 -12682987.78463
 91  3 21  1 23 59.9990000  0  5G15G13G19G 2G 6
  23384314.1834   -2087346.59745  -1570146.19461
  22271892.440    -8503026.373 6  -5904709.17721
  23004635.1204   10493124.72645   8183127.67361
  20662077.308   -17418771.734 8
  20819566.1514  -18297912.02047 -12702788.58263
 91  3 21  1 24 14.9990000  0  5G15G13G19G 2G 6
  23382074.8864   -2099103.44445  -1579307.30861
  22261598.5344   -8557130.97046  -5946868.43761
  23011800.581    10530775.584 5   8212465.96321
  20662089.112   -17418721.154 8
  20814741.1594  -18323266.39847 -12722545.17863
 91  3 21  1 24 29.9990000  0  5G15G13G19G 2G 6
  23379861.105    -2110740.123 5  -1588374.80021
  22251317.2924   -8611158.89446  -5988967.93461
  23018972.7534   10568483.93245   8241849.03361
  20662103.745   -17418630.756 8
  20809927.9014  -18348565.40347 -12742258.63163
 91  3 21  1 24 44.9990000  0  5G15G13G19G 2G 6
  23377670.284    -2122256.668 5  -1597348.68121
  22241050.167    -8665109.830 6  -6031007.45221
  23026161.2614   10606249.35645   8271276.58161
  20662129.933   -17418500.945 8
  20805123.815   -18373809.061 7 -12761928.95723
 91  3 21  1 24 59.9990000  0  5G15G13G19G 2G 6
  23375499.144    -2133653.833 5  -1606229.51821
  22230794.698    -8718984.584 6  -6072987.60921
  23033358.698    10644070.911 4   8300747.86621
  20662163.6124  -17418332.65648
  20800330.550   -18398998.125 7 -12781556.75323
 91  3 21  1 25 14.9990000  0  5G15G13G19G 2G 6
  23373355.339    -2144929.225 5  -1615015.49621
  22220557.8864   -8772780.42046  -6114906.25961
  23040566.9254   10681950.83845   8330264.63561
  20662203.1984  -17418123.69048
  20795547.6674  -18424129.98047 -12801139.96163
 91  3 21  1 25 29.9990000  0  5G15G13G19G 2G 6
  23371237.1054   -2156081.04946  -1623705.18061
  22210338.7454   -8826495.33546  -6156761.87461
  23047781.847    10719890.544 5   8359827.97821
  20662248.151   -17417872.495 8 -13501334.54624
  20790777.4874  -18449202.86647 -12820677.21063
 91  3 21  1 25 44.9990000  0  5G15G13G19G 2G 6
  23369135.667    -2167109.854 6  -1632298.99221
  22200131.6124   -8880129.90446  -6198554.86261
  23055013.331    10757889.119 5   8389437.21621
  20662306.5264  -17417579.94948 -13501106.56264
  20786016.651   -18474217.222 7 -12840168.86223
 91  3 21  1 25 59.9990000  0  5G15G13G19G 2G 6
  23367060.386    -2178016.224 5  -1640797.40721
  22189941.5264   -8933684.30446  -6240285.38661
  23062260.120    10795945.678 5   8419091.63121
  20662367.073   -17417246.732 8 -13500846.89324
  20781268.4254  -18499173.40747 -12859615.18163
 91  3 21  1 26 14.9990000  0  5G15G13G19G 2G 6
  23365009.737    -2188802.569 5  -1649202.29821
  22179765.198    -8987160.922 6  -6281955.30421
  23069508.698    10834057.620 5   8448789.19821
  20662436.800   -17416875.394 8 -13500557.52324
  20776529.5424  -18524073.71347 -12879017.95863
 91  3 21  1 26 29.9990000  0  5G15G13G19G 2G 6
  23362979.1984   -2199463.43245  -1657509.42561
  22169602.8944   -9040554.27746  -6323560.33461
  23076773.550    10872230.206 5   8478534.01521
  20662517.878   -17416460.737 8 -13500234.39824
  20771802.284   -18548912.694 7 -12898372.95223
 91  3 21  1 26 44.9990000  0  5G15G13G19G 2G 6
  23360974.4334   -2210003.92245  -1665722.72761
  22159458.417    -9093869.339 6  -6365104.36521
  23084049.862    10910457.790 5   8508321.69421
  20662604.901   -17416008.324 8 -13499881.85224
  20767086.9014  -18573695.47847 -12917684.15563
 91  3 21  1 26 59.9990000  0  5G15G13G19G 2G 6
  23358990.1904   -2220419.90145  -1673839.01861
  22149329.3234   -9147101.55546  -6406583.86261
  23091335.769    10948744.179 4   8538155.19521
  20662697.698   -17415514.287 8 -13499496.87024
  20762382.097   -18598417.808 7 -12936948.25423
 91  3 21  1 27 14.9990000  0  5G15G13G19G 2G 6
  23357033.269    -2230712.212 5  -1681858.94221
  22139213.8154   -9200251.93246  -6447999.57261
  23098631.503    10987088.379 5   8568033.73721
  20662798.050   -17414979.636 8 -13499080.24324
  20757688.925   -18623080.503 7 -12956165.88723
 91  3 21  1 27 29.9990000  0  5G15G13G19G 2G 6
  23355098.2614   -2240878.35545  -1689780.54561
  22129118.362    -9253317.566 6  -6489349.24921
  23105939.831    11025492.864 5   8597959.26521
  20662908.097   -17414401.925 8 -13498630.05924
  20753008.183   -18647680.801 7 -12975334.90323
 91  3 21  1 27 44.9990000  0  5G15G13G19G 2G 6
  23353187.1364   -2250921.26645  -1697606.12561
  22119034.355    -9306301.051 6  -6530634.91621
  23113258.1834   11063954.41245   8627929.25161
  20663025.745   -17413784.216 8 -13498148.70624
  20748337.206   -18672221.413 7 -12994457.41023
 91  3 21  1 27 59.9990000  0  5G15G13G19G 2G 6
  23351298.5584   -2260840.19045  -1705335.08961
  22108965.409    -9359201.646 6  -6571855.99721
  23120592.3554   11102473.48944   8657944.05961
  20663153.972   -17413125.904 8 -13497635.72224
  20743679.784   -18696701.413 7 -13013532.68223
 91  3 21  1 28 14.9990000  0  5G15G13G19G 2G 6
  23349435.7844   -2270633.63145  -1712966.28461
  22098916.706    -9412017.773 6  -6613011.26121
  23127928.706    11141051.218 5   8688004.58121
  20663284.565   -17412425.725 8 -13497090.11624
  20739031.917   -18721119.300 7 -13032559.54923
 91  3 21  1 28 29.9990000  0  5G15G13G19G 2G 6
  23347597.3554   -2280299.63545  -1720498.16161
  22088881.011    -9464747.619 6  -6654099.28421
  23135279.394    11179689.037 5   8718111.92221
  20663425.534   -17411682.485 8 -13496510.94524
  20734397.175   -18745473.491 7 -13051536.78923
 91  3 21  1 28 44.9990000  0  5G15G13G19G 2G 6
  23345777.136    -2289843.003 5  -1727934.49921
  22078864.769    -9517395.647 6  -6695123.55221
  23142646.9014   11218381.95845   8748262.19561
  20663573.870   -17410900.975 8 -13495901.95824
  20729773.4404  -18769768.49747 -13070467.90563
 91  3 21  1 28 59.9990000  0  5G15G13G19G 2G 6
  23343987.9334   -2299258.29445  -1735271.01761
  22068861.1514   -9569956.04046  -6736079.54461
  23150020.433    11257135.163 5   8778459.44621
  20663732.315   -17410075.661 8 -13495258.83624
  20725163.6124  -18793998.64747 -13089348.48063
 91  3 21  1 29 14.9990000  0  5G15G13G19G 2G 6
  23342220.3234   -2308547.45246  -1742509.26061
  22058872.8784   -9622430.45146  -6776968.53661
  23157407.034    11295946.349 5   8808701.87921
  20663897.026   -17409208.782 8 -13494583.32124
  20720565.198   -18818165.691 7 -13108179.89223
 91  3 21  1 29 29.9990000  0  5G15G13G19G 2G 6
  23340478.5114   -2317711.10146  -1749649.71761
  22048906.206    -9674819.430 6  -6817790.97021
  23164804.0194   11334814.66545   8838988.82861
  20664071.144   -17408301.315 8 -13493876.18424
  20715977.698   -18842270.268 7 -13126962.63123
 91  3 21  1 29 44.9990000  0  5G15G13G19G 2G 6
  23338756.1284   -2326751.00146  -1756693.73261
  22038954.0814   -9727124.78646  -6858548.21961
  23172207.495    11373738.086 4   8869318.71521
  20664252.698   -17407355.334 8 -13493139.03624
  20711403.5034  -18866314.12747 -13145698.06163
 91  3 21  1 29 59.9990000  0  5G15G13G19G 2G 6
  23337061.105    -2335659.994 6  -1763635.74021
  22029017.011    -9779339.504 6  -6899234.86021
  23179629.4874   11412723.33444   8899696.76861
  20664438.7844  -17406363.79648 -13492366.38164
  20706839.323   -18890289.884 7 -13164380.42423
 91  3 21  1 30 14.9990000  0  5G15G13G19G 2G 6
  23335388.4334   -2344441.33046  -1770478.27761
  22019097.534    -9831466.084 6  -6939852.80621
  23187059.081    11451767.185 4   8930120.49521
  20664636.026   -17405329.907 8 -13491560.73724
  20702290.276   -18914200.519 7 -13183012.03523
 91  3 21  1 30 29.9990000  0  5G15G13G19G 2G 6
  23333744.034    -2353097.107 6  -1777222.97221
  22009194.9874   -9883506.58946  -6980403.69861
  23194500.9804   11490867.27445   8960588.02761
  20664839.964   -17404255.860 8 -13490723.80624
  20697751.401   -18938048.143 7 -13201594.54723
 91  3 21  1 30 44.9990000  0  5G15G13G19G 2G 6
  23332118.901    -2361629.620 5  -1783871.61721
  21999306.355    -9935462.813 6  -7020888.90621
  23201949.105    11530021.373 4   8991097.66321
  20665052.433   -17403144.116 8 -13489857.49724
  20693225.487   -18961834.634 7 -13220129.42223
 91  3 21  1 30 59.9990000  0  5G15G13G19G 2G 6
  23330518.4724   -2370035.59246  -1790421.67461
  21989436.026    -9987331.959 6  -7061306.26021
  23209408.9484   11569232.01944   9021651.34661
  20665270.909   -17401991.928 8 -13488959.66424
  20688711.690   -18985556.949 7 -13238614.29223
 91  3 21  1 31 14.9990000  0  5G15G13G19G 2G 6
  23328942.9724   -2378315.49045  -1796873.48161
  21979581.9334  -10039114.07146  -7101655.79961
  23216885.2764   11608498.42744   9052248.48761
  20665497.9644  -17400800.08148 -13488030.92964
  20684210.433   -19009215.484 7 -13257049.46123
 91  3 21  1 31 29.9990000  0  5G15G13G19G 2G 6
  23327389.964    -2386465.581 5  -1803224.12821
  21969745.9724  -10090805.25646  -7141934.48961
  23224367.0034   11647824.11944   9082891.82561
  20665731.925   -17399564.940 8 -13487068.45824
  20679720.003   -19032806.335 7 -13275431.89223
 91  3 21  1 31 44.9990000  0  5G15G13G19G 2G 6
  23325865.5814   -2394489.47845  -1809476.45861
  21959926.331   -10142408.881 6  -7182144.94021
  23231862.2064   11687205.40744   9113578.49361
  20665975.183   -17398290.101 8 -13486075.05624
  20675242.3784  -19056332.94047 -13293764.27163
 91  3 21  1 31 59.9990000  0  5G15G13G19G 2G 6
  23324363.909    -2402385.089 5  -1815628.80821
  21950123.909   -10193922.727 6  -7222285.45121
  23239365.8084   11726644.10144   9144309.87261
  20666224.565   -17396973.684 8 -13485049.27124
  20670778.370   -19079792.965 7 -13312044.76623
 91  3 21  1 32 14.9990000  0  5G15G13G19G 2G 6
  23322881.6054   -2410155.83445  -1821683.87861
  21940335.7224  -10245350.38446  -7262358.79261
  23246877.3004   11766136.07044   9175082.77361
  20666484.159   -17395619.777 8 -13483994.24724
  20666325.948   -19103190.144 7 -13330276.27623
 91  3 21  1 32 29.9990000  0  5G15G13G19G 2G 6
  23321427.417    -2417797.008 5  -1827637.98621
  21930565.2064  -10296686.71446  -7302360.96761
  23254405.1124   11805685.86844   9205900.76061
  20666748.956   -17394223.421 8 -13482906.15524
  20661886.839   -19126519.337 7 -13348454.82123
 91  3 21  1 32 44.9990000  0  5G15G13G19G 2G 6
  23320001.9874   -2425311.44945  -1833493.33761
  21920815.300   -10347934.213 6  -7342293.92621
  23261941.206    11845290.580 4   9236761.53121
  20667022.534   -17392787.416 8 -13481787.17024
  20657458.198   -19149783.063 7 -13366582.34723
 91  3 21  1 32 59.9990000  0  5G15G13G19G 2G 6
  23318595.1204   -2432692.33445  -1839244.61861
  21911081.667   -10399086.214 6  -7382152.46121
  23269490.690    11884956.642 4   9267670.10821
  20667304.581   -17391305.656 8 -13480632.53224
  20653046.183   -19172974.713 7 -13384653.71523
 91  3 21  1 33 14.9990000  0  5G15G13G19G 2G 6
  23317214.7924   -2439942.69645  -1844894.17061
  21901364.4014  -10450145.42446  -7421938.71061
  23277049.3084   11924680.93844   9298624.06061
  20667593.925   -17389781.138 8 -13479444.58224
  20648645.909   -19196097.024 7 -13402671.05023
 91  3 21  1 33 29.9990000  0  5G15G13G19G 2G 6
  23315859.714    -2447066.983 5  -1850445.52621
  21891665.0734  -10501116.09746  -7461655.96461
  23284619.331    11964458.852 4   9329619.79321
  20667892.480   -17388218.411 8 -13478226.85524
  20644257.940   -19219154.296 7 -13420637.71323
 91  3 21  1 33 44.9990000  0  5G15G13G19G 2G 6
  23314530.9874   -2454060.12745  -1855894.66661
  21881984.706   -10551992.947 6  -7501300.10621
  23292201.4174   12004295.01745   9360660.92861
  20668196.370   -17386612.622 8 -13476975.57424
  20639884.128   -19242141.425 7 -13438549.70923
 91  3 21  1 33 59.9990000  0  5G15G13G19G 2G 6
  23313222.8314   -2460920.68745  -1861240.50361
  21872320.0734  -10602774.78146  -7540870.21461
  23299795.3554   12044190.23844   9391748.04461
  20668511.269   -17384962.777 8 -13475689.96424
  20635522.761   -19265057.104 7 -13456406.03923
 91  3 21  1 34 14.9990000  0  5G15G13G19G 2G 6
  23311944.1594   -2467651.62746  -1866485.31561
  21862675.081   -10653463.753 6  -7580367.97521
  23307396.659    12084141.993 5   9422879.22921
  20668832.081   -17383271.686 8 -13474372.20924
  20631174.792   -19287903.613 7 -13474208.47023
 91  3 21  1 34 29.9990000  0  5G15G13G19G 2G 6
  23310684.323    -2474250.847 5  -1871627.50421
  21853044.9564  -10704057.62046  -7619791.61861
  23315009.9014   12124151.77944   9454055.62961
  20669162.417   -17381537.377 7 -13473020.78424
  20626842.269   -19310678.963 7 -13491955.45423
 91  3 21  1 34 44.9990000  0  5G15G13G19G 2G 6
  23309455.909    -2480719.667 5  -1876668.08421
  21843437.2694  -10754557.74746  -7659142.21761
  23322627.565    12164217.916 4   9485275.95221
  20669500.573   -17379761.489 8 -13471636.95324
  20622519.722   -19333384.289 7 -13509647.87223
 91  3 21  1 34 59.9990000  0  5G15G13G19G 2G 6
  23308248.6444   -2487056.79745  -1881606.03661
  21833845.1444  -10804962.68846  -7698418.63561
  23330271.2844   12204341.39345   9516540.94261
  20669846.620   -17377942.988 8 -13470219.92724
  20618213.917   -19356018.295 7 -13527284.70723
 91  3 21  1 35 14.9990000  0  5G15G13G19G 2G 6
  23307068.5584   -2493263.39146  -1886442.28061
  21824269.0974  -10855273.47746  -7737621.69361
  23337914.1514   12244520.92345   9547849.63861
  20670200.761   -17376083.122 7 -13468770.65924
  20613919.917   -19378581.894 7 -13544866.68723
 91  3 21  1 35 29.9990000  0  5G15G13G19G 2G 6
  23305910.292    -2499339.011 6  -1891176.46321
  21814715.159   -10905489.283 6  -7776750.75821
  23345570.808    12284756.929 4   9579202.31921
  20670563.542   -17374181.455 8 -13467288.81724
  20609640.214   -19401074.383 7 -13562393.25123
 91  3 21  1 35 44.9990000  0  5G15G13G19G 2G 6
  23304779.534    -2505286.210 6  -1895810.58021
  21805176.5194  -10955612.55746  -7815807.70361
  23353239.7224   12325046.45444   9610596.71761
  20670932.503   -17372241.030 7 -13465776.77724
  20605373.362   -19423498.290 7 -13579866.37823
 91  3 21  1 35 59.9990000  0  5G15G13G19G 2G 6
  23303675.7694   -2511096.81846  -1900338.26261
  21795657.144   -11005634.929 6  -7854786.03721
  23360915.1514   12365397.43644   9642038.97161
  20671309.5034  -17370253.46747 -13464228.00264
  20601121.323   -19445845.190 7 -13597279.49923
 91  3 21  1 36 14.9990000  0  5G15G13G19G 2G 6
  23302592.980    -2516775.725 6  -1904763.30321
  21786156.3864  -11055561.22446  -7893689.48361
  23368603.081    12405804.570 4   9673525.00421
  20671695.222   -17368223.913 7 -13462646.50624
  20596881.823   -19468119.898 7 -13614636.36123
 91  3 21  1 36 29.9990000  0  5G15G13G19G 2G 6
  23301537.636    -2522325.209 5  -1909087.51121
  21776673.612   -11105393.507 6  -7932519.69621
  23376307.855    12446265.509 3   9705052.95921
  20672090.097   -17366154.788 8 -13461034.18224
  20592656.315   -19490324.559 7 -13631938.64523
 91  3 21  1 36 44.9990000  0  5G15G13G19G 2G 6
  23300505.964    -2527744.296 6  -1913310.12321
  21767210.722   -11155130.474 6  -7971275.62221
  23384012.4334   12486781.18943   9736623.56661
  20672490.948   -17364044.953 8 -13459390.14224
  20588444.308   -19512457.788 7 -13649185.26523
 91  3 21  1 36 59.9990000  0  5G15G13G19G 2G 6
  23299500.534    -2533032.010 6  -1917430.36721
  21757762.042   -11204771.067 6  -8009956.45521
  23391735.0264   12527352.11143   9768237.23661
  20672899.081   -17361893.887 7 -13457713.96524
  20584245.839   -19534518.697 7 -13666375.53223
 91  3 21  1 37 14.9990000  0  5G15G13G19G 2G 6
  23298519.815    -2538186.878 6  -1921447.10021
  21748332.5114  -11254313.65546  -8048560.92361
  23399469.355    12567979.378 3   9799894.79121
  20673318.065   -17359700.507 7 -13456004.82024
  20580063.159   -19556505.690 7 -13683508.20623
 91  3 21  1 37 29.9990000  0  5G15G13G19G 2G 6
  23297565.2694   -2543210.90946  -1925361.86061
  21738924.1364  -11303760.06146  -8087090.45561
  23407208.503    12608660.795 3   9831594.53021
  20673743.987   -17357466.895 8 -13454264.32024
  20575891.3704  -19578420.53847 -13700584.66963
 91  3 21  1 37 44.9990000  0  5G15G13G19G 2G 6
  23296633.0974   -2548098.61246  -1929170.39561
  21729534.026   -11353104.498 6  -8125540.51921
  23414958.026    12649401.492 3   9863340.48821
  20674176.386   -17355187.705 7 -13452488.31024
  20571737.198   -19600257.718 7 -13717600.61323
 91  3 21  1 37 59.9990000  0  5G15G13G19G 2G 6
  23295730.065    -2552853.468 5  -1932875.42121
  21720161.8474  -11402350.27946  -8163913.70361
  23422719.2924   12690197.99243   9895129.92761
  20674616.714   -17352866.442 7 -13450679.51724
  20567594.636   -19622020.373 7 -13734558.47723
 91  3 21  1 38 14.9990000  0  5G15G13G19G 2G 6
  23294846.026    -2557475.664 5  -1936477.06621
  21710812.058   -11451497.615 6  -8202210.19221
  23430499.1834   12731049.71244   9926962.39461
  20675068.636   -17350503.387 7 -13448838.15524
  20563467.276   -19643708.643 7 -13751458.38223
 91  3 21  1 38 29.9990000  0  5G15G13G19G 2G 6
  23293995.8554   -2561963.04545  -1939973.66961
  21701477.800   -11500544.022 6  -8240428.02821
  23438283.4254   12771958.40243   9958839.25161
  20675525.4094  -17348096.70647 -13446962.79164
  20559353.815   -19665320.251 7 -13768298.55223
 91  3 21  1 38 44.9990000  0  5G15G13G19G 2G 6
  23293164.308    -2566317.792 5  -1943366.92021
  21692164.097   -11549491.658 6  -8278568.90421
  23446076.542    12812921.758 3   9990758.70821
  20675993.237   -17345648.655 8 -13445055.19524
  20555256.190   -19686857.246 7 -13785080.58123
 91  3 21  1 38 59.9990000  0  5G15G13G19G 2G 6
  23292361.8944   -2570540.15945  -1946657.01761
  21682866.940   -11598340.514 6  -8316632.80921
  23453880.8944   12853939.45343  10022720.47361
  20676465.534   -17343159.420 8 -13443115.50924
  20551172.823   -19708319.552 7 -13801804.40023
 91  3 21  1 39 14.9990000  0  5G15G13G19G 2G 6
  23291583.753    -2574628.961 5  -1949843.03021
  21673591.9644  -11647089.15846  -8354618.63361
  23461695.5504   12895012.34943  10054725.29561
  20676947.612   -17340628.187 8 -13441143.10224
  20547102.581   -19729705.887 7 -13818469.02823
 91  3 21  1 39 29.9990000  0  5G15G13G19G 2G 6
  23290830.4644   -2578578.47546  -1952920.50461
  21664335.472   -11695731.680 6  -8392521.75421
  23469523.315    12936145.806 3  10086777.31221
  20677437.7224  -17338049.37547 -13439133.61564
  20543049.065   -19751010.362 7 -13835069.87123
 91  3 21  1 39 44.9990000  0  5G15G13G19G 2G 6
  23290107.1054   -2582396.06346  -1955895.17661
  21655098.034   -11744274.998 6  -8430347.57721
  23477368.058    12977332.357 3  10118870.69521
  20677935.776   -17335430.325 7 -13437092.77324
  20539009.300   -19772239.978 7 -13851612.37623
 91  3 21  1 39 59.9990000  0  5G15G13G19G 2G 6
  23289402.105    -2586080.610 6  -1958766.20221
  21645879.8084  -11792717.66346  -8468094.96161
  23485215.034    13018573.145 4  10151006.30721
  20678441.925   -17332769.998 7 -13435019.77524
  20534983.769   -19793393.479 7 -13868095.57523
 91  3 21  1 40 14.9990000  0  5G15G13G19G 2G 6
  23288731.003    -2589631.896 6  -1961533.37921
  21636680.9804  -11841059.79046  -8505764.01161
  23493073.0504   13059867.79444  10183183.91361
  20678956.886   -17330068.573 7 -13432914.74524
  20530972.605   -19814470.713 7 -13884519.34023
 91  3 21  1 40 29.9990000  0  5G15G13G19G 2G 6
  23288082.6204   -2593047.22046  -1964194.61361
  21627499.597   -11889298.274 6  -8543352.30221
  23500940.3554   13101218.86843  10215405.46261
  20679479.651   -17327323.304 7 -13430775.55124
  20526976.355   -19835468.654 7 -13900881.31423
 91  3 21  1 40 44.9990000  0  5G15G13G19G 2G 6
  23287454.7924   -2596331.51946  -1966753.73961
  21618338.503   -11937437.873 6  -8580863.54121
  23508824.909    13142621.053 4  10247666.87021
  20680006.8234  -17324539.44947 -13428606.28764
  20522995.855   -19856392.306 7 -13917185.39923
 91  3 21  1 40 59.9990000  0  5G15G13G19G 2G 6
  23286855.0114   -2599478.77846  -1969206.10061
  21609198.276   -11985472.501 6  -8618292.98821
  23516708.839    13184080.185 4  10279972.62421
  20680546.4954  -17321711.02147 -13426402.28964
  20519027.995   -19877235.290 7 -13933426.64023
 91  3 21  1 41 14.9990000  0  5G15G13G19G 2G 6
  23286281.495    -2602492.092 6  -1971554.07621
  21600075.964   -12033404.883 6  -8655642.75621
  23524606.1594   13225593.08244  10312320.27961
  20681093.151   -17318840.979 7 -13424165.86924
  20515076.073   -19898000.331 7 -13949607.14223
 91  3 21  1 41 29.9990000  0  5G15G13G19G 2G 6
  23285736.058    -2605372.453 6  -1973798.44321
  21590976.245   -12081236.228 6  -8692913.79421
  23532522.878    13267158.052 4  10344708.53421
  20681646.0654  -17315930.76747 -13421898.14264
  20511140.230   -19918688.697 7 -13965727.89823
 91  3 21  1 41 44.9990000  0  5G15G13G19G 2G 6
  23285212.5114   -2608119.41946  -1975938.88461
  21581892.815   -12128965.533 6  -8730105.32121
  23540435.8704   13308775.93244  10377137.99661
  20682207.089   -17312979.923 7 -13419598.76024
  20507218.214   -19939299.431 7 -13981788.16223
 91  3 21  1 41 59.9990000  0  5G15G13G19G 2G 6
  23284712.9804   -2610732.45946  -1977974.95461
  21572828.5814  -12176592.03546  -8767216.74961
  23548368.651    13350446.860 3  10409608.81521
  20682779.2614  -17309988.11848 -13417267.45864
  20503310.464   -19959831.936 7 -13997787.46523
 91  3 21  1 42 14.9990000  0  5G15G13G19G 2G 6
  23284242.9254   -2613206.81445  -1979902.95261
  21563784.940   -12224110.836 6  -8804244.25621
  23556304.9724   13392175.30543  10442124.45861
  20683355.6054  -17306950.62448 -13414900.55264
  20499419.144   -19980281.196 7 -14013721.90423
 91  3 21  1 42 29.9990000  0  5G15G13G19G 2G 6
  23283797.2764   -2615541.73345  -1981722.31461
  21554765.683   -12271520.796 6  -8841186.94921
  23564262.636    13433961.835 4  10474685.34121
  20683942.511   -17303866.682 7 -13412497.45624
  20495544.081   -20000646.126 7 -14029590.63423
 91  3 21  1 42 44.9990000  0  5G15G13G19G 2G 6
  23283381.1364   -2617738.53145  -1983434.04161
  21545763.050   -12318823.286 6  -8878045.89221
  23572218.9174   13475804.57144  10507290.01961
  20684537.5034  -17300737.98347 -13410059.48464
  20491685.128   -20020928.162 7 -14045394.76923
 91  3 21  1 42 59.9990000  0  5G15G13G19G 2G 6
  23282986.214    -2619801.222 6  -1985041.27121
  21536781.378   -12366021.737 6  -8914823.77421
  23580193.6514   13517699.71644  10539935.53661
  20685139.808   -17297568.354 7 -13407589.62024
  20487840.651   -20041130.816 7 -14061137.04623
 91  3 21  1 43 14.9990000  0  5G15G13G19G 2G 6
  23282620.855    -2621729.210 6  -1986543.55021
  21527820.159   -12413115.744 6  -8951520.25721
  23588175.105    13559647.615 4  10572622.17921
  20685752.5034  -17294357.32847 -13405087.49964
  20484010.644   -20061253.286 7 -14076816.83823
 91  3 21  1 43 29.9990000  0  5G15G13G19G 2G 6
  23282282.5194   -2623523.45646  -1987941.60361
  21518877.472   -12460105.920 6  -8988135.84321
  23596171.511    13601646.939 4  10605348.84321
  20686370.0504  -17291106.02947 -13402553.99664
  20480196.573   -20081296.335 7 -14092434.74323
 91  3 21  1 43 44.9990000  0  5G15G13G19G 2G 6
  23281965.003    -2625183.042 6  -1989234.72221
  21509955.0034  -12506991.06146  -9024669.59061
  23604168.3234   13643698.32844  10638116.12561
  20686997.6204  -17287813.69147 -13399988.50664
  20476397.925   -20101259.008 7 -14107990.02223
 91  3 21  1 43 59.9990000  0  5G15G13G19G 2G 6
  23281671.753    -2626706.073 6  -1990421.44421
  21501053.722   -12553769.477 6  -9061120.17421
  23612180.831    13685803.431 4  10670925.28521
  20687632.347   -17284478.719 7 -13397389.80524
  20472615.292   -20121139.296 7 -14123481.10423
 91  3 21  1 44 14.9990000  0  5G15G13G19G 2G 6
  23281406.206    -2628095.300 6  -1991503.90521
  21492171.2924  -12600443.63246  -9097489.51961
  23620202.909    13727959.058 4  10703773.76621
  20688274.4874  -17281104.04247 -13394760.16264
  20468846.026   -20140940.059 7 -14138910.22223
 91  3 21  1 44 29.9990000  0  5G15G13G19G 2G 6
  23281172.519    -2629348.980 6  -1992480.73821
  21483310.9484  -12647011.56246  -9133776.09461
  23628232.347    13770167.021 3  10736663.05021
  20688924.901   -17277687.859 7 -13392098.18324
  20465094.620   -20160658.995 7 -14154275.57923
 91  3 21  1 44 44.9990000  0  5G15G13G19G 2G 6
  23280957.425    -2630469.346 6  -1993353.69821
  21474468.987   -12693474.994 6  -9169981.23221
  23636276.2844   13812424.88643  10769591.23861
  20689581.558   -17274232.300 7 -13389405.51824
  20461356.136   -20180298.030 7 -14169578.67623
 91  3 21  1 44 59.9990000  0  5G15G13G19G 2G 6
  23280769.3704   -2631453.79646  -1994120.73561
  21465647.8704  -12739831.42347  -9206102.99161
  23644329.2844   13854734.80843  10802559.97261
  20690246.128   -17270735.099 7 -13386680.40524
  20457633.995   -20199854.570 7 -14184817.48523
 91  3 21  1 45 14.9990000  0  5G15G13G19G 2G 6
  23280606.9484   -2632301.62146  -1994781.32061
  21456846.5504  -12786079.67946  -9242140.47361
  23652385.3154   13897097.70743  10835569.98761
  20690920.6124  -17267195.36748 -13383922.14464
  20453930.230   -20219327.253 7 -14199990.95723
 91  3 21  1 45 29.9990000  0  5G15G13G19G 2G 6
  23280479.2924   -2633009.60446  -1995332.93361
  21448066.8474  -12832216.89246  -9278091.42361
  23660470.050    13939515.968 3  10868623.12721
  20691603.409   -17263610.319 8 -13381128.58024
  20450240.495   -20238713.306 7 -14215096.92723
 91  3 21  1 45 44.9990000  0  5G15G13G19G 2G 6
  23280370.940    -2633579.178 6  -1995776.70821
  21439308.3704  -12878243.86847  -9313956.47361
  23668543.550    13981988.416 3  10901718.51521
  20692293.011   -17259981.212 8 -13378300.68124
  20446568.909   -20258013.540 7 -14230136.02023
 91  3 21  1 45 59.9990000  0  5G15G13G19G 2G 6
  23280281.7224   -2634011.23146  -1996113.31361
  21430569.4484  -12924160.91547  -9349735.86461
  23676639.1124   14024514.18843  10934855.42561
  20692991.5654  -17256308.73748 -13375438.98764
  20442912.433   -20277228.479 7 -14245108.65123
 91  3 21  1 46 14.9990000  0  5G15G13G19G 2G 6
  23280226.9404   -2634308.47045  -1996344.86161
  21421851.3624  -12969970.70247  -9385431.68161
  23684743.3004   14067090.15544  10968031.44361
  20693698.909   -17252595.852 8 -13372545.81024
  20439270.644   -20296360.812 7 -14260016.91123
 91  3 21  1 46 29.9990000  0  5G15G13G19G 2G 6
  23280194.089    -2634470.105 6
  21413155.9804  -13015672.47347  -9421043.32461
  23692850.542    14109716.656 3  11001246.87621
  20694413.644   -17248842.002 8 -13369620.71124
  20435646.612   -20315409.589 7 -14274860.06523
 91  3 21  1 46 44.9990000  0  5G15G13G19G 2G 6
  23280193.284    -2634495.324 5
  21404479.8624  -13061265.11447  -9456569.92261
  23700969.6444   14152394.53543  11034502.33261
  20695135.597   -17245046.454 7 -13366663.11724
  20432036.667   -20334373.838 7 -14289637.35723
 91  3 21  1 46 59.9990000  0  5G15G13G19G 2G 6
  23280207.956    -2634380.829 5
  21395824.269   -13106745.277 6  -9492008.88121
  23709107.0974   14195126.81943  11067800.18361
  20695865.808   -17241205.902 8 -13363670.45824
  20428446.401   -20353249.957 7 -14304345.96723
 91  3 21  1 47 14.9990000  0  5G15G13G19G 2G 6
  23280261.3474   -2634126.32845
  21387190.4094  -13152112.41246  -9527359.77961
  23717242.667    14237913.399 3  11101140.32021
  20696605.0894  -17237320.37248 -13360642.74864
  20424871.097   -20372037.446 7 -14318985.52023
 91  3 21  1 47 29.9990000  0  5G15G13G19G 2G 6
  23280334.0814   -2633741.16445
  21378578.4094  -13197375.33946  -9562629.46561
  23725398.300    14280745.061 3  11134515.58321
  20697351.042   -17233399.154 8 -13357587.23024
  20421308.933   -20390745.241 7 -14333562.97323
 91  3 21  1 47 44.9990000  0  5G15G13G19G 2G 6
  23280431.4404   -2633219.21745  -1995495.76861
  21369985.5654  -13242528.07346  -9597813.28861
  23733553.362    14323627.487 3  11167930.41321
  20698106.050   -17229436.222 8 -13354499.20924
  20417767.300   -20409367.355 7 -14348073.66523
 91  3 21  1 47 59.9990000  0  5G15G13G19G 2G 6
  23280557.105    -2632564.539 5  -1994985.58921
  21361414.1984  -13287574.37646  -9632914.17461
  23741731.5114   14366556.50343  11201381.54261
  20698867.081   -17225435.653 8 -13351381.86524
  20414238.9014  -20427907.41847 -14362520.42663
 91  3 21  1 48 14.9990000  0  5G15G13G19G 2G 6
  23280706.605    -2631775.943 5  -1994371.04221
  21352863.097   -13332513.026 6  -9667931.18021
  23749902.011    14409533.107 3  11234869.77921
  20699637.690   -17221396.256 8 -13348234.26524
  20410725.495   -20446364.077 7 -14376902.19423
 91  3 21  1 48 29.9990000  0  5G15G13G19G 2G 6
  23280883.2764   -2630851.47745  -1993650.62161
  21344331.886   -13377341.929 6  -9702862.66521
  23758095.3474   14452558.89943  11268396.34161
  20700411.855   -17217316.363 8 -13345055.10524
  20407230.503   -20464735.290 7 -14391217.38023
 91  3 21  1 48 44.9990000  0  5G15G13G19G 2G 6
  23281085.1904   -2629793.64146  -1992826.28361
  21335819.472   -13422063.266 6  -9737710.34421
  23766280.792    14495631.216 3  11301959.12921
  20701195.9334  -17213198.38248 -13341846.26164
  20403750.292   -20483023.321 7 -14405467.74123
 91  3 21  1 48 59.9990000  0  5G15G13G19G 2G 6
  23281313.495    -2628598.151 6  -1991894.68821
  21327331.5194  -13466672.28946  -9772470.49661
  23774498.050    14538754.153 2  11335561.40621
  20701987.503   -17209037.997 8 -13338604.38224
  20400286.198   -20501223.502 7 -14419649.65523
 91  3 21  1 49 14.9990000  0  5G15G13G19G 2G 6
  23281563.737    -2627267.657 6  -1990857.89321
  21318865.9254  -13511171.44446  -9807145.03561
  23782714.214    14581924.771 3  11369200.79821
  20702787.901   -17204838.140 8 -13335331.74224
  20396838.878   -20519338.348 7 -14433765.07123
 91  3 21  1 49 29.9990000  0  5G15G13G19G 2G 6
  23281842.612    -2625803.790 5  -1989717.16721
  21310416.792   -13555561.945 6  -9841734.90921
  23790940.3084   14625141.60042  11402876.20061
  20703592.573   -17200600.382 8 -13332029.56924
  20393408.792   -20537368.983 7 -14447814.86923
 91  3 21  1 49 44.9990000  0  5G15G13G19G 2G 6
  23282154.987    -2624201.044 6  -1988468.22721
  21301991.5424  -13599838.32247  -9876235.85361
  23799166.550    14668409.733 3  11436591.58221
  20704408.1984  -17196319.22948 -13328693.57964
  20389993.659   -20555309.784 7 -14461794.66923
 91  3 21  1 49 59.9990000  0  5G15G13G19G 2G 6
  23282482.628    -2622464.994 5  -1987115.42821
  21293587.4254  -13644005.76247  -9910651.91861
  23807411.644    14711723.576 2  11470342.58621
  20705227.925   -17192000.236 8 -13325328.10624
  20386597.448   -20573166.123 7 -14475708.65223
 91  3 21  1 50 14.9990000  0  5G15G13G19G 2G 6
  23282834.1984   -2620592.68845  -1985656.45661
  21285202.2304  -13688061.38947  -9944980.86061
  23815659.2614   14755085.57943  11504131.12561
  20706059.1284  -17187640.59048 -13321930.95364
  20383214.065   -20590934.860 7 -14489554.37823
 91  3 21  1 50 29.9990000  0  5G15G13G19G 2G 6
  23283220.6834   -2618583.72146  -1984090.97461
  21276840.1444  -13732004.73447  -9979222.29761
  23823922.7534   14798495.87643  11537957.27561
  20706895.050   -17183240.200 8 -13318502.05424
  20379850.214   -20608615.525 7 -14503331.47123
 91  3 21  1 50 44.9990000  0  5G15G13G19G 2G 6
  23283623.5114   -2616441.96045  -1982422.02261
  21268499.4254  -13775839.23947 -10013378.94061
  23832189.784    14841950.668 3  11571818.12121
  20707739.480   -17178802.798 8 -13315044.31524
  20376502.534   -20626211.648 7 -14517042.69023
 91  3 21  1 50 59.9990000  0  5G15G13G19G 2G 6
  23284060.698    -2614167.884 5  -1980649.96821
  21260177.651   -13819564.851 7 -10047450.71121
  23840470.112    14885449.365 3  11605713.17421
  20708591.5814  -17174328.68648 -13311557.96664
  20373169.706   -20643723.269 7 -14530688.06123
 91  3 21  1 51 14.9990000  0  5G15G13G19G 2G 6
  23284519.737    -2611759.637 5  -1978773.36621
  21251878.9094  -13863179.62047 -10081436.13061
  23848752.839    14928993.501 3  11639643.61621
  20709451.480   -17169816.206 8 -13308041.73024
  20369853.151   -20661148.361 7 -14544266.00823
 91  3 21  1 51 29.9990000  0  5G15G13G19G 2G 6
  23284999.097    -2609212.148 5  -1976788.26921
  21243602.3004  -13906678.31347 -10115331.09261
  23857047.948    14972587.927 3  11673613.25621
  20710317.3784  -17165260.30448 -13304491.64664
  20366555.378   -20678481.750 7 -14557772.50323
 91  3 21  1 51 44.9990000  0  5G15G13G19G 2G 6
  23285512.284    -2606529.002 5  -1974697.46121
  21235343.9564  -13950064.20846 -10149138.16461
  23865353.237    15016229.115 3  11707619.33521
  20711191.0734  -17160664.73948 -13300910.65964
  20363274.034   -20695726.784 7 -14571210.14623
 91  3 21  1 51 59.9990000  0  5G15G13G19G 2G 6
  23286047.8554   -2603709.51845  -1972500.42461
  21227111.1444  -13993336.80346 -10182856.95461
  23873671.331    15059917.138 3  11741661.88821
  20712073.8474  -17156028.80848 -13297298.22164
  20360007.933   -20712882.569 7 -14584578.24023
 91  3 21  1 52 14.9990000  0  5G15G13G19G 2G 6
  23286612.8154   -2600754.24345  -1970197.57261
  21218897.5504  -14036496.42047 -10216487.70361
  23881991.440    15103651.357 4  11775740.46021
  20712963.433   -17151353.212 8 -13293654.87224
  20356760.378   -20729949.387 7 -14597877.01323
 91  3 21  1 52 29.9990000  0  5G15G13G19G 2G 6
  23287199.1754   -2597663.00645  -1967788.78761
  21210706.3864  -14079542.68947 -10250030.13061
  23890325.636    15147431.803 3  11809855.03421
  20713860.081   -17146637.653 8 -13289980.38824
  20353530.003   -20746926.776 7 -14611106.10323
 91  3 21  1 52 44.9990000  0  5G15G13G19G 2G 6
  23287814.440    -2594440.832 5  -1965277.95921
  21202534.0814  -14122480.12047 -10283487.74061
  23898662.667    15191253.335 3  11844001.63021
  20714764.690   -17141887.252 8 -13286278.75624
  20350315.394   -20763819.517 7 -14624269.22923
 91  3 21  1 52 59.9990000  0  5G15G13G19G 2G 6
  23288452.3394   -2591086.29145  -1962663.99361
  21194384.190   -14165306.871 6 -10316859.12521
  23907012.972    15235117.365 4  11878181.40521
  20715676.362   -17137100.365 8 -13282548.69124
  20347116.886   -20780625.713 7 -14637364.92323
 91  3 21  1 53 14.9990000  0  5G15G13G19G 2G 6
  23289118.1364   -2587593.68746  -1959942.43561
  21186257.0894  -14208017.43246 -10350139.95561
  23915366.6444   15279029.09844  11912398.28761
  20716595.323   -17132271.736 8 -13278786.10224
  20343936.1514  -20797339.81047 -14650388.85763
 91  3 21  1 53 29.9990000  0  5G15G13G19G 2G 6
  23289807.440    -2583968.729 6  -1957117.75021
  21178150.6124  -14250617.36946 -10383334.58461
  23923733.190    15322982.644 4  11946647.74721
  20717521.362   -17127406.997 8 -13274995.37124
  20340771.097   -20813967.174 7 -14663345.20123
 91  3 21  1 53 44.9990000  0  5G15G13G19G 2G 6
  23290517.526    -2580210.989 6  -1954189.59721
  21170066.0974  -14293105.68247 -10416442.24761
  23932101.0504   15366978.63443  11980930.33261
  20718454.526   -17122505.397 8 -13271175.92224
  20337625.175   -20830506.872 7 -14676233.23323
 91  3 21  1 53 59.9990000  0  5G15G13G19G 2G 6
  23291261.6444   -2576318.97846  -1951156.80561
  21162002.0974  -14335480.91647 -10449461.79261
  23940480.440    15411017.960 4  12015246.62821
  20719393.605   -17117565.932 8 -13267326.96424
  20334495.347   -20846957.560 7 -14689051.90323
 91  3 21  1 54 14.9990000  0  5G15G13G19G 2G 6
  23292026.308    -2572294.939 6  -1948021.15221
  21153957.6204  -14377744.87746 -10482394.62661
  23948871.612    15455098.417 4  12049595.02021
  20720340.628   -17112590.664 8 -13263450.11924
  20331381.269   -20863320.821 7 -14701802.45123
 91  3 21  1 54 29.9990000  0  5G15G13G19G 2G 6
  23292820.9174   -2568138.69146  -1944782.47661
  21145936.151   -14419896.966 7 -10515240.29721
  23957262.0194   15499220.14843  12083975.54061
  20721293.776   -17107579.339 8 -13259545.16524
  20328283.753   -20879596.314 7 -14714484.60123
 91  3 21  1 54 44.9990000  0  5G15G13G19G 2G 6
  23293635.8004   -2563846.33145  -1941437.75661
  21137937.1754  -14461933.56247 -10547995.97261
  23965671.003    15543386.545 3  12118390.87321
  20722255.948   -17102528.379 8 -13255609.33424
  20325204.128   -20895779.919 7 -14727095.16123
 91  3 21  1 54 59.9990000  0  5G15G13G19G 2G 6
  23294479.112    -2559421.238 6  -1937989.58621
  21129960.2614  -14503857.54147 -10580663.88161
  23974086.1984   15587594.14543  12152838.30561
  20723223.167   -17097440.790 8 -13251644.95924
  20322139.737   -20911874.789 7 -14739636.56823
 91  3 21  1 55 14.9990000  0  5G15G13G19G 2G 6
  23295342.3704   -2554862.54345  -1934437.32961
  21122002.3554  -14545667.95447 -10613243.30361
  23982503.784    15631843.561 3  12187318.33721
  20724199.862   -17092315.971 8 -13247651.57724
  20319097.019   -20927880.037 7 -14752108.14823
 91  3 21  1 55 29.9990000  0  5G15G13G19G 2G 6
  23296239.1514   -2550170.38145  -1930781.05961
  21114070.9804  -14587364.61947 -10645734.10461
  23990927.722    15676134.538 2  12221830.74421
  20725181.323   -17087153.953 8 -13243629.20624
  20316067.901   -20943795.223 7 -14764509.54823
 91  3 21  1 55 44.9990000  0  5G15G13G19G 2G 6
  23297155.409    -2545342.572 5  -1927019.08221
  21106156.9174  -14628945.40547 -10678134.58761
  23999360.6204   15720469.07942  12256377.09461
  20726169.917   -17081952.793 8 -13239576.33824
  20313055.144   -20959618.111 7 -14776839.02823
 91  3 21  1 55 59.9990000  0  5G15G13G19G 2G 6
  23298100.026    -2540377.835 5  -1923150.40021
  21098266.230   -14670408.495 7 -10710443.38321
  24007818.253    15764848.284 3  12290958.23621
  20727168.034   -17076711.121 8 -13235491.89824
  20310063.378   -20975347.043 7 -14789095.29423
 91  3 21  1 56 14.9990000  0  4G15G13G 2G 6
  23299066.120    -2535279.205 5  -1919177.40021
  21090398.323   -14711756.346 7 -10742662.37821
  20728172.808   -17071431.713 8 -13231378.05924
  20307086.9014  -20990984.58747 -14801280.35563
 91  3 21  1 56 29.9990000  0  4G15G13G 2G 6
  23300064.120    -2530045.179 5
  21082553.8554  -14752987.64047 -10774790.54461
  20729185.519   -17066113.167 8
  20304128.683   -21006529.132 7 -14813392.94823
 91  3 21  1 56 44.9990000  0  4G15G13G 2G 6
  23301082.722    -2524674.970 5
  21074729.276   -14794101.208 7 -10806826.97721
  20730205.511   -17060754.706 8
  20301189.237   -21021979.429 7 -14825432.09223
 91  3 21  1 56 59.9990000  0  4G15G13G 2G 6
  23302132.183    -2519169.182 5  -1906624.00121
  21066925.925   -14835097.729 7 -10838772.21121
  20731231.995   -17055357.189 8 -13218852.40024
  20298266.065   -21037336.150 7 -14837398.33223
 91  3 21  1 57 14.9990000  0  4G15G13G 2G 6
  23303207.8474   -2513527.39345  -1902227.74261
  21059148.331   -14875976.413 7 -10870625.61621
  20732267.112   -17049920.150 8 -13214615.72924
  20295362.605   -21052598.604 7 -14849291.10623
 91  3 21  1 57 29.9990000  0  4G15G13G 2G 6
  23304311.003    -2507751.205 5  -1897726.78921
  21051389.597   -14916738.570 6 -10902388.23121
  20733307.526   -17044445.090 8 -13210349.43224
  20292476.636   -21067767.927 7 -14861111.31523
 91  3 21  1 57 44.9990000  0  4G15G13G 2G 6
  23305435.4334   -2501836.24245  -1893117.67361
  21043656.339   -14957379.656 7 -10934056.49221
  20734357.269   -17038927.590 8 -13206050.06324
  20289606.792   -21082839.519 7 -14872855.36823
 91  3 21  1 57 59.9990000  0  4G15G13G 2G 6
  23306584.3944   -2495783.75845  -1888401.41861
  21035945.089   -14997900.591 7 -10965631.13321
  20735415.987   -17033368.925 8 -13201718.62024
  20286758.136   -21097814.567 7 -14884524.18823
 91  3 21  1 58 14.9990000  0  4G15G13G 2G 6
  23307762.558    -2489599.605 5  -1883582.56321
  21028256.698   -15038306.985 7 -10997116.52721
  20736479.323   -17027774.797 8 -13197359.53724
  20283926.7304  -21112698.24447 -14896121.82163
 91  3 21  1 58 29.9990000  0  4G15G13G 2G 6
  23308962.487    -2483280.423 5  -1878658.46921
  21020589.440   -15078595.394 7 -11028509.97921
  20737551.722   -17022141.918 8 -13192970.26224
  20281110.495   -21127487.261 7 -14907645.68423
 91  3 21  1 58 44.9990000  0  4G15G13G 2G 6
  23310198.4484   -2476823.67845  -1873627.18661
  21012947.667   -15118763.040 7 -11059809.33221
  20738632.9874  -17016467.89048 -13188548.92064
  20278315.2374  -21142178.61347 -14919093.45563
 91  3 21  1 58 59.9990000  0  4G15G13G 2G 6
  23311447.636    -2470231.144 5  -1868490.09121
  21005323.2694  -15158811.44147 -11091015.77961
  20739719.3704  -17010754.31848 -13184096.75964
  20275538.0194  -21156773.86947 -14930466.34263
 91  3 21  1 59 14.9990000  0  4G15G13G 2G 6
  23312729.9484   -2463503.94645  -1863248.09761
  20997725.370   -15198741.702 7 -11122130.15721
  20740812.9254  -17005002.52548 -13179614.81564
  20272780.190   -21171273.880 7 -14941765.00523
 91  3 21  1 59 29.9990000  0  4G15G13G 2G 6
  23314036.1754   -2456644.54345  -1857903.08661
  20990149.831   -15238555.650 7 -11153153.90921
  20741915.269   -16999214.744 8 -13175104.83424
  20270037.0114  -21185680.82047 -14952991.15163
 91  3 21  1 59 44.9990000  0  4G15G13G 2G 6
  23315364.2064   -2449648.18045  -1852451.33661
  20982597.737   -15278248.714 7 -11184083.46221
  20743024.683   -16993386.408 8 -13170563.25024
  20267313.980   -21199989.819 7 -14964140.98023
 91  3 21  1 59 59.9990000  0  4G15G13G 2G 6
  23316722.026    -2442513.947 5  -1846892.15621
  20975066.003   -15317819.516 7 -11214917.75221
  20744141.034   -16987516.332 8 -13165989.14124
  20264610.9874  -21214199.48247 -14975213.40963
 91  3 21  2  0 14.9990000  0  4G15G13G 2G 6
  23318105.5114   -2435240.12945  -1841224.22161
  20967558.917   -15357266.207 7 -11245655.32321
  20745265.464   -16981603.032 8 -13161381.35524
  20261925.6834  -21228307.94447 -14986206.97963
 91  3 21  2  0 29.9990000  0  4G15G13G 2G 6
  23319518.9564   -2427827.97745  -1835448.48361
  20960077.4404  -15396589.43247 -11276296.70061
  20746400.050   -16975647.500 8 -13156740.66224
  20259260.644   -21242316.085 7 -14997122.37123
 91  3 21  2  0 44.9990000  0  4G15G13G 2G 6
  23320954.011    -2420279.579 5  -1829566.56221
  20952618.300   -15435790.912 7 -11306843.20221
  20747538.698   -16969651.706 8 -13152068.59123
  20256614.5264  -21256225.42847 -15007960.78163
 91  3 21  2  0 59.9990000  0  4G15G13G 2G 6
  23322415.4254   -2412597.47145  -1823580.47661
  20945181.659   -15474873.517 7 -11337297.07621
  20748687.605   -16963618.501 8 -13147367.37024
  20253984.628   -21270038.786 7 -15018724.39323
 91  3 21  2  1 14.9990000  0  4G15G13G 2G 6
  23323898.956    -2404780.508 5  -1817489.29921
  20937765.315   -15513835.762 7 -11367657.15521
  20749843.2454  -16957546.58448 -13142635.97664
  20251372.5264  -21283754.41247 -15029411.85363
 91  3 21  2  1 29.9990000  0  4G15G13G 2G 6
  23325413.8784   -2396826.83745  -1811291.60061
  20930374.964   -15552675.771 7 -11397921.99221
  20751007.5584  -16951434.04048 -13137872.92563
  20248783.3554  -21297370.31847 -15040021.61563
 91  3 21  2  1 44.9990000  0  4G15G13G 2G 6
  23326955.362    -2388736.494 5  -1804987.39721
  20923005.519   -15591393.012 6 -11428091.17121
  20752177.8004  -16945280.89148 -13133078.23864
  20246210.4564  -21310886.11147 -15050553.36163
 91  3 21  2  1 59.9990000  0  4G15G13G 2G 6
  23328523.4564   -2380505.76045  -1798573.78461
  20915663.589   -15629983.642 7 -11458161.68721
  20753355.2694  -16939083.41347 -13128249.00963
  20243661.0034  -21324297.85147 -15061004.02963
 91  3 21  2  2 14.9990000  0  4G15G13G 2G 6
  23330111.7144   -2372143.74045  -1792057.87561
  20908342.3084  -15668456.26947 -11488140.26261
  20754542.894   -16932850.538 7 -13123392.19623
  20241125.292   -21337614.214 7 -15071380.37723
 91  3 21  2  2 29.9990000  0  4G15G13G 2G 6
  23331732.2764   -2363645.65145  -1785435.94661
  20901043.956   -15706806.260 7 -11518023.27221
  20755737.597   -16926577.531 7 -13118504.11724
  20238609.722   -21350830.125 7 -15081678.44323
 91  3 21  2  2 44.9990000  0  4G15G13G 2G 6
  23333370.2304   -2355010.94945  -1778707.55861
  20893770.4174  -15745032.68247 -11547810.00061
  20756937.933   -16920263.788 7 -13113584.29924
  20236116.3554  -21363944.84247 -15091897.66363
 91  3 21  2  2 59.9990000  0  4G15G13G 2G 6
  23335045.503    -2346236.545 6  -1771870.32021
  20886519.1984  -15783132.23147 -11577497.86361
  20758147.667   -16913906.449 7 -13108630.50424
  20233637.1594  -21376955.14247 -15102035.52263
 91  3 21  2  3 14.9990000  0  4G15G13G 2G 6
  23336737.120    -2337322.613 5  -1764924.36221
  20879294.1054  -15821104.65847 -11607086.66861
  20759366.050   -16907505.205 7 -13103642.49823
  20231183.0504  -21389860.47447 -15112091.58863
 91  3 21  2  3 29.9990000  0  4G15G13G 2G 6
  23338457.8474   -2328271.32945  -1757871.38961
  20872091.1444  -15858952.09147 -11636578.08061
  20760592.667   -16901062.268 7 -13098622.00523
  20228746.2374  -21402663.08347 -15122067.61363
 91  3 21  2  3 44.9990000  0  4G15G13G 2G 6
  23340212.175    -2319084.699 5  -1750712.93821
  20864914.636   -15896676.001 7 -11665973.23221
  20761825.011   -16894579.187 7 -13093570.23123
  20226329.4174  -21415364.23947 -15131964.57863
 91  3 21  2  3 59.9990000  0  4G15G13G 2G 6
  23341986.323    -2309765.556 5  -1743451.22321
  20857758.0344  -15934279.51847 -11695274.57761
  20763065.6834  -16888059.47647 -13088489.91963
  20223930.7224  -21427967.00247 -15141784.87263
 91  3 21  2  4 14.9990000  0  4G15G13G 2G 6
  23343782.925    -2300306.439 5  -1736080.45421
  20850625.034   -15971754.635 7 -11724475.86321
  20764314.511   -16881495.321 7 -13083374.96723
  20221553.2064  -21440463.41847 -15151522.29963
 91  3 21  2  4 29.9990000  0  4G15G13G 2G 6
  23345609.2614   -2290713.50945  -1728605.42161
  20843517.6674  -16009107.38847 -11753581.80761
  20765571.823   -16874892.809 8 -13078230.13523
  20219195.4724  -21452859.21447 -15161181.32763
 91  3 21  2  4 44.9990000  0  4G15G13G 2G 6
  23347461.605    -2280984.994 5  -1721024.71921
  20836433.222   -16046335.617 7 -11782590.71021
  20766836.237   -16868250.146 8 -13073054.00824
  20216854.5034  -21465152.57347 -15170760.53163
 91  3 21  2  4 59.9990000  0  4G15G13G 2G 6
  23349338.542    -2271119.051 6  -1713336.94521
  20829371.230   -16083437.443 7 -11811501.12021
  20768107.8704  -16861565.73247 -13067845.34463
  20214534.5734  -21477341.29047 -15180258.19863
 91  3 21  2  5 14.9990000  0  4G15G13G 2G 6
  23351241.9804   -2261117.90046  -1705543.80661
  20822335.7064  -16120414.87147 -11840314.60961
  20769385.0344  -16854841.64247 -13062605.77164
  20212236.2454  -21489427.46647 -15189675.95563
 91  3 21  2  5 29.9990000  0  4G15G13G 2G 6
  23353170.636    -2250983.632 5  -1697646.93921
  20815323.1594  -16157269.48847 -11869032.39661
  20770673.909   -16848079.531 7 -13057336.56623
  20209955.4174  -21501412.42047 -15199014.84363
 91  3 21  2  5 44.9990000  0  4G15G13G 2G 6
  23355120.112    -2240710.830 6  -1689642.11021
  20808333.042   -16193995.767 7 -11897650.17121
  20771970.331   -16841274.004 8 -13052033.53824
  20207695.331   -21513290.511 7 -15208270.45823
 91  3 21  2  5 59.9990000  0  4G15G13G 2G 6
  23357105.1754   -2230296.79646  -1681527.22661
  20801369.9174  -16230590.91847 -11926165.77261
  20773272.815   -16834422.472 7 -13046694.65823
  20205454.378   -21525058.993 7 -15217440.66123
 91  3 21  2  6 14.9990000  0  4G15G13G 2G 6
  23359115.4404   -2219749.12446  -1673308.23161
  20794430.9804  -16267061.93747 -11954584.65861
  20774584.1284  -16827532.29548 -13041325.66464
  20203235.261   -21536724.880 7 -15226530.91623
 91  3 21  2  6 29.9990000  0  4G15G13G 2G 6
  23361142.651    -2209064.677 6  -1664982.63921
  20787513.8704  -16303405.72747 -11982904.39361
  20775903.823   -16820600.462 8 -13035924.21423
  20201035.190   -21548284.881 7 -15235538.66723
 91  3 21  2  6 44.9990000  0  4G15G13G 2G 6
  23363208.745    -2198241.537 6  -1656548.97021
  20780621.8864  -16339620.13647 -12011123.32161
  20777231.472   -16813624.993 8 -13030488.75923
  20198855.4404  -21559736.98147 -15244462.34663
 91  3 21  2  6 59.9990000  0  4G15G13G 2G 6
  23365285.3004   -2187282.72146  -1648009.60161
  20773756.6674  -16375707.94747 -12039243.60861
  20778566.167   -16806608.757 8 -13025021.54124
  20196696.0264  -21571083.69647 -15253303.90263
 91  3 21  2  7 14.9990000  0  4G15G13G 2G 6
  23367403.5654   -2176185.64546  -1639362.48961
  20766912.5584  -16411666.19247 -12067262.92361
                                 -13019520.33223
  20194558.6594  -21582321.92147 -15262060.92063
 91  3 21  2  7 29.9990000  0  4G15G13G 2G 6
  23369540.8084   -2164949.95145  -1630607.38761
  20760095.1444  -16447494.28347 -12095180.82361
                                 -13013984.84564
  20192440.808   -21593450.983 7 -15270732.87623
 91  3 21  2  7 44.9990000  0  4G15G13G 2G 6
  23371702.9334   -2153573.77446  -1621742.79361
  20753301.9334  -16483190.03646 -12122995.59961
  20782621.886   -16785294.484 8 -13008413.71723
  20190343.901   -21604468.791 7 -15279318.13523
 91  3 21  2  7 59.9990000  0  4G15G13G 2G 6
  23373893.8864   -2142062.07446  -1612772.60461
  20746533.4014  -16518758.14347 -12150710.91261
  20783990.3314  -16778103.82648 -13002810.58364
  20188267.581   -21615379.999 7 -15287820.33323
 91  3 21  2  8 14.9990000  0  4G15G13G 2G 6
  23376110.6594   -2130415.35446  -1603697.20061
  20739789.3154  -16554199.18447 -12178327.21061
  20785365.815   -16770872.825 8 -12997176.00924
  20186211.2144  -21626185.06247 -15296239.82763
 91  3 21  2  8 29.9990000  0  4G15G13G 2G 6
  23378355.8864   -2118632.83445  -1594515.98961
  20733069.300   -16589511.869 6 -12205843.50821
  20786749.948   -16763600.353 8 -12991509.12824
  20184176.8474  -21636882.66047 -15304575.57963
 91  3 21  2  8 44.9990000  0  4G15G13G 2G 6
  23380622.308    -2106711.589 5  -1585226.68321
  20726376.1284  -16624693.33647 -12233257.54461
  20788143.4094  -16756283.41948 -12985807.59364
  20182161.659   -21647469.575 7 -15312825.08223
 91  3 21  2  8 59.9990000  0  4G15G13G 2G 6
  23382916.2064   -2094656.04345  -1575832.72361
  20719703.9404  -16659747.46847 -12260572.36661
  20789541.8084  -16748926.46348 -12980074.87363
  20180167.6754  -21657949.87747 -15320991.51663
 91  3 21  2  9 14.9990000  0  4G15G13G 2G 6
  23385230.9334   -2082465.51545  -1566333.59861
  20713056.2454  -16694673.22347 -12287787.15261
  20790950.581   -16741528.605 8 -12974310.28523
  20178192.433   -21668322.577 7 -15329074.09623
 91  3 21  2  9 29.9990000  0  4G15G13G 2G 6
  23387580.542    -2070135.791 5  -1556726.00121
  20706436.1364  -16729466.31547 -12314898.56461
  20792366.3554  -16734085.64148 -12968510.54663
  20176240.7454  -21678583.07347 -15337069.25663
 91  3 21  2  9 44.9990000  0  4G15G13G 2G 6
  23389955.2694   -2057668.28545  -1547011.03761
  20699839.4484  -16764128.16847 -12341907.70861
  20793791.2454  -16726598.85148 -12962676.65464
  20174308.9954  -21688732.73647 -15344978.04763
 91  3 21  2  9 59.9990000  0  4G15G13G 2G 6
  23392356.8704   -2045060.67246  -1537186.87861
  20693269.511   -16798656.020 7 -12368812.44721
  20795223.9804  -16719065.91448 -12956806.80363
  20172399.6674  -21698768.68247 -15352798.22663
 91  3 21  2 10 14.9990000  0  4G15G13G 2G 6
  23394779.3704   -2032317.28146  -1527256.93861
  20686722.7064  -16833054.10947 -12395616.06262
  20796665.4644  -16711490.92448 -12950904.18564
  20170508.9804  -21708694.92647 -15360532.92463
 91  3 21  2 10 29.9990000  0  4G15G13G 2G 6
  23397231.2454   -2019438.96546  -1517221.87061
  20680202.956   -16867322.798 7 -12422318.85322
  20798114.8084  -16703874.51648 -12944969.29463
  20168642.1284  -21718511.94447 -15368182.50963
 91  3 21  2 10 44.9990000  0  4G15G13G 2G 6
  23399707.8154   -2006423.58846  -1507079.98961
  20673706.5894  -16901459.93647 -12448919.13362
  20799572.4254  -16696214.70848 -12939000.58363
  20166796.0584  -21728217.61047 -15375745.33063
 91  3 21  2 10 59.9990000  0  4G15G13G 2G 6
  23402212.675    -1993270.757 5  -1496831.01321
  20667235.511   -16935464.763 7 -12475416.32321
  20801038.417   -16688510.880 8 -12932997.57924
  20164969.2304  -21737810.93647 -15383220.60563
 91  3 21  2 11 14.9990000  0  4G15G13G 2G 6
  23404738.081    -1979980.722 6  -1486475.12321
  20660791.0504  -16969337.63247 -12501810.68161
  20802512.847   -16680763.439 7 -12926960.58624
  20163164.4644  -21747292.14847 -15390608.52963
 91  3 21  2 11 29.9990000  0  4G15G13G 2G 6
  23407293.589    -1966554.863 6  -1476013.36621
  20654368.378   -17003079.264 7 -12528102.77921
  20803995.886   -16672973.430 8 -12920890.42823
  20161381.159   -21756662.045 7 -15397909.70623
 91  3 21  2 11 44.9990000  0  4G15G13G 2G 6
  23409874.1054   -1952996.25946  -1465448.19161
  20647972.9954  -17036692.48747 -12554294.82361
  20805484.315   -16665143.873 7 -12914789.45523
  20159619.5194  -21765923.37547 -15405126.28663
 91  3 21  2 11 59.9990000  0  4G15G13G 2G 6
  23412478.401    -1939301.677 6  -1454777.06221
  20641602.5504  -17070174.06047 -12580384.26961
  20806982.644   -16657271.407 7 -12908655.04023
  20157878.0114  -21775072.57147 -15412255.49363
 91  3 21  2 12 14.9990000  0  4G15G13G 2G 6
  23415108.7454   -1925475.99246  -1444003.74761
  20635254.737   -17103528.560 7 -12606374.70421
  20808488.026   -16649360.675 7 -12902490.81223
  20156157.7534  -21784114.16447 -15419300.84963
 91  3 21  2 12 29.9990000  0  4G15G13G 2G 6
  23417766.0504   -1911516.54846  -1433126.23261
  20628931.940   -17136752.876 7 -12632263.69921
  20810002.581   -16641408.713 7 -12896294.45323
  20154458.9094  -21793045.09947 -15426259.98263
 91  3 21  2 12 44.9990000  0  4G15G13G 2G 6
  23420448.5034   -1897421.04446  -1422142.69661
  20622634.1984  -17169844.48347 -12658049.28261
  20811524.495   -16633413.402 7 -12890064.32123
  20152780.2764  -21801862.58447 -15433130.71163
 91  3 21  2 12 59.9990000  0  4G15G13G 2G 6
  23423155.6444   -1883189.37045  -1411053.04461
  20616363.300   -17202803.380 7 -12683731.46521
  20813054.339   -16625374.660 7 -12883800.34423
  20151123.292   -21810566.584 7 -15439913.00523
 91  3 21  2 13 14.9990000  0  4G15G13G 2G 6
  23425887.5504   -1868824.80045  -1399859.85761
  20610115.542   -17235632.311 7 -12709312.36521
  20814590.8784  -16617295.34847 -12877504.75363
  20149488.550   -21819159.895 7 -15446609.04923
 91  3 21  2 13 29.9990000  0  4G15G13G 2G 6
  23428646.2534   -1854328.26945  -1388563.82061
  20603892.714   -17268331.875 7 -12734792.46821
  20816135.7454  -16609176.45148 -12871178.31363
  20147874.9254  -21827643.06947 -15453219.27963
 91  3 21  2 13 44.9990000  0  4G15G13G 2G 6
  23431433.8784   -1839697.33445  -1377163.06561
  20597695.175   -17300899.710 7 -12760169.92421
  20817687.7064  -16601015.70047 -12864819.26063
  20146282.6284  -21836013.55347 -15459741.69463
 91  3 21  2 13 59.9990000  0  4G15G13G 2G 6
  23434241.9334   -1824932.06045  -1365657.61761
  20591522.722   -17333335.377 7 -12785444.38621
  20819249.2144  -16592812.53548 -12858427.15763
  20144710.0974  -21844270.87247 -15466175.93263
 91  3 21  2 14 14.9990000  0  4G15G13G 2G 6
  23437076.456    -1810033.770 5  -1354048.50721
  20585375.480   -17365640.080 7 -12810616.79721
  20820819.4404  -16584568.32248 -12852003.07263
  20143160.6984  -21852415.97247 -15472522.72463
 91  3 21  2 14 29.9990000  0  4G15G13G 2G 6
  23439937.3004   -1795003.68445  -1342336.71861
  20579252.753   -17397814.758 7 -12835687.89521
  20822395.339   -16576284.045 8 -12845547.76923
  20141631.9564  -21860449.72647 -15478782.75763
 91  3 21  2 14 44.9990000  0  4G15G13G 2G 6
  23442825.503    -1779836.763 5  -1330518.29421
  20573155.386   -17429854.274 7 -12860653.67021
  20823979.448   -16567954.726 8 -12839057.36723
  20140125.0034  -21868366.92247 -15484951.96563
 91  3 21  2 14 59.9990000  0  4G15G13G 2G 6
  23445734.003    -1764537.472 5  -1318596.75821
  20567084.487   -17461762.669 7 -12885517.28522
  20825572.323   -16559584.704 8 -12832535.25023
  20138639.6754  -21876171.73547 -15491033.60263
 91  3 21  2 15 14.9990000  0  4G15G13G 2G 6
  23448671.9874   -1749107.14445  -1306573.07661
  20561037.0034  -17493540.92347 -12910279.48461
  20827173.065   -16551174.982 8 -12825982.19123
  20137175.3474  -21883864.89047 -15497028.22963
 91  3 21  2 15 29.9990000  0  4G15G13G 2G 6
  23451633.1834   -1733545.25745  -1294446.91461
  20555014.565   -17525188.330 7 -12934939.72521
  20828780.534   -16542725.010 8 -12819397.78123
  20135732.7844  -21891445.62547 -15502935.25463
 91  3 21  2 15 44.9990000  0  4G15G13G 2G 6
  23454618.089    -1717850.641 5  -1282217.30621
  20549016.831   -17556703.604 7 -12959497.00022
  20830396.4174  -16534233.30248 -12812780.83763
  20134312.9174  -21898912.34047 -15508753.43563
 91  3 21  2 15 59.9990000  0  4G15G13G 2G 6
  23457632.4014   -1702023.85745  -1269884.71961
  20543044.8944  -17588087.11547 -12983951.61161
  20832019.3944  -16525700.42748 -12806131.81463
  20132913.5584  -21906265.46547 -15514483.10563
 91  3 21  2 16 14.9990000  0  4G15G13G 2G 6
  23460671.987    -1686067.956 5  -1257451.53421
  20537096.698   -17619341.612 7 -13008305.68521
  20833651.6444  -16517129.27148 -12799452.96463
  20131534.2304  -21913507.68147 -15520126.35663
 91  3 21  2 16 29.9990000  0  4G15G13G 2G 6
  23463729.480    -1669978.718 5  -1244914.41721
  20531175.4174  -17650462.39247 -13032555.57662
  20835290.464   -16508515.644 8 -12792741.02523
  20130178.4804  -21920634.41247 -15525679.61963
 91  3 21  2 16 44.9990000  0  4G15G13G 2G 6
  23466815.206    -1653759.735 5  -1232276.22321
  20525277.448   -17681452.981 7 -13056704.00921
  20836936.534   -16499862.968 8 -12785998.66323
  20128843.4334  -21927649.05947 -15531145.54263
 91  3 21  2 16 59.9990000  0  4G15G13G 2G 6
  23469926.8314   -1637409.36845  -1219535.65361
  20519405.237   -17712311.602 7 -13080749.61022
  20838591.0344  -16491169.55348 -12779224.54863
  20127531.2614  -21934549.50247 -15536522.47163
 91  3 21  2 17 14.9990000  0  4G15G13G 2G 6
  23473068.3784   -1620928.04046  -1206693.02461
  20513558.300   -17743038.167 7 -13104692.31521
  20840252.433   -16482435.286 8 -12772418.60623
  20126239.0504  -21941335.62947 -15541810.32863
 91  3 21  2 17 29.9990000  0  4G15G13G 2G 6
  23476226.159    -1604320.231 5  -1193751.86721
  20507735.128   -17773637.091 7 -13128535.55821
  20841922.620   -16473664.688 8 -12765584.35523
  20124969.112   -21948011.697 7 -15547012.41823
 91  3 21  2 17 44.9990000  0  4G15G13G 2G 6
  23479410.4014   -1587579.76845  -1180707.30761
  20501936.659   -17804102.149 7 -13152274.48422
  20843597.855   -16464851.571 8 -12758716.96723
  20123720.644   -21954571.214 7 -15552123.68623
 91  3 21  2 17 59.9990000  0  4G15G13G 2G 6
  23482621.144    -1570711.130 5  -1167562.88721
  20496165.808   -17834437.610 7 -13175912.42821
  20845283.1054  -16456000.38748 -12751819.91863
  20122493.2534  -21961018.46147 -15557147.47763
 91  3 21  2 18 14.9990000  0  4G15G13G 2G 6
  23485853.823    -1553716.371 5  -1154320.18921
  20490416.800   -17864645.320 7 -13199450.82221
  20846975.269   -16447113.004 8 -12744894.65823
  20121287.230   -21967355.153 7 -15562085.11423
 91  3 21  2 18 29.9990000  0  4G15G13G 2G 6
  23489114.0114   -1536588.52645  -1140973.78561
  20484694.315   -17894717.904 7 -13222883.92922
  20848673.558   -16438181.963 8 -12737935.39023
  20120104.8864  -21973573.82647 -15566930.79563
 91  3 21  2 18 44.9990000  0  4G15G13G 2G 6
  23492397.2694   -1519337.33745  -1127531.25561
  20478996.753   -17924664.441 7 -13246218.82322
  20850381.042   -16429216.863 8 -12730949.57623
  20118940.7454  -21979683.72147 -15571691.71563
 91  3 21  2 18 59.9990000  0  4G15G13G 2G 6
  23495702.894    -1501956.874 5  -1113988.03521
  20473322.651   -17954478.960 7 -13269450.84222
  20852094.925   -16420211.701 8 -12723932.54523
  20117799.4484  -21985678.67347 -15576363.07263
 91  3 21  2 19 14.9990000  0  4G15G13G 2G 6
  23499040.5584   -1484445.38545  -1100342.68961
  20467673.542   -17984159.710 7 -13292578.62321
  20853816.0264  -16411164.49148 -12716882.73963
  20116682.7224  -21991556.65447 -15580943.28163
 91  3 21  2 19 29.9990000  0  4G15G13G 2G 6
  23502387.144    -1466806.086 5  -1086597.73821
  20462050.987   -18013709.694 7 -13315604.51021
  20855545.948   -16402078.484 8 -12709802.71123
  20115584.4874  -21997320.61947 -15585434.64863
 91  3 21  2 19 44.9990000  0  4G15G13G 2G 6
  23505776.417    -1449034.993 5  -1072750.09121
  20456451.472   -18043124.878 7 -13338525.36422
  20857282.573   -16392949.832 8 -12702689.45223
  20114509.7924  -22002966.39147 -15589833.91862
 91  3 21  2 19 59.9990000  0  4G15G13G 2G 6
  23509180.0194   -1431136.81945  -1058803.45261
  20450880.706   -18072409.342 7 -13361344.35322
  20859025.808   -16383782.633 8 -12695546.16423
  20113458.6594  -22008498.03947 -15594144.25762
 91  3 21  2 20 14.9990000  0  4G15G13G 2G 6
  23512610.8154   -1413107.21045  -1044754.39261
  20445331.956   -18101558.603 7 -13384057.99622
  20860779.1834  -16374572.19748 -12688369.16963
  20112428.4174  -22013910.80847 -15598361.96862
 91  3 21  2 20 29.9990000  0  4G15G13G 2G 6
  23516063.261    -1394951.393 5  -1030606.99121
  20439811.1124  -18130577.67447 -13406670.18461
  20862538.5264  -16365323.79348 -12681162.59463
  20111419.7614  -22019209.63047 -15602490.88862
 91  3 21  2 20 44.9990000  0  4G15G13G 2G 6
  23519541.3394   -1376667.73945  -1016359.97761
  20434313.042   -18159464.657 7 -13429179.44921
  20864305.0344  -16356035.81848 -12673925.17963
  20110434.4094  -22024392.63047 -15606529.55562
 91  3 21  2 20 59.9990000  0  4G15G13G 2G 6
  23523043.464    -1358256.145 5  -1002013.27621
  20428843.1124  -18188219.13847 -13451585.46562
  20866081.9254  -16346707.69348 -12666656.47763
  20109468.3554  -22029459.20747 -15610477.51162
 91  3 21  2 21 14.9990000  0  4G15G13G 2G 6
  23526580.261    -1339713.428 5   -987564.38321
  20423397.230   -18216837.644 7 -13473885.52322
  20867865.058   -16337336.190 8 -12659353.98723
  20108528.5194  -22034405.80247 -15614331.96462
 91  3 21  2 21 29.9990000  0  4G15G13G 2G 6
  23530128.6594   -1321039.66545   -973013.37361
  20417976.901   -18245320.111 7 -13496079.58422
  20869654.6834  -16327921.11048 -12652017.53663
  20107609.4404  -22039232.29047 -15618092.83562
 91  3 21  2 21 44.9990000  0  4G15G13G 2G 6
  23533708.792    -1302242.479 5   -958366.20421
  20412580.448   -18273674.054 7 -13518173.49022
  20871452.964   -16318470.238 8 -12644653.19623
  20106712.5654  -22043946.02947 -15621765.84862
 91  3 21  2 21 59.9990000  0  4G15G13G 2G 6
  23537303.7694   -1283319.71445   -943621.17261
  20407208.9724  -18301896.94747 -13540165.28762
  20873260.5894  -16308981.02448 -12637258.97663
  20105836.6834  -22048544.26447 -15625348.85363
 91  3 21  2 22 14.9990000  0  4G15G13G 2G 6
  23540930.800    -1264265.221 5   -928773.48921
  20401865.683   -18329982.545 7 -13562050.09222
  20875075.7694  -16299447.11348 -12629829.92663
  20104985.0264  -22053020.64347 -15628836.90763
 91  3 21  2 22 29.9990000  0  4G15G13G 2G 6
  23544586.605    -1245083.595 4   -913826.73321
  20396546.495   -18357935.105 7 -13583831.23722
  20876896.4014  -16289872.96948 -12622369.52863
  20104156.5114  -22057379.48747 -15632233.37163
 91  3 21  2 22 44.9990000  0  4G15G13G 2G 6
  23548259.628    -1225772.101 4   -898778.79921
  20391252.128   -18385751.674 7 -13605506.40522
  20878726.4804  -16280255.62848 -12614875.46264
  20103349.3154  -22061617.62247 -15635535.78063
 91  3 21  2 22 59.9990000  0  4G15G13G 2G 6
  23551956.894    -1206329.989 4   -883629.08921
  20385985.550   -18413431.173 7 -13627074.77822
  20880564.7614  -16270594.16348 -12607347.01663
  20102566.1444  -22065733.88547 -15638743.22162
 91  3 21  2 23 14.9990000  0  4G15G13G 2G 6
  23555681.1754   -1186759.42844   -868379.28361
  20380743.4804  -18440975.76147 -13648538.02262
  20882410.612   -16260890.625 8 -12599785.80523
  20101806.3004  -22069730.30347 -15641857.28263
 91  3 21  2 23 29.9990000  0  4G15G13G 2G 6
  23559431.3154   -1167063.02145   -853031.42961
  20375526.6984  -18468387.63647 -13669897.86062
  20884264.855   -16251147.394 8 -12592193.65323
  20101067.2694  -22073608.98047 -15644879.59563
 91  3 21  2 23 44.9990000  0  4G15G13G 2G 6
  23563204.3394   -1147236.24645   -837581.96761
  20370336.0034  -18495662.00447 -13691150.54062
  20886127.769   -16241359.863 8 -12584566.98423
  20100353.0894  -22077365.13347 -15647806.43463
 91  3 21  2 23 59.9990000  0  4G15G13G 2G 6
  23567001.644    -1127285.244 5   -822035.70921
  20365172.300   -18522804.879 7 -13712300.76422
  20887997.8234  -16231534.15848 -12576910.55963
  20099659.8784  -22081004.59147 -15650642.34362
 91  3 21  2 24 14.9990000  0  4G15G13G 2G 6
  23570821.933    -1107214.408 5   -806396.07821
  20360033.3624  -18549819.94547 -13733351.39562
  20889873.3864  -16221674.12748 -12569227.38463
  20098989.3234  -22084531.10347 -15653390.23863
 91  3 21  2 24 29.9990000  0  4G15G13G 2G 6
  23574663.4874   -1087008.35945   -790651.10761
  20354918.2064  -18576691.99947 -13754290.58962
  20891758.8004  -16211764.32548 -12561505.43463
  20098342.3624  -22087928.97847 -15656037.90362
 91  3 21  2 24 44.9990000  0  4G15G13G 2G 6
  23578531.0114   -1066676.92745   -774808.40761
  20349829.4724  -18603430.59847 -13775125.80062
  20893653.7064  -16201814.03748 -12553751.93563
  20097718.7614  -22091207.72347 -15658592.73462
 91  3 21  2 24 59.9990000  0  4G15G13G 2G 6
  23582424.761    -1046216.728 5   -758865.36921
  20344768.0814  -18630032.08847 -13795854.16862
  20895555.714   -16191819.798 7 -12545964.19823
  20097118.5424  -22094363.48847 -15661051.74162
 91  3 21  2 25 14.9990000  0  4G15G13G 2G 6
  23586342.831    -1025627.621 5   -742821.88421
  20339731.7144  -18656495.95847 -13816475.30162
  20897464.7534  -16181781.60448 -12538142.20763
  20096538.8394  -22097395.95447 -15663414.67462
 91  3 21  2 25 29.9990000  0  4G15G13G 2G 6
  23590288.136    -1004910.204 4   -726678.42921
  20334721.6054  -18682822.72347 -13836989.59662
  20899382.3624  -16171699.74747 -12530286.18263
  20095988.3314  -22100305.34847 -15665681.69662
 91  3 21  2 25 44.9990000  0  4G15G13G 2G 6
  23594249.409     -984067.079 4   -710437.01321
  20329736.7534  -18709014.83047 -13857398.96162
  20901308.940   -16161576.602 7 -12522397.99023
  20095458.3314  -22103094.12147 -15667854.73362
 91  3 21  2 25 59.9990000  0  4G15G13G 2G 6
  23598242.690     -963101.163 4   -694099.90621
  20324777.6124  -18735074.96747 -13877705.50262
  20903241.901   -16151414.786 7 -12514479.66823
  20094947.5894  -22105764.55347 -15669935.55262
 91  3 21  2 26 14.9990000  0  4G15G13G 2G 6
  23602253.8554    -942007.48544   -677663.25861
  20319844.1054  -18760997.90347 -13897905.12662
  20905186.237   -16141209.194 8 -12506527.24523
  20094463.9404  -22108311.44147 -15671920.10762
 91  3 21  2 26 29.9990000  0  4G15G13G 2G 6
  23606293.136     -920784.990 5   -661126.23721
  20314938.1124  -18786782.12247 -13917996.66262
  20907135.933   -16130958.537 7 -12498539.70523
  20094001.8864  -22110733.32247 -15673807.25862
 91  3 21  2 26 44.9990000  0  4G15G13G 2G 6
  23610355.4954    -899434.63544   -644489.56661
  20310057.5974  -18812428.47447 -13937980.76962
  20909095.9724  -16120663.55147 -12490517.61063
  20093564.8864  -22113030.90047 -15675597.54663
 91  3 21  2 26 59.9990000  0  4G15G13G 2G 6
  23614446.6984    -877957.22045   -627753.88961
  20305204.2924  -18837937.36947 -13957857.76262
  20911063.2224  -16110324.77447 -12482461.39163
  20093152.3474  -22115204.29847 -15677291.07262
 91  3 21  2 27 14.9990000  0  4G15G13G 2G 6
  23618556.2694    -856355.55145   -610921.42561
  20300374.8234  -18863311.84347 -13977630.01762
  20913037.4254  -16099945.06848 -12474373.28363
  20092761.1444  -22117256.42147 -15678890.10262
 91  3 21  2 27 29.9990000  0  4G15G13G 2G 6
  23622690.4724    -834625.01745   -593988.53661
  20295572.2224  -18888546.57347 -13997293.37562
  20915022.5424  -16089519.31748 -12466249.29363
  20092394.1904  -22119181.96147 -15680390.49062
 91  3 21  2 27 44.9990000  0  4G15G13G 2G 6
  23626852.5894    -812764.99944   -576954.70061
  20290797.8554  -18913640.94647 -14016847.37062
  20917014.8154  -16079046.73848 -12458088.81263
  20092052.151   -22120980.103 7 -15681791.61322
 91  3 21  2 27 59.9990000  0  4G15G13G 2G 6
  23631040.503     -790780.079 4   -559823.56521
  20286048.3784  -18938599.19547 -14036295.29361
  20919015.4874  -16068531.51248 -12449895.10163
  20091733.9334  -22122654.82447 -15683096.56562
 91  3 21  2 28 14.9990000  0  4G15G13G 2G 6
  23635239.4644    -768673.41243   -542597.56161
  20281324.6754  -18963424.20447 -14055639.39362
  20921024.222   -16057976.777 8 -12441670.61023
  20091439.7064  -22124209.04647 -15684307.62062
 91  3 21  2 28 29.9990000  0  4G15G13G 2G 6
  23639473.6514    -746441.52544   -525274.02261
  20276625.7844  -18988112.72347 -14074877.13762
  20923040.980   -16047379.330 8 -12433412.84223
  20091165.0504  -22125639.29347 -15685422.06862
 91  3 21  2 28 44.9990000  0  4G15G13G 2G 6
  23643725.3234    -724084.46243   -507852.89861
  20271954.1904  -19012664.19347 -14094008.09061
  20925065.2454  -16036738.53548 -12425121.28663
  20090917.8314  -22126944.93047 -15686439.41962
 91  3 21  2 28 59.9990000  0  4G15G13G 2G 6
  23648003.5734    -701602.39944   -490334.39361
  20267308.7764  -19037078.74047 -14113032.35361
  20927100.0264  -16026054.87148 -12416796.32063
  20090691.5114  -22128126.03347 -15687359.73362
 91  3 21  2 29 14.9990000  0  4G15G13G 2G 6
  23652305.394     -678993.371 4   -472716.97521
  20262688.6514  -19061354.04347 -14131948.11361
  20929140.8474  -16015325.76048 -12408435.94463
  20090493.4254  -22129180.12247 -15688181.06862
 91  3 21  2 29 29.9990000  0  4G15G13G 2G 6
  23656636.245     -656254.695 4   -454998.47621
  20258095.6364  -19085487.10047 -14150753.03561
  20931192.378   -16004548.124 8 -12400037.76723
  20090317.0194  -22130104.02947 -15688900.97062
 91  3 21  2 29 44.9990000  0  4G15G13G 2G 6
  23660987.7064    -633388.63545   -437180.78261
  20253529.9404  -19109479.89647 -14169448.65461
  20933251.565   -15993723.881 8 -12391603.26723
  20090165.5344  -22130899.76347 -15689520.99062
 91  3 21  2 29 59.9990000  0  4G15G13G 2G 6
  23665357.644     -610398.542 4   -419266.36721
  20248989.737   -19133335.868 7 -14188037.66621
  20935318.8864  -15982856.32148 -12383135.01663
  20090035.808   -22131570.259 7 -15690043.42722
 91  3 21  2 30 14.9990000  0  4G15G13G 2G 6
  23669758.261     -587283.670 4   -401254.78221
  20244477.0584  -19157053.61747 -14206518.97462
  20937395.495   -15971944.222 8 -12374632.06223
  20089933.4874  -22132114.22247 -15690467.26762
 91  3 21  2 30 29.9990000  0  4G15G13G 2G 6
  23674178.112     -564042.031 4   -383144.36021
  20239991.6984  -19180630.94047 -14224890.85362
  20939480.4094  -15960985.53747 -12366092.79463
  20089854.8474  -22132529.44247 -15690790.78162
 91  3 21  2 30 44.9990000  0  4G15G13G 2G 6
  23678630.800     -540678.772 4   -364939.23621
  20235529.901   -19204072.986 7 -14243157.32522
  20941574.8394  -15949985.31447 -12357521.16263
  20089802.1284  -22132820.80647 -15691017.79262
 91  3 21  2 30 59.9990000  0  4G15G13G 2G 6
  23683093.815     -517191.860 4   -346637.70021
  20231094.9724  -19227377.31847 -14261316.48862
  20943674.870   -15938941.191 7 -12348915.33023
  20089768.2534  -22132985.80647
 91  3 21  2 31 14.9990000  0  4G15G13G 2G 6
  23687590.6984    -493580.49645   -328239.22061
  20226686.2064  -19250543.18347 -14279367.75162
  20945785.3864  -15927852.36947 -12340274.66263
  20089762.2064  -22133023.64447
 91  3 21  2 31 29.9990000  0  4G15G13G 2G 6
  23692101.558     -469843.161 5   -309742.56321
  20222304.4334  -19273568.35747 -14297309.38561
  20947904.9724  -15916716.64047 -12331597.44263
  20089776.2534  -22132931.87747
 91  3 21  2 31 44.9990000  0  4G15G13G 2G 6
  23696648.464     -445981.095 4   -291148.71921
  20217949.0974  -19296454.23447 -14315142.48162
  20950033.0344  -15905535.51947 -12322884.85463
  20089818.683   -22132711.810 7
 91  3 21  2 31 59.9990000  0  4G15G13G 2G 6
  23701205.972     -421994.983 5   -272458.26221
  20213621.1054  -19319201.55247 -14332867.60262
  20952168.284   -15894309.481 7 -12314137.27223
  20089884.3554  -22132363.79847
 91  3 21  2 32 14.9990000  0  4G15G13G 2G 6
  23705802.3084    -397885.71245   -253671.77561
  20209319.690   -19341810.629 7 -14350485.00921
  20954315.269   -15883038.796 7 -12305354.90323
  20089977.3314  -22131888.10047 -15690290.80962
 91  3 21  2 32 29.9990000  0  4G15G13G 2G 6
  23710404.7144    -373653.33044   -234789.43361
  20205041.9334  -19364281.23347 -14367994.50962
  20956466.495   -15871723.521 7 -12296537.78423
  20090092.4334  -22131284.45047 -15689820.40662
 91  3 21  2 32 44.9990000  0  4G15G13G 2G 6
  23715043.034     -349297.182 4   -215810.54021
  20200791.9254  -19386612.59547 -14385395.51062
  20958628.8394  -15860362.82847 -12287685.26363
  20090229.8784  -22130552.01047 -15689249.64462
 91  3 21  2 32 59.9990000  0  4G15G13G 2G 6
  23719704.487     -324815.249 5   -196733.67021
  20196570.6514  -19408802.18147 -14402686.03662
  20960799.7694  -15848954.10147 -12278795.31463
  20090394.1204  -22129688.06947 -15688576.41162
 91  3 21  2 33 14.9990000  0  3G13G 2G 6
  20192374.2064  -19430852.51947 -14419868.06161
  20962977.870   -15837499.701 7 -12269869.78623
  20090584.0424  -22128694.95947 -15687802.53563
 91  3 21  2 33 29.9990000  0  3G13G 2G 6
  20188203.7454  -19452765.54447 -14436943.08461
  20965167.5034  -15826001.48047 -12260910.10963
  20090797.5974  -22127574.31547 -15686929.27263
 91  3 21  2 33 44.9990000  0  3G13G 2G 6
  20184061.214   -19474539.388 7 -14453909.65921
  20967364.9954  -15814457.62547 -12251914.86563
  20091034.6204  -22126324.34147 -15685955.23763
 91  3 21  2 33 59.9990000  0  3G13G 2G 6
  20179944.4334  -19496173.17947 -14470767.09961
  20969568.511   -15802867.459 7 -12242883.54423
  20091298.3314  -22124944.28147 -15684879.83562
 91  3 21  2 34 14.9990000  0  3G13G 2G 6
  20175855.300   -19517666.558 7 -14487515.12921
  20971783.433   -15791230.688 7 -12233815.90923
  20091585.6984  -22123433.42047 -15683702.50862
 91  3 21  2 34 29.9990000  0  3G13G 2G 6
  20171791.4484  -19539020.92447 -14504154.83661
  20974006.9954  -15779548.39447 -12224712.79963
  20091896.5814  -22121793.04347 -15682424.27062
 91  3 21  2 34 44.9990000  0  3G13G 2G 6
  20167753.237   -19560232.967 7 -14520683.64822
  20976239.323   -15767817.154 7 -12215571.54723
  20092235.1124  -22120019.67147 -15681042.38962
 91  3 21  2 34 59.9990000  0  3G13G 2G 6
  20163743.6904  -19581308.48047 -14537106.07962
  20978480.7764  -15756043.11247 -12206396.93963
  20092597.042   -22118119.056 7 -15679561.36722
 91  3 21  2 35 14.9990000  0  3G13G 2G 6
  20159761.0344  -19602241.29447 -14553417.29362
  20980731.3554  -15744219.89847 -12197184.01463
  20092980.9404  -22116084.76047 -15677976.17362
